<?xml version="1.0" encoding="UTF-8" standalone="no" ?>
<gpx xmlns="http://www.topografix.com/GPX/1/1" xmlns:xsi="http://www.w3.org/2001/XMLSchema-instance" xsi:schemaLocation="http://www.topografix.com/GPX/1/1 http://www.topografix.com/GPX/1/1/gpx.xsd" version="1.1" creator="VisuGPX - https://www.visugpx.com">
  <metadata>
    <name>Autour de Simiane la Rotonde</name>
    <desc><![CDATA[Belle journée chaude.
]]></desc>
  </metadata>
  <trk>
    <name><![CDATA[ACTIVE LOG101334]]></name>
    <trkseg>
      <trkpt lat="43.97956" lon="5.5642">
        <ele>628.714</ele>
        <time>2011-04-10T08:13:32Z</time>
      </trkpt>
      <trkpt lat="43.97956" lon="5.56421">
        <ele>628.714</ele>
        <time>2011-04-10T08:13:33Z</time>
      </trkpt>
      <trkpt lat="43.97962" lon="5.56426">
        <ele>628.91</ele>
        <time>2011-04-10T08:13:44Z</time>
      </trkpt>
      <trkpt lat="43.9797" lon="5.56429">
        <ele>628.07</ele>
        <time>2011-04-10T08:13:54Z</time>
      </trkpt>
      <trkpt lat="43.97975" lon="5.56431">
        <ele>629.026</ele>
        <time>2011-04-10T08:14:04Z</time>
      </trkpt>
      <trkpt lat="43.97983" lon="5.56425">
        <ele>629.521</ele>
        <time>2011-04-10T08:14:14Z</time>
      </trkpt>
      <trkpt lat="43.97993" lon="5.56417">
        <ele>629.919</ele>
        <time>2011-04-10T08:14:24Z</time>
      </trkpt>
      <trkpt lat="43.98007" lon="5.56413">
        <ele>630.366</ele>
        <time>2011-04-10T08:14:34Z</time>
      </trkpt>
      <trkpt lat="43.9801" lon="5.56408">
        <ele>631.07</ele>
        <time>2011-04-10T08:14:44Z</time>
      </trkpt>
      <trkpt lat="43.98021" lon="5.56405">
        <ele>632.284</ele>
        <time>2011-04-10T08:14:54Z</time>
      </trkpt>
      <trkpt lat="43.98031" lon="5.56403">
        <ele>633.96</ele>
        <time>2011-04-10T08:15:04Z</time>
      </trkpt>
      <trkpt lat="43.98042" lon="5.56402">
        <ele>634.244</ele>
        <time>2011-04-10T08:15:14Z</time>
      </trkpt>
      <trkpt lat="43.98053" lon="5.56405">
        <ele>635.825</ele>
        <time>2011-04-10T08:15:24Z</time>
      </trkpt>
      <trkpt lat="43.98065" lon="5.56409">
        <ele>637.135</ele>
        <time>2011-04-10T08:15:34Z</time>
      </trkpt>
      <trkpt lat="43.98075" lon="5.56413">
        <ele>638.512</ele>
        <time>2011-04-10T08:15:44Z</time>
      </trkpt>
      <trkpt lat="43.98083" lon="5.5642">
        <ele>640.006</ele>
        <time>2011-04-10T08:15:54Z</time>
      </trkpt>
      <trkpt lat="43.9809" lon="5.56421">
        <ele>640.935</ele>
        <time>2011-04-10T08:16:04Z</time>
      </trkpt>
      <trkpt lat="43.981" lon="5.56417">
        <ele>641.11</ele>
        <time>2011-04-10T08:16:14Z</time>
      </trkpt>
      <trkpt lat="43.98101" lon="5.56416">
        <ele>642.897</ele>
        <time>2011-04-10T08:16:24Z</time>
      </trkpt>
      <trkpt lat="43.98104" lon="5.56412">
        <ele>644.721</ele>
        <time>2011-04-10T08:16:34Z</time>
      </trkpt>
      <trkpt lat="43.98109" lon="5.56403">
        <ele>646.887</ele>
        <time>2011-04-10T08:16:44Z</time>
      </trkpt>
      <trkpt lat="43.98117" lon="5.56392">
        <ele>648.442</ele>
        <time>2011-04-10T08:16:54Z</time>
      </trkpt>
      <trkpt lat="43.9812" lon="5.56393">
        <ele>650.347</ele>
        <time>2011-04-10T08:17:04Z</time>
      </trkpt>
      <trkpt lat="43.98133" lon="5.56385">
        <ele>652.26</ele>
        <time>2011-04-10T08:17:14Z</time>
      </trkpt>
      <trkpt lat="43.98142" lon="5.56376">
        <ele>654.256</ele>
        <time>2011-04-10T08:17:24Z</time>
      </trkpt>
      <trkpt lat="43.98143" lon="5.56365">
        <ele>655.834</ele>
        <time>2011-04-10T08:17:34Z</time>
      </trkpt>
      <trkpt lat="43.98137" lon="5.5636">
        <ele>657.999</ele>
        <time>2011-04-10T08:17:44Z</time>
      </trkpt>
      <trkpt lat="43.98132" lon="5.56353">
        <ele>659.921</ele>
        <time>2011-04-10T08:17:54Z</time>
      </trkpt>
      <trkpt lat="43.9813" lon="5.5635">
        <ele>659.975</ele>
        <time>2011-04-10T08:18:04Z</time>
      </trkpt>
      <trkpt lat="43.98125" lon="5.56348">
        <ele>661.193</ele>
        <time>2011-04-10T08:18:14Z</time>
      </trkpt>
      <trkpt lat="43.98115" lon="5.56343">
        <ele>663.069</ele>
        <time>2011-04-10T08:18:24Z</time>
      </trkpt>
      <trkpt lat="43.98107" lon="5.56341">
        <ele>664.471</ele>
        <time>2011-04-10T08:18:34Z</time>
      </trkpt>
      <trkpt lat="43.98098" lon="5.56335">
        <ele>666.755</ele>
        <time>2011-04-10T08:18:44Z</time>
      </trkpt>
      <trkpt lat="43.98088" lon="5.56332">
        <ele>668.368</ele>
        <time>2011-04-10T08:18:54Z</time>
      </trkpt>
      <trkpt lat="43.98095" lon="5.56337">
        <ele>668.731</ele>
        <time>2011-04-10T08:19:04Z</time>
      </trkpt>
      <trkpt lat="43.98101" lon="5.56337">
        <ele>669.131</ele>
        <time>2011-04-10T08:19:14Z</time>
      </trkpt>
      <trkpt lat="43.98108" lon="5.56336">
        <ele>669.318</ele>
        <time>2011-04-10T08:19:24Z</time>
      </trkpt>
      <trkpt lat="43.98108" lon="5.56335">
        <ele>669.278</ele>
        <time>2011-04-10T08:19:34Z</time>
      </trkpt>
      <trkpt lat="43.98118" lon="5.56327">
        <ele>670.108</ele>
        <time>2011-04-10T08:19:44Z</time>
      </trkpt>
      <trkpt lat="43.98114" lon="5.56328">
        <ele>670.967</ele>
        <time>2011-04-10T08:19:54Z</time>
      </trkpt>
      <trkpt lat="43.98111" lon="5.5632">
        <ele>672.489</ele>
        <time>2011-04-10T08:20:04Z</time>
      </trkpt>
      <trkpt lat="43.98106" lon="5.56323">
        <ele>673.071</ele>
        <time>2011-04-10T08:20:14Z</time>
      </trkpt>
      <trkpt lat="43.98106" lon="5.56324">
        <ele>673.044</ele>
        <time>2011-04-10T08:20:24Z</time>
      </trkpt>
      <trkpt lat="43.98106" lon="5.56324">
        <ele>672.895</ele>
        <time>2011-04-10T08:20:34Z</time>
      </trkpt>
      <trkpt lat="43.98106" lon="5.56324">
        <ele>673.267</ele>
        <time>2011-04-10T08:20:44Z</time>
      </trkpt>
      <trkpt lat="43.98106" lon="5.56324">
        <ele>673.495</ele>
        <time>2011-04-10T08:20:54Z</time>
      </trkpt>
      <trkpt lat="43.98106" lon="5.56324">
        <ele>673.671</ele>
        <time>2011-04-10T08:21:04Z</time>
      </trkpt>
      <trkpt lat="43.98106" lon="5.56324">
        <ele>674.032</ele>
        <time>2011-04-10T08:21:14Z</time>
      </trkpt>
      <trkpt lat="43.98107" lon="5.56324">
        <ele>674.192</ele>
        <time>2011-04-10T08:21:24Z</time>
      </trkpt>
      <trkpt lat="43.98107" lon="5.56323">
        <ele>674.159</ele>
        <time>2011-04-10T08:21:34Z</time>
      </trkpt>
      <trkpt lat="43.98107" lon="5.56323">
        <ele>674.279</ele>
        <time>2011-04-10T08:21:44Z</time>
      </trkpt>
      <trkpt lat="43.98107" lon="5.56324">
        <ele>674.719</ele>
        <time>2011-04-10T08:21:54Z</time>
      </trkpt>
      <trkpt lat="43.98106" lon="5.56324">
        <ele>674.955</ele>
        <time>2011-04-10T08:22:04Z</time>
      </trkpt>
      <trkpt lat="43.98106" lon="5.56324">
        <ele>674.808</ele>
        <time>2011-04-10T08:22:14Z</time>
      </trkpt>
      <trkpt lat="43.98105" lon="5.56325">
        <ele>674.67</ele>
        <time>2011-04-10T08:22:24Z</time>
      </trkpt>
      <trkpt lat="43.98105" lon="5.56324">
        <ele>676.388</ele>
        <time>2011-04-10T08:22:34Z</time>
      </trkpt>
      <trkpt lat="43.98103" lon="5.56321">
        <ele>677.658</ele>
        <time>2011-04-10T08:22:44Z</time>
      </trkpt>
      <trkpt lat="43.98104" lon="5.56318">
        <ele>678.234</ele>
        <time>2011-04-10T08:22:54Z</time>
      </trkpt>
      <trkpt lat="43.98104" lon="5.56309">
        <ele>679.102</ele>
        <time>2011-04-10T08:23:04Z</time>
      </trkpt>
      <trkpt lat="43.98099" lon="5.56298">
        <ele>680.856</ele>
        <time>2011-04-10T08:23:14Z</time>
      </trkpt>
      <trkpt lat="43.98091" lon="5.56282">
        <ele>682.75</ele>
        <time>2011-04-10T08:23:24Z</time>
      </trkpt>
      <trkpt lat="43.98082" lon="5.56265">
        <ele>684.652</ele>
        <time>2011-04-10T08:23:34Z</time>
      </trkpt>
      <trkpt lat="43.98076" lon="5.56258">
        <ele>685.444</ele>
        <time>2011-04-10T08:23:44Z</time>
      </trkpt>
      <trkpt lat="43.98075" lon="5.56257">
        <ele>685.433</ele>
        <time>2011-04-10T08:23:54Z</time>
      </trkpt>
      <trkpt lat="43.98071" lon="5.56255">
        <ele>685.728</ele>
        <time>2011-04-10T08:24:04Z</time>
      </trkpt>
      <trkpt lat="43.98071" lon="5.56256">
        <ele>685.901</ele>
        <time>2011-04-10T08:24:14Z</time>
      </trkpt>
      <trkpt lat="43.9807" lon="5.56256">
        <ele>685.896</ele>
        <time>2011-04-10T08:24:24Z</time>
      </trkpt>
      <trkpt lat="43.98071" lon="5.56256">
        <ele>685.976</ele>
        <time>2011-04-10T08:24:34Z</time>
      </trkpt>
      <trkpt lat="43.98071" lon="5.56255">
        <ele>685.977</ele>
        <time>2011-04-10T08:24:44Z</time>
      </trkpt>
      <trkpt lat="43.98068" lon="5.56259">
        <ele>685.747</ele>
        <time>2011-04-10T08:24:54Z</time>
      </trkpt>
      <trkpt lat="43.98067" lon="5.56262">
        <ele>685.955</ele>
        <time>2011-04-10T08:25:04Z</time>
      </trkpt>
      <trkpt lat="43.98067" lon="5.56264">
        <ele>685.746</ele>
        <time>2011-04-10T08:25:14Z</time>
      </trkpt>
      <trkpt lat="43.98068" lon="5.56263">
        <ele>685.491</ele>
        <time>2011-04-10T08:25:24Z</time>
      </trkpt>
      <trkpt lat="43.98068" lon="5.56261">
        <ele>685.874</ele>
        <time>2011-04-10T08:25:34Z</time>
      </trkpt>
      <trkpt lat="43.98068" lon="5.56253">
        <ele>685.973</ele>
        <time>2011-04-10T08:25:44Z</time>
      </trkpt>
      <trkpt lat="43.98071" lon="5.5625">
        <ele>685.708</ele>
        <time>2011-04-10T08:25:54Z</time>
      </trkpt>
      <trkpt lat="43.98076" lon="5.56252">
        <ele>685.659</ele>
        <time>2011-04-10T08:26:04Z</time>
      </trkpt>
      <trkpt lat="43.98076" lon="5.5626">
        <ele>685.387</ele>
        <time>2011-04-10T08:26:14Z</time>
      </trkpt>
      <trkpt lat="43.98079" lon="5.56262">
        <ele>685.266</ele>
        <time>2011-04-10T08:26:24Z</time>
      </trkpt>
      <trkpt lat="43.98084" lon="5.56259">
        <ele>686.95</ele>
        <time>2011-04-10T08:26:34Z</time>
      </trkpt>
      <trkpt lat="43.98086" lon="5.56257">
        <ele>687.788</ele>
        <time>2011-04-10T08:26:44Z</time>
      </trkpt>
      <trkpt lat="43.98093" lon="5.56253">
        <ele>687.502</ele>
        <time>2011-04-10T08:26:54Z</time>
      </trkpt>
      <trkpt lat="43.98092" lon="5.56257">
        <ele>688.011</ele>
        <time>2011-04-10T08:27:04Z</time>
      </trkpt>
      <trkpt lat="43.98093" lon="5.5626">
        <ele>688.278</ele>
        <time>2011-04-10T08:27:14Z</time>
      </trkpt>
      <trkpt lat="43.98095" lon="5.56259">
        <ele>688.052</ele>
        <time>2011-04-10T08:27:24Z</time>
      </trkpt>
      <trkpt lat="43.98097" lon="5.56259">
        <ele>687.798</ele>
        <time>2011-04-10T08:27:34Z</time>
      </trkpt>
      <trkpt lat="43.98106" lon="5.56262">
        <ele>688.137</ele>
        <time>2011-04-10T08:27:44Z</time>
      </trkpt>
      <trkpt lat="43.98112" lon="5.56258">
        <ele>688.47</ele>
        <time>2011-04-10T08:27:54Z</time>
      </trkpt>
      <trkpt lat="43.98114" lon="5.56258">
        <ele>688.856</ele>
        <time>2011-04-10T08:28:04Z</time>
      </trkpt>
      <trkpt lat="43.98115" lon="5.56255">
        <ele>689.321</ele>
        <time>2011-04-10T08:28:14Z</time>
      </trkpt>
      <trkpt lat="43.98119" lon="5.56258">
        <ele>690.216</ele>
        <time>2011-04-10T08:28:24Z</time>
      </trkpt>
      <trkpt lat="43.9812" lon="5.56259">
        <ele>690.434</ele>
        <time>2011-04-10T08:28:34Z</time>
      </trkpt>
      <trkpt lat="43.98119" lon="5.56258">
        <ele>690.702</ele>
        <time>2011-04-10T08:28:44Z</time>
      </trkpt>
      <trkpt lat="43.9812" lon="5.56259">
        <ele>690.531</ele>
        <time>2011-04-10T08:28:54Z</time>
      </trkpt>
      <trkpt lat="43.98121" lon="5.56258">
        <ele>691.514</ele>
        <time>2011-04-10T08:29:04Z</time>
      </trkpt>
      <trkpt lat="43.98127" lon="5.56247">
        <ele>692.249</ele>
        <time>2011-04-10T08:29:14Z</time>
      </trkpt>
      <trkpt lat="43.9813" lon="5.56242">
        <ele>693.889</ele>
        <time>2011-04-10T08:29:24Z</time>
      </trkpt>
      <trkpt lat="43.98126" lon="5.5624">
        <ele>695.104</ele>
        <time>2011-04-10T08:29:34Z</time>
      </trkpt>
      <trkpt lat="43.98115" lon="5.56238">
        <ele>696.002</ele>
        <time>2011-04-10T08:29:44Z</time>
      </trkpt>
      <trkpt lat="43.9811" lon="5.5623">
        <ele>697.909</ele>
        <time>2011-04-10T08:29:54Z</time>
      </trkpt>
      <trkpt lat="43.98107" lon="5.56227">
        <ele>698.404</ele>
        <time>2011-04-10T08:30:04Z</time>
      </trkpt>
      <trkpt lat="43.98108" lon="5.56224">
        <ele>698.576</ele>
        <time>2011-04-10T08:30:14Z</time>
      </trkpt>
      <trkpt lat="43.98106" lon="5.56222">
        <ele>698.619</ele>
        <time>2011-04-10T08:30:24Z</time>
      </trkpt>
      <trkpt lat="43.98102" lon="5.56218">
        <ele>699.068</ele>
        <time>2011-04-10T08:30:34Z</time>
      </trkpt>
      <trkpt lat="43.981" lon="5.5621">
        <ele>700.461</ele>
        <time>2011-04-10T08:30:44Z</time>
      </trkpt>
      <trkpt lat="43.98105" lon="5.56202">
        <ele>701.807</ele>
        <time>2011-04-10T08:30:54Z</time>
      </trkpt>
      <trkpt lat="43.98106" lon="5.5619">
        <ele>702.677</ele>
        <time>2011-04-10T08:31:04Z</time>
      </trkpt>
      <trkpt lat="43.98102" lon="5.56182">
        <ele>702.096</ele>
        <time>2011-04-10T08:31:14Z</time>
      </trkpt>
      <trkpt lat="43.98102" lon="5.56171">
        <ele>703.379</ele>
        <time>2011-04-10T08:31:24Z</time>
      </trkpt>
      <trkpt lat="43.98104" lon="5.5616">
        <ele>705.065</ele>
        <time>2011-04-10T08:31:34Z</time>
      </trkpt>
      <trkpt lat="43.98104" lon="5.56149">
        <ele>706.776</ele>
        <time>2011-04-10T08:31:44Z</time>
      </trkpt>
      <trkpt lat="43.98115" lon="5.56142">
        <ele>707.664</ele>
        <time>2011-04-10T08:31:54Z</time>
      </trkpt>
      <trkpt lat="43.98112" lon="5.56127">
        <ele>709.309</ele>
        <time>2011-04-10T08:32:04Z</time>
      </trkpt>
      <trkpt lat="43.9811" lon="5.56118">
        <ele>709.993</ele>
        <time>2011-04-10T08:32:14Z</time>
      </trkpt>
      <trkpt lat="43.98116" lon="5.5612">
        <ele>711.218</ele>
        <time>2011-04-10T08:32:24Z</time>
      </trkpt>
      <trkpt lat="43.98119" lon="5.5612">
        <ele>710.942</ele>
        <time>2011-04-10T08:32:34Z</time>
      </trkpt>
      <trkpt lat="43.98124" lon="5.5612">
        <ele>711.196</ele>
        <time>2011-04-10T08:32:44Z</time>
      </trkpt>
      <trkpt lat="43.98126" lon="5.56113">
        <ele>711.129</ele>
        <time>2011-04-10T08:32:54Z</time>
      </trkpt>
      <trkpt lat="43.98131" lon="5.56112">
        <ele>711.462</ele>
        <time>2011-04-10T08:33:04Z</time>
      </trkpt>
      <trkpt lat="43.98132" lon="5.56111">
        <ele>711.159</ele>
        <time>2011-04-10T08:33:14Z</time>
      </trkpt>
      <trkpt lat="43.98133" lon="5.56112">
        <ele>711.226</ele>
        <time>2011-04-10T08:33:24Z</time>
      </trkpt>
      <trkpt lat="43.98133" lon="5.56111">
        <ele>711.195</ele>
        <time>2011-04-10T08:33:34Z</time>
      </trkpt>
      <trkpt lat="43.98133" lon="5.56112">
        <ele>711.258</ele>
        <time>2011-04-10T08:33:44Z</time>
      </trkpt>
      <trkpt lat="43.98134" lon="5.56112">
        <ele>711.517</ele>
        <time>2011-04-10T08:33:54Z</time>
      </trkpt>
      <trkpt lat="43.98134" lon="5.56112">
        <ele>711.838</ele>
        <time>2011-04-10T08:34:04Z</time>
      </trkpt>
      <trkpt lat="43.98134" lon="5.56111">
        <ele>711.843</ele>
        <time>2011-04-10T08:34:14Z</time>
      </trkpt>
      <trkpt lat="43.98134" lon="5.56111">
        <ele>711.686</ele>
        <time>2011-04-10T08:34:24Z</time>
      </trkpt>
      <trkpt lat="43.98134" lon="5.56111">
        <ele>711.869</ele>
        <time>2011-04-10T08:34:34Z</time>
      </trkpt>
      <trkpt lat="43.98134" lon="5.56111">
        <ele>711.509</ele>
        <time>2011-04-10T08:34:44Z</time>
      </trkpt>
      <trkpt lat="43.98134" lon="5.56112">
        <ele>711.272</ele>
        <time>2011-04-10T08:34:54Z</time>
      </trkpt>
      <trkpt lat="43.98134" lon="5.56112">
        <ele>711.894</ele>
        <time>2011-04-10T08:35:04Z</time>
      </trkpt>
      <trkpt lat="43.98134" lon="5.56112">
        <ele>711.561</ele>
        <time>2011-04-10T08:35:14Z</time>
      </trkpt>
      <trkpt lat="43.98134" lon="5.56112">
        <ele>711.123</ele>
        <time>2011-04-10T08:35:24Z</time>
      </trkpt>
      <trkpt lat="43.98134" lon="5.56112">
        <ele>711.538</ele>
        <time>2011-04-10T08:35:34Z</time>
      </trkpt>
      <trkpt lat="43.98135" lon="5.56112">
        <ele>711.825</ele>
        <time>2011-04-10T08:35:44Z</time>
      </trkpt>
      <trkpt lat="43.98135" lon="5.56112">
        <ele>712.537</ele>
        <time>2011-04-10T08:35:54Z</time>
      </trkpt>
      <trkpt lat="43.98135" lon="5.56112">
        <ele>712.248</ele>
        <time>2011-04-10T08:36:04Z</time>
      </trkpt>
      <trkpt lat="43.98135" lon="5.56108">
        <ele>712.784</ele>
        <time>2011-04-10T08:36:14Z</time>
      </trkpt>
      <trkpt lat="43.98135" lon="5.56104">
        <ele>711.825</ele>
        <time>2011-04-10T08:36:24Z</time>
      </trkpt>
      <trkpt lat="43.98135" lon="5.56091">
        <ele>712.788</ele>
        <time>2011-04-10T08:36:34Z</time>
      </trkpt>
      <trkpt lat="43.98139" lon="5.56079">
        <ele>713.27</ele>
        <time>2011-04-10T08:36:44Z</time>
      </trkpt>
      <trkpt lat="43.98142" lon="5.56068">
        <ele>713.749</ele>
        <time>2011-04-10T08:36:54Z</time>
      </trkpt>
      <trkpt lat="43.98147" lon="5.56054">
        <ele>713.33</ele>
        <time>2011-04-10T08:37:04Z</time>
      </trkpt>
      <trkpt lat="43.98151" lon="5.56043">
        <ele>714.771</ele>
        <time>2011-04-10T08:37:14Z</time>
      </trkpt>
      <trkpt lat="43.98155" lon="5.5603">
        <ele>714.367</ele>
        <time>2011-04-10T08:37:24Z</time>
      </trkpt>
      <trkpt lat="43.98157" lon="5.56016">
        <ele>716.096</ele>
        <time>2011-04-10T08:37:34Z</time>
      </trkpt>
      <trkpt lat="43.9816" lon="5.56001">
        <ele>718.03</ele>
        <time>2011-04-10T08:37:44Z</time>
      </trkpt>
      <trkpt lat="43.98165" lon="5.55989">
        <ele>718.581</ele>
        <time>2011-04-10T08:37:54Z</time>
      </trkpt>
      <trkpt lat="43.98169" lon="5.55977">
        <ele>720.15</ele>
        <time>2011-04-10T08:38:04Z</time>
      </trkpt>
      <trkpt lat="43.98173" lon="5.55965">
        <ele>720.967</ele>
        <time>2011-04-10T08:38:14Z</time>
      </trkpt>
      <trkpt lat="43.98179" lon="5.55955">
        <ele>723.11</ele>
        <time>2011-04-10T08:38:24Z</time>
      </trkpt>
      <trkpt lat="43.98182" lon="5.55939">
        <ele>724.569</ele>
        <time>2011-04-10T08:38:34Z</time>
      </trkpt>
      <trkpt lat="43.98185" lon="5.55928">
        <ele>726.195</ele>
        <time>2011-04-10T08:38:44Z</time>
      </trkpt>
      <trkpt lat="43.98188" lon="5.55915">
        <ele>727.864</ele>
        <time>2011-04-10T08:38:54Z</time>
      </trkpt>
      <trkpt lat="43.98192" lon="5.55903">
        <ele>729.284</ele>
        <time>2011-04-10T08:39:04Z</time>
      </trkpt>
      <trkpt lat="43.98195" lon="5.55888">
        <ele>730.213</ele>
        <time>2011-04-10T08:39:14Z</time>
      </trkpt>
      <trkpt lat="43.98198" lon="5.55874">
        <ele>731.675</ele>
        <time>2011-04-10T08:39:24Z</time>
      </trkpt>
      <trkpt lat="43.98202" lon="5.5586">
        <ele>733.306</ele>
        <time>2011-04-10T08:39:34Z</time>
      </trkpt>
      <trkpt lat="43.98207" lon="5.55848">
        <ele>735.204</ele>
        <time>2011-04-10T08:39:44Z</time>
      </trkpt>
      <trkpt lat="43.9821" lon="5.55835">
        <ele>736.88</ele>
        <time>2011-04-10T08:39:54Z</time>
      </trkpt>
      <trkpt lat="43.98215" lon="5.55821">
        <ele>738.158</ele>
        <time>2011-04-10T08:40:04Z</time>
      </trkpt>
      <trkpt lat="43.98219" lon="5.55807">
        <ele>739.463</ele>
        <time>2011-04-10T08:40:14Z</time>
      </trkpt>
      <trkpt lat="43.98224" lon="5.55795">
        <ele>740.992</ele>
        <time>2011-04-10T08:40:24Z</time>
      </trkpt>
      <trkpt lat="43.98229" lon="5.55781">
        <ele>742.077</ele>
        <time>2011-04-10T08:40:34Z</time>
      </trkpt>
      <trkpt lat="43.98235" lon="5.55771">
        <ele>744.171</ele>
        <time>2011-04-10T08:40:44Z</time>
      </trkpt>
      <trkpt lat="43.98239" lon="5.55757">
        <ele>745.315</ele>
        <time>2011-04-10T08:40:54Z</time>
      </trkpt>
      <trkpt lat="43.98241" lon="5.55742">
        <ele>747.171</ele>
        <time>2011-04-10T08:41:04Z</time>
      </trkpt>
      <trkpt lat="43.98246" lon="5.5573">
        <ele>748.284</ele>
        <time>2011-04-10T08:41:14Z</time>
      </trkpt>
      <trkpt lat="43.98254" lon="5.55722">
        <ele>748.33</ele>
        <time>2011-04-10T08:41:24Z</time>
      </trkpt>
      <trkpt lat="43.98261" lon="5.55712">
        <ele>750.01</ele>
        <time>2011-04-10T08:41:34Z</time>
      </trkpt>
      <trkpt lat="43.98265" lon="5.55698">
        <ele>750.488</ele>
        <time>2011-04-10T08:41:44Z</time>
      </trkpt>
      <trkpt lat="43.98267" lon="5.55682">
        <ele>751.877</ele>
        <time>2011-04-10T08:41:54Z</time>
      </trkpt>
      <trkpt lat="43.98269" lon="5.55667">
        <ele>752.975</ele>
        <time>2011-04-10T08:42:04Z</time>
      </trkpt>
      <trkpt lat="43.98269" lon="5.55651">
        <ele>754.223</ele>
        <time>2011-04-10T08:42:14Z</time>
      </trkpt>
      <trkpt lat="43.98268" lon="5.55637">
        <ele>755.304</ele>
        <time>2011-04-10T08:42:24Z</time>
      </trkpt>
      <trkpt lat="43.98267" lon="5.55621">
        <ele>756.271</ele>
        <time>2011-04-10T08:42:34Z</time>
      </trkpt>
      <trkpt lat="43.98264" lon="5.55605">
        <ele>757.732</ele>
        <time>2011-04-10T08:42:44Z</time>
      </trkpt>
      <trkpt lat="43.98262" lon="5.55597">
        <ele>758.113</ele>
        <time>2011-04-10T08:42:54Z</time>
      </trkpt>
      <trkpt lat="43.98263" lon="5.55587">
        <ele>759.128</ele>
        <time>2011-04-10T08:43:04Z</time>
      </trkpt>
      <trkpt lat="43.98262" lon="5.55573">
        <ele>759.931</ele>
        <time>2011-04-10T08:43:14Z</time>
      </trkpt>
      <trkpt lat="43.9826" lon="5.55562">
        <ele>761.006</ele>
        <time>2011-04-10T08:43:24Z</time>
      </trkpt>
      <trkpt lat="43.98256" lon="5.5556">
        <ele>761.966</ele>
        <time>2011-04-10T08:43:34Z</time>
      </trkpt>
      <trkpt lat="43.98255" lon="5.55559">
        <ele>761.644</ele>
        <time>2011-04-10T08:43:44Z</time>
      </trkpt>
      <trkpt lat="43.98258" lon="5.55552">
        <ele>762.101</ele>
        <time>2011-04-10T08:43:54Z</time>
      </trkpt>
      <trkpt lat="43.9826" lon="5.55547">
        <ele>762.202</ele>
        <time>2011-04-10T08:44:04Z</time>
      </trkpt>
      <trkpt lat="43.98264" lon="5.5554">
        <ele>761.654</ele>
        <time>2011-04-10T08:44:14Z</time>
      </trkpt>
      <trkpt lat="43.98267" lon="5.55529">
        <ele>762.661</ele>
        <time>2011-04-10T08:44:24Z</time>
      </trkpt>
      <trkpt lat="43.98271" lon="5.55517">
        <ele>763.688</ele>
        <time>2011-04-10T08:44:34Z</time>
      </trkpt>
      <trkpt lat="43.98276" lon="5.55505">
        <ele>764.104</ele>
        <time>2011-04-10T08:44:44Z</time>
      </trkpt>
      <trkpt lat="43.98278" lon="5.55491">
        <ele>765.622</ele>
        <time>2011-04-10T08:44:54Z</time>
      </trkpt>
      <trkpt lat="43.98278" lon="5.55479">
        <ele>765.575</ele>
        <time>2011-04-10T08:45:04Z</time>
      </trkpt>
      <trkpt lat="43.98275" lon="5.55465">
        <ele>766.536</ele>
        <time>2011-04-10T08:45:14Z</time>
      </trkpt>
      <trkpt lat="43.98274" lon="5.55449">
        <ele>766.718</ele>
        <time>2011-04-10T08:45:24Z</time>
      </trkpt>
      <trkpt lat="43.98274" lon="5.55433">
        <ele>766.759</ele>
        <time>2011-04-10T08:45:34Z</time>
      </trkpt>
      <trkpt lat="43.98275" lon="5.55417">
        <ele>768.675</ele>
        <time>2011-04-10T08:45:44Z</time>
      </trkpt>
      <trkpt lat="43.98277" lon="5.55402">
        <ele>769.218</ele>
        <time>2011-04-10T08:45:54Z</time>
      </trkpt>
      <trkpt lat="43.98277" lon="5.55389">
        <ele>769.763</ele>
        <time>2011-04-10T08:46:04Z</time>
      </trkpt>
      <trkpt lat="43.98273" lon="5.55374">
        <ele>770.708</ele>
        <time>2011-04-10T08:46:14Z</time>
      </trkpt>
      <trkpt lat="43.98271" lon="5.55359">
        <ele>771.51</ele>
        <time>2011-04-10T08:46:24Z</time>
      </trkpt>
      <trkpt lat="43.98268" lon="5.55345">
        <ele>772.879</ele>
        <time>2011-04-10T08:46:34Z</time>
      </trkpt>
      <trkpt lat="43.98265" lon="5.55331">
        <ele>774.435</ele>
        <time>2011-04-10T08:46:44Z</time>
      </trkpt>
      <trkpt lat="43.98261" lon="5.55317">
        <ele>775.316</ele>
        <time>2011-04-10T08:46:54Z</time>
      </trkpt>
      <trkpt lat="43.9826" lon="5.55304">
        <ele>776.504</ele>
        <time>2011-04-10T08:47:04Z</time>
      </trkpt>
      <trkpt lat="43.98259" lon="5.5529">
        <ele>777.457</ele>
        <time>2011-04-10T08:47:14Z</time>
      </trkpt>
      <trkpt lat="43.98256" lon="5.55275">
        <ele>778.938</ele>
        <time>2011-04-10T08:47:24Z</time>
      </trkpt>
      <trkpt lat="43.98252" lon="5.55261">
        <ele>779.473</ele>
        <time>2011-04-10T08:47:34Z</time>
      </trkpt>
      <trkpt lat="43.9825" lon="5.55245">
        <ele>780.341</ele>
        <time>2011-04-10T08:47:44Z</time>
      </trkpt>
      <trkpt lat="43.98248" lon="5.5523">
        <ele>780.565</ele>
        <time>2011-04-10T08:47:54Z</time>
      </trkpt>
      <trkpt lat="43.98248" lon="5.55216">
        <ele>781.657</ele>
        <time>2011-04-10T08:48:04Z</time>
      </trkpt>
      <trkpt lat="43.98249" lon="5.55204">
        <ele>782.325</ele>
        <time>2011-04-10T08:48:14Z</time>
      </trkpt>
      <trkpt lat="43.98251" lon="5.55188">
        <ele>782.75</ele>
        <time>2011-04-10T08:48:24Z</time>
      </trkpt>
      <trkpt lat="43.98253" lon="5.55172">
        <ele>784.067</ele>
        <time>2011-04-10T08:48:34Z</time>
      </trkpt>
      <trkpt lat="43.98253" lon="5.55155">
        <ele>784.689</ele>
        <time>2011-04-10T08:48:44Z</time>
      </trkpt>
      <trkpt lat="43.98253" lon="5.55139">
        <ele>785.344</ele>
        <time>2011-04-10T08:48:54Z</time>
      </trkpt>
      <trkpt lat="43.98252" lon="5.55125">
        <ele>786.135</ele>
        <time>2011-04-10T08:49:04Z</time>
      </trkpt>
      <trkpt lat="43.98246" lon="5.55108">
        <ele>786.814</ele>
        <time>2011-04-10T08:49:14Z</time>
      </trkpt>
      <trkpt lat="43.98239" lon="5.55096">
        <ele>788.722</ele>
        <time>2011-04-10T08:49:24Z</time>
      </trkpt>
      <trkpt lat="43.98232" lon="5.55084">
        <ele>790.208</ele>
        <time>2011-04-10T08:49:34Z</time>
      </trkpt>
      <trkpt lat="43.98225" lon="5.55074">
        <ele>791.091</ele>
        <time>2011-04-10T08:49:44Z</time>
      </trkpt>
      <trkpt lat="43.98222" lon="5.55062">
        <ele>791.856</ele>
        <time>2011-04-10T08:49:54Z</time>
      </trkpt>
      <trkpt lat="43.98221" lon="5.55049">
        <ele>793.343</ele>
        <time>2011-04-10T08:50:04Z</time>
      </trkpt>
      <trkpt lat="43.98221" lon="5.55036">
        <ele>794.429</ele>
        <time>2011-04-10T08:50:14Z</time>
      </trkpt>
      <trkpt lat="43.98219" lon="5.55021">
        <ele>795.391</ele>
        <time>2011-04-10T08:50:24Z</time>
      </trkpt>
      <trkpt lat="43.98218" lon="5.55007">
        <ele>796.183</ele>
        <time>2011-04-10T08:50:34Z</time>
      </trkpt>
      <trkpt lat="43.9822" lon="5.54993">
        <ele>797.685</ele>
        <time>2011-04-10T08:50:44Z</time>
      </trkpt>
      <trkpt lat="43.98222" lon="5.5498">
        <ele>798.815</ele>
        <time>2011-04-10T08:50:54Z</time>
      </trkpt>
      <trkpt lat="43.98225" lon="5.54969">
        <ele>799.256</ele>
        <time>2011-04-10T08:51:04Z</time>
      </trkpt>
      <trkpt lat="43.98227" lon="5.54955">
        <ele>800.098</ele>
        <time>2011-04-10T08:51:14Z</time>
      </trkpt>
      <trkpt lat="43.98228" lon="5.54939">
        <ele>801.089</ele>
        <time>2011-04-10T08:51:24Z</time>
      </trkpt>
      <trkpt lat="43.98224" lon="5.54925">
        <ele>802.159</ele>
        <time>2011-04-10T08:51:34Z</time>
      </trkpt>
      <trkpt lat="43.9822" lon="5.54913">
        <ele>802.772</ele>
        <time>2011-04-10T08:51:44Z</time>
      </trkpt>
      <trkpt lat="43.98213" lon="5.549">
        <ele>803.271</ele>
        <time>2011-04-10T08:51:54Z</time>
      </trkpt>
      <trkpt lat="43.98205" lon="5.54885">
        <ele>803.651</ele>
        <time>2011-04-10T08:52:04Z</time>
      </trkpt>
      <trkpt lat="43.98203" lon="5.5487">
        <ele>803.194</ele>
        <time>2011-04-10T08:52:14Z</time>
      </trkpt>
      <trkpt lat="43.98205" lon="5.54858">
        <ele>801.594</ele>
        <time>2011-04-10T08:52:24Z</time>
      </trkpt>
      <trkpt lat="43.98211" lon="5.54845">
        <ele>800.645</ele>
        <time>2011-04-10T08:52:34Z</time>
      </trkpt>
      <trkpt lat="43.98214" lon="5.5483">
        <ele>799.231</ele>
        <time>2011-04-10T08:52:44Z</time>
      </trkpt>
      <trkpt lat="43.98217" lon="5.54814">
        <ele>797.429</ele>
        <time>2011-04-10T08:52:54Z</time>
      </trkpt>
      <trkpt lat="43.98222" lon="5.54799">
        <ele>795.961</ele>
        <time>2011-04-10T08:53:04Z</time>
      </trkpt>
      <trkpt lat="43.98226" lon="5.54784">
        <ele>794.051</ele>
        <time>2011-04-10T08:53:14Z</time>
      </trkpt>
      <trkpt lat="43.98231" lon="5.54771">
        <ele>792.525</ele>
        <time>2011-04-10T08:53:24Z</time>
      </trkpt>
      <trkpt lat="43.98236" lon="5.54758">
        <ele>791</ele>
        <time>2011-04-10T08:53:34Z</time>
      </trkpt>
      <trkpt lat="43.98239" lon="5.54751">
        <ele>789.964</ele>
        <time>2011-04-10T08:53:44Z</time>
      </trkpt>
      <trkpt lat="43.98238" lon="5.54752">
        <ele>790.334</ele>
        <time>2011-04-10T08:53:54Z</time>
      </trkpt>
      <trkpt lat="43.98237" lon="5.54752">
        <ele>790.211</ele>
        <time>2011-04-10T08:54:04Z</time>
      </trkpt>
      <trkpt lat="43.98237" lon="5.54752">
        <ele>790.235</ele>
        <time>2011-04-10T08:54:14Z</time>
      </trkpt>
      <trkpt lat="43.98236" lon="5.54757">
        <ele>790.964</ele>
        <time>2011-04-10T08:54:24Z</time>
      </trkpt>
      <trkpt lat="43.98237" lon="5.54756">
        <ele>790.867</ele>
        <time>2011-04-10T08:54:34Z</time>
      </trkpt>
      <trkpt lat="43.98237" lon="5.54756">
        <ele>790.976</ele>
        <time>2011-04-10T08:54:44Z</time>
      </trkpt>
      <trkpt lat="43.98237" lon="5.54757">
        <ele>791.322</ele>
        <time>2011-04-10T08:54:54Z</time>
      </trkpt>
      <trkpt lat="43.98237" lon="5.54757">
        <ele>791.182</ele>
        <time>2011-04-10T08:55:04Z</time>
      </trkpt>
      <trkpt lat="43.98237" lon="5.54757">
        <ele>791.127</ele>
        <time>2011-04-10T08:55:14Z</time>
      </trkpt>
      <trkpt lat="43.98237" lon="5.54757">
        <ele>791.424</ele>
        <time>2011-04-10T08:55:24Z</time>
      </trkpt>
      <trkpt lat="43.98237" lon="5.54756">
        <ele>791.622</ele>
        <time>2011-04-10T08:55:34Z</time>
      </trkpt>
      <trkpt lat="43.98237" lon="5.54756">
        <ele>791.484</ele>
        <time>2011-04-10T08:55:44Z</time>
      </trkpt>
      <trkpt lat="43.98237" lon="5.54756">
        <ele>791.71</ele>
        <time>2011-04-10T08:55:54Z</time>
      </trkpt>
      <trkpt lat="43.98237" lon="5.54756">
        <ele>791.375</ele>
        <time>2011-04-10T08:56:04Z</time>
      </trkpt>
      <trkpt lat="43.98237" lon="5.54756">
        <ele>791.401</ele>
        <time>2011-04-10T08:56:14Z</time>
      </trkpt>
      <trkpt lat="43.98237" lon="5.54756">
        <ele>791.192</ele>
        <time>2011-04-10T08:56:24Z</time>
      </trkpt>
      <trkpt lat="43.98238" lon="5.54756">
        <ele>791.459</ele>
        <time>2011-04-10T08:56:34Z</time>
      </trkpt>
      <trkpt lat="43.98238" lon="5.54755">
        <ele>791.209</ele>
        <time>2011-04-10T08:56:44Z</time>
      </trkpt>
      <trkpt lat="43.98239" lon="5.54754">
        <ele>791.139</ele>
        <time>2011-04-10T08:56:54Z</time>
      </trkpt>
      <trkpt lat="43.98239" lon="5.54754">
        <ele>791.156</ele>
        <time>2011-04-10T08:57:04Z</time>
      </trkpt>
      <trkpt lat="43.98239" lon="5.54754">
        <ele>791.066</ele>
        <time>2011-04-10T08:57:14Z</time>
      </trkpt>
      <trkpt lat="43.98239" lon="5.54754">
        <ele>791.112</ele>
        <time>2011-04-10T08:57:24Z</time>
      </trkpt>
      <trkpt lat="43.98239" lon="5.54754">
        <ele>791.505</ele>
        <time>2011-04-10T08:57:34Z</time>
      </trkpt>
      <trkpt lat="43.98239" lon="5.54754">
        <ele>791.141</ele>
        <time>2011-04-10T08:57:44Z</time>
      </trkpt>
      <trkpt lat="43.98239" lon="5.54754">
        <ele>791.242</ele>
        <time>2011-04-10T08:57:54Z</time>
      </trkpt>
      <trkpt lat="43.98239" lon="5.54754">
        <ele>791.424</ele>
        <time>2011-04-10T08:58:04Z</time>
      </trkpt>
      <trkpt lat="43.98239" lon="5.54754">
        <ele>791.325</ele>
        <time>2011-04-10T08:58:14Z</time>
      </trkpt>
      <trkpt lat="43.98239" lon="5.54754">
        <ele>791.054</ele>
        <time>2011-04-10T08:58:24Z</time>
      </trkpt>
      <trkpt lat="43.98239" lon="5.54754">
        <ele>791.298</ele>
        <time>2011-04-10T08:58:34Z</time>
      </trkpt>
      <trkpt lat="43.98239" lon="5.54754">
        <ele>790.96</ele>
        <time>2011-04-10T08:58:44Z</time>
      </trkpt>
      <trkpt lat="43.9824" lon="5.54751">
        <ele>790.572</ele>
        <time>2011-04-10T08:58:54Z</time>
      </trkpt>
      <trkpt lat="43.98243" lon="5.54748">
        <ele>790.44</ele>
        <time>2011-04-10T08:59:04Z</time>
      </trkpt>
      <trkpt lat="43.98243" lon="5.54748">
        <ele>790.364</ele>
        <time>2011-04-10T08:59:14Z</time>
      </trkpt>
      <trkpt lat="43.98243" lon="5.54748">
        <ele>790.704</ele>
        <time>2011-04-10T08:59:24Z</time>
      </trkpt>
      <trkpt lat="43.98243" lon="5.54748">
        <ele>790.453</ele>
        <time>2011-04-10T08:59:34Z</time>
      </trkpt>
      <trkpt lat="43.98243" lon="5.54748">
        <ele>790.786</ele>
        <time>2011-04-10T08:59:44Z</time>
      </trkpt>
      <trkpt lat="43.98243" lon="5.54748">
        <ele>790.106</ele>
        <time>2011-04-10T08:59:54Z</time>
      </trkpt>
      <trkpt lat="43.98243" lon="5.54748">
        <ele>790.555</ele>
        <time>2011-04-10T09:00:04Z</time>
      </trkpt>
      <trkpt lat="43.98243" lon="5.54749">
        <ele>790.526</ele>
        <time>2011-04-10T09:00:14Z</time>
      </trkpt>
      <trkpt lat="43.98243" lon="5.54749">
        <ele>790.474</ele>
        <time>2011-04-10T09:00:24Z</time>
      </trkpt>
      <trkpt lat="43.98243" lon="5.54749">
        <ele>790.455</ele>
        <time>2011-04-10T09:00:34Z</time>
      </trkpt>
      <trkpt lat="43.98243" lon="5.54749">
        <ele>790.455</ele>
        <time>2011-04-10T09:00:44Z</time>
      </trkpt>
      <trkpt lat="43.98243" lon="5.54749">
        <ele>790.418</ele>
        <time>2011-04-10T09:00:54Z</time>
      </trkpt>
      <trkpt lat="43.98243" lon="5.54749">
        <ele>789.905</ele>
        <time>2011-04-10T09:01:04Z</time>
      </trkpt>
      <trkpt lat="43.98246" lon="5.54744">
        <ele>789.747</ele>
        <time>2011-04-10T09:01:14Z</time>
      </trkpt>
      <trkpt lat="43.98253" lon="5.54734">
        <ele>788.645</ele>
        <time>2011-04-10T09:01:24Z</time>
      </trkpt>
      <trkpt lat="43.98258" lon="5.54725">
        <ele>787.644</ele>
        <time>2011-04-10T09:01:34Z</time>
      </trkpt>
      <trkpt lat="43.98264" lon="5.54715">
        <ele>786.372</ele>
        <time>2011-04-10T09:01:44Z</time>
      </trkpt>
      <trkpt lat="43.98271" lon="5.54704">
        <ele>784.969</ele>
        <time>2011-04-10T09:01:54Z</time>
      </trkpt>
      <trkpt lat="43.98277" lon="5.54693">
        <ele>783.315</ele>
        <time>2011-04-10T09:02:04Z</time>
      </trkpt>
      <trkpt lat="43.98282" lon="5.54682">
        <ele>782.523</ele>
        <time>2011-04-10T09:02:14Z</time>
      </trkpt>
      <trkpt lat="43.98286" lon="5.54672">
        <ele>780.118</ele>
        <time>2011-04-10T09:02:24Z</time>
      </trkpt>
      <trkpt lat="43.9829" lon="5.5466">
        <ele>778.018</ele>
        <time>2011-04-10T09:02:34Z</time>
      </trkpt>
      <trkpt lat="43.98292" lon="5.54649">
        <ele>775.948</ele>
        <time>2011-04-10T09:02:44Z</time>
      </trkpt>
      <trkpt lat="43.98297" lon="5.5464">
        <ele>774.336</ele>
        <time>2011-04-10T09:02:54Z</time>
      </trkpt>
      <trkpt lat="43.98304" lon="5.54634">
        <ele>771.971</ele>
        <time>2011-04-10T09:03:04Z</time>
      </trkpt>
      <trkpt lat="43.98309" lon="5.54627">
        <ele>770.31</ele>
        <time>2011-04-10T09:03:14Z</time>
      </trkpt>
      <trkpt lat="43.98313" lon="5.54619">
        <ele>768.062</ele>
        <time>2011-04-10T09:03:24Z</time>
      </trkpt>
      <trkpt lat="43.98321" lon="5.54612">
        <ele>766.408</ele>
        <time>2011-04-10T09:03:34Z</time>
      </trkpt>
      <trkpt lat="43.9833" lon="5.5461">
        <ele>764.877</ele>
        <time>2011-04-10T09:03:44Z</time>
      </trkpt>
      <trkpt lat="43.9834" lon="5.54604">
        <ele>763.931</ele>
        <time>2011-04-10T09:03:54Z</time>
      </trkpt>
      <trkpt lat="43.98348" lon="5.54598">
        <ele>762.823</ele>
        <time>2011-04-10T09:04:04Z</time>
      </trkpt>
      <trkpt lat="43.98358" lon="5.54591">
        <ele>761.351</ele>
        <time>2011-04-10T09:04:14Z</time>
      </trkpt>
      <trkpt lat="43.98367" lon="5.54584">
        <ele>760.091</ele>
        <time>2011-04-10T09:04:24Z</time>
      </trkpt>
      <trkpt lat="43.98377" lon="5.54578">
        <ele>758.764</ele>
        <time>2011-04-10T09:04:34Z</time>
      </trkpt>
      <trkpt lat="43.98385" lon="5.54572">
        <ele>758.471</ele>
        <time>2011-04-10T09:04:44Z</time>
      </trkpt>
      <trkpt lat="43.98393" lon="5.54565">
        <ele>757.514</ele>
        <time>2011-04-10T09:04:54Z</time>
      </trkpt>
      <trkpt lat="43.98402" lon="5.54555">
        <ele>756.827</ele>
        <time>2011-04-10T09:05:04Z</time>
      </trkpt>
      <trkpt lat="43.98411" lon="5.5455">
        <ele>756.565</ele>
        <time>2011-04-10T09:05:14Z</time>
      </trkpt>
      <trkpt lat="43.98419" lon="5.54539">
        <ele>754.909</ele>
        <time>2011-04-10T09:05:24Z</time>
      </trkpt>
      <trkpt lat="43.98429" lon="5.54531">
        <ele>754.295</ele>
        <time>2011-04-10T09:05:34Z</time>
      </trkpt>
      <trkpt lat="43.98437" lon="5.54523">
        <ele>753.336</ele>
        <time>2011-04-10T09:05:44Z</time>
      </trkpt>
      <trkpt lat="43.98445" lon="5.5451">
        <ele>752.319</ele>
        <time>2011-04-10T09:05:54Z</time>
      </trkpt>
      <trkpt lat="43.9845" lon="5.54501">
        <ele>751.459</ele>
        <time>2011-04-10T09:06:04Z</time>
      </trkpt>
      <trkpt lat="43.98455" lon="5.5449">
        <ele>749.615</ele>
        <time>2011-04-10T09:06:14Z</time>
      </trkpt>
      <trkpt lat="43.98462" lon="5.54479">
        <ele>748.589</ele>
        <time>2011-04-10T09:06:24Z</time>
      </trkpt>
      <trkpt lat="43.98469" lon="5.5447">
        <ele>747.773</ele>
        <time>2011-04-10T09:06:34Z</time>
      </trkpt>
      <trkpt lat="43.98478" lon="5.5446">
        <ele>747.17</ele>
        <time>2011-04-10T09:06:44Z</time>
      </trkpt>
      <trkpt lat="43.98486" lon="5.54458">
        <ele>746.349</ele>
        <time>2011-04-10T09:06:54Z</time>
      </trkpt>
      <trkpt lat="43.98495" lon="5.54447">
        <ele>746.584</ele>
        <time>2011-04-10T09:07:04Z</time>
      </trkpt>
      <trkpt lat="43.98502" lon="5.54434">
        <ele>745.723</ele>
        <time>2011-04-10T09:07:14Z</time>
      </trkpt>
      <trkpt lat="43.98511" lon="5.54422">
        <ele>744.618</ele>
        <time>2011-04-10T09:07:24Z</time>
      </trkpt>
      <trkpt lat="43.98517" lon="5.54413">
        <ele>743.216</ele>
        <time>2011-04-10T09:07:34Z</time>
      </trkpt>
      <trkpt lat="43.98517" lon="5.54412">
        <ele>743.832</ele>
        <time>2011-04-10T09:07:44Z</time>
      </trkpt>
      <trkpt lat="43.98517" lon="5.54412">
        <ele>743.414</ele>
        <time>2011-04-10T09:07:54Z</time>
      </trkpt>
      <trkpt lat="43.98517" lon="5.54412">
        <ele>743.879</ele>
        <time>2011-04-10T09:08:04Z</time>
      </trkpt>
      <trkpt lat="43.98516" lon="5.54411">
        <ele>743.58</ele>
        <time>2011-04-10T09:08:14Z</time>
      </trkpt>
      <trkpt lat="43.98516" lon="5.54413">
        <ele>743.725</ele>
        <time>2011-04-10T09:08:24Z</time>
      </trkpt>
      <trkpt lat="43.98516" lon="5.54413">
        <ele>743.728</ele>
        <time>2011-04-10T09:08:34Z</time>
      </trkpt>
      <trkpt lat="43.98516" lon="5.54413">
        <ele>743.931</ele>
        <time>2011-04-10T09:08:44Z</time>
      </trkpt>
      <trkpt lat="43.98516" lon="5.54413">
        <ele>743.789</ele>
        <time>2011-04-10T09:08:54Z</time>
      </trkpt>
      <trkpt lat="43.98516" lon="5.54413">
        <ele>744.205</ele>
        <time>2011-04-10T09:09:04Z</time>
      </trkpt>
      <trkpt lat="43.98516" lon="5.54413">
        <ele>744.207</ele>
        <time>2011-04-10T09:09:14Z</time>
      </trkpt>
      <trkpt lat="43.98516" lon="5.54413">
        <ele>744.08</ele>
        <time>2011-04-10T09:09:24Z</time>
      </trkpt>
      <trkpt lat="43.98524" lon="5.544">
        <ele>744.487</ele>
        <time>2011-04-10T09:09:34Z</time>
      </trkpt>
      <trkpt lat="43.9853" lon="5.54385">
        <ele>744.709</ele>
        <time>2011-04-10T09:09:44Z</time>
      </trkpt>
      <trkpt lat="43.98535" lon="5.5437">
        <ele>745.599</ele>
        <time>2011-04-10T09:09:54Z</time>
      </trkpt>
      <trkpt lat="43.98537" lon="5.54354">
        <ele>747.162</ele>
        <time>2011-04-10T09:10:04Z</time>
      </trkpt>
      <trkpt lat="43.98531" lon="5.54338">
        <ele>749.112</ele>
        <time>2011-04-10T09:10:14Z</time>
      </trkpt>
      <trkpt lat="43.98523" lon="5.54323">
        <ele>750.476</ele>
        <time>2011-04-10T09:10:24Z</time>
      </trkpt>
      <trkpt lat="43.98515" lon="5.54314">
        <ele>751.565</ele>
        <time>2011-04-10T09:10:34Z</time>
      </trkpt>
      <trkpt lat="43.98507" lon="5.54314">
        <ele>752.419</ele>
        <time>2011-04-10T09:10:44Z</time>
      </trkpt>
      <trkpt lat="43.98499" lon="5.54314">
        <ele>753.904</ele>
        <time>2011-04-10T09:10:54Z</time>
      </trkpt>
      <trkpt lat="43.98489" lon="5.54314">
        <ele>754.263</ele>
        <time>2011-04-10T09:11:04Z</time>
      </trkpt>
      <trkpt lat="43.98478" lon="5.54313">
        <ele>755.39</ele>
        <time>2011-04-10T09:11:14Z</time>
      </trkpt>
      <trkpt lat="43.98468" lon="5.54311">
        <ele>756.271</ele>
        <time>2011-04-10T09:11:24Z</time>
      </trkpt>
      <trkpt lat="43.98456" lon="5.5431">
        <ele>757.391</ele>
        <time>2011-04-10T09:11:34Z</time>
      </trkpt>
      <trkpt lat="43.98444" lon="5.54304">
        <ele>757.772</ele>
        <time>2011-04-10T09:11:44Z</time>
      </trkpt>
      <trkpt lat="43.98434" lon="5.54299">
        <ele>757.8</ele>
        <time>2011-04-10T09:11:54Z</time>
      </trkpt>
      <trkpt lat="43.98423" lon="5.54295">
        <ele>758.286</ele>
        <time>2011-04-10T09:12:04Z</time>
      </trkpt>
      <trkpt lat="43.9841" lon="5.54287">
        <ele>758.974</ele>
        <time>2011-04-10T09:12:14Z</time>
      </trkpt>
      <trkpt lat="43.984" lon="5.54278">
        <ele>760.016</ele>
        <time>2011-04-10T09:12:24Z</time>
      </trkpt>
      <trkpt lat="43.98392" lon="5.54266">
        <ele>761.336</ele>
        <time>2011-04-10T09:12:34Z</time>
      </trkpt>
      <trkpt lat="43.98385" lon="5.54256">
        <ele>762.24</ele>
        <time>2011-04-10T09:12:44Z</time>
      </trkpt>
      <trkpt lat="43.9838" lon="5.54241">
        <ele>762.925</ele>
        <time>2011-04-10T09:12:54Z</time>
      </trkpt>
      <trkpt lat="43.98375" lon="5.54227">
        <ele>763.874</ele>
        <time>2011-04-10T09:13:04Z</time>
      </trkpt>
      <trkpt lat="43.98371" lon="5.5421">
        <ele>764.401</ele>
        <time>2011-04-10T09:13:14Z</time>
      </trkpt>
      <trkpt lat="43.98366" lon="5.54192">
        <ele>764.8</ele>
        <time>2011-04-10T09:13:24Z</time>
      </trkpt>
      <trkpt lat="43.98364" lon="5.54179">
        <ele>765.285</ele>
        <time>2011-04-10T09:13:34Z</time>
      </trkpt>
      <trkpt lat="43.9836" lon="5.54163">
        <ele>766.584</ele>
        <time>2011-04-10T09:13:44Z</time>
      </trkpt>
      <trkpt lat="43.98355" lon="5.54149">
        <ele>767.646</ele>
        <time>2011-04-10T09:13:54Z</time>
      </trkpt>
      <trkpt lat="43.9835" lon="5.54134">
        <ele>768.518</ele>
        <time>2011-04-10T09:14:04Z</time>
      </trkpt>
      <trkpt lat="43.98346" lon="5.54122">
        <ele>770.121</ele>
        <time>2011-04-10T09:14:14Z</time>
      </trkpt>
      <trkpt lat="43.9834" lon="5.54107">
        <ele>770.816</ele>
        <time>2011-04-10T09:14:24Z</time>
      </trkpt>
      <trkpt lat="43.98335" lon="5.54093">
        <ele>772.159</ele>
        <time>2011-04-10T09:14:34Z</time>
      </trkpt>
      <trkpt lat="43.9833" lon="5.54081">
        <ele>772.553</ele>
        <time>2011-04-10T09:14:44Z</time>
      </trkpt>
      <trkpt lat="43.98325" lon="5.54068">
        <ele>772.522</ele>
        <time>2011-04-10T09:14:54Z</time>
      </trkpt>
      <trkpt lat="43.98321" lon="5.54053">
        <ele>773.232</ele>
        <time>2011-04-10T09:15:04Z</time>
      </trkpt>
      <trkpt lat="43.98317" lon="5.54031">
        <ele>772.843</ele>
        <time>2011-04-10T09:15:14Z</time>
      </trkpt>
      <trkpt lat="43.98318" lon="5.54016">
        <ele>773.306</ele>
        <time>2011-04-10T09:15:24Z</time>
      </trkpt>
      <trkpt lat="43.98316" lon="5.54002">
        <ele>774.414</ele>
        <time>2011-04-10T09:15:34Z</time>
      </trkpt>
      <trkpt lat="43.98308" lon="5.53991">
        <ele>775.412</ele>
        <time>2011-04-10T09:15:44Z</time>
      </trkpt>
      <trkpt lat="43.983" lon="5.53988">
        <ele>776.127</ele>
        <time>2011-04-10T09:15:54Z</time>
      </trkpt>
      <trkpt lat="43.98293" lon="5.53979">
        <ele>777.253</ele>
        <time>2011-04-10T09:16:04Z</time>
      </trkpt>
      <trkpt lat="43.98285" lon="5.53967">
        <ele>778.666</ele>
        <time>2011-04-10T09:16:14Z</time>
      </trkpt>
      <trkpt lat="43.98278" lon="5.53954">
        <ele>778.901</ele>
        <time>2011-04-10T09:16:24Z</time>
      </trkpt>
      <trkpt lat="43.98269" lon="5.53946">
        <ele>779.188</ele>
        <time>2011-04-10T09:16:34Z</time>
      </trkpt>
      <trkpt lat="43.98258" lon="5.53934">
        <ele>779.931</ele>
        <time>2011-04-10T09:16:44Z</time>
      </trkpt>
      <trkpt lat="43.9825" lon="5.53924">
        <ele>780.316</ele>
        <time>2011-04-10T09:16:54Z</time>
      </trkpt>
      <trkpt lat="43.98242" lon="5.5391">
        <ele>780.771</ele>
        <time>2011-04-10T09:17:04Z</time>
      </trkpt>
      <trkpt lat="43.98235" lon="5.53894">
        <ele>781.299</ele>
        <time>2011-04-10T09:17:14Z</time>
      </trkpt>
      <trkpt lat="43.98229" lon="5.53879">
        <ele>781.74</ele>
        <time>2011-04-10T09:17:24Z</time>
      </trkpt>
      <trkpt lat="43.98225" lon="5.53865">
        <ele>782.473</ele>
        <time>2011-04-10T09:17:34Z</time>
      </trkpt>
      <trkpt lat="43.98221" lon="5.53848">
        <ele>782.586</ele>
        <time>2011-04-10T09:17:44Z</time>
      </trkpt>
      <trkpt lat="43.98219" lon="5.53831">
        <ele>782.644</ele>
        <time>2011-04-10T09:17:54Z</time>
      </trkpt>
      <trkpt lat="43.98218" lon="5.53816">
        <ele>783.449</ele>
        <time>2011-04-10T09:18:04Z</time>
      </trkpt>
      <trkpt lat="43.98216" lon="5.538">
        <ele>783.73</ele>
        <time>2011-04-10T09:18:14Z</time>
      </trkpt>
      <trkpt lat="43.98214" lon="5.53785">
        <ele>784.16</ele>
        <time>2011-04-10T09:18:24Z</time>
      </trkpt>
      <trkpt lat="43.98219" lon="5.53771">
        <ele>784.874</ele>
        <time>2011-04-10T09:18:34Z</time>
      </trkpt>
      <trkpt lat="43.98227" lon="5.5376">
        <ele>785.168</ele>
        <time>2011-04-10T09:18:44Z</time>
      </trkpt>
      <trkpt lat="43.98235" lon="5.53746">
        <ele>785.385</ele>
        <time>2011-04-10T09:18:54Z</time>
      </trkpt>
      <trkpt lat="43.98243" lon="5.53735">
        <ele>786.563</ele>
        <time>2011-04-10T09:19:04Z</time>
      </trkpt>
      <trkpt lat="43.98249" lon="5.53724">
        <ele>786.632</ele>
        <time>2011-04-10T09:19:14Z</time>
      </trkpt>
      <trkpt lat="43.98259" lon="5.53715">
        <ele>787.943</ele>
        <time>2011-04-10T09:19:24Z</time>
      </trkpt>
      <trkpt lat="43.98267" lon="5.53702">
        <ele>788.27</ele>
        <time>2011-04-10T09:19:34Z</time>
      </trkpt>
      <trkpt lat="43.98273" lon="5.53691">
        <ele>789.071</ele>
        <time>2011-04-10T09:19:44Z</time>
      </trkpt>
      <trkpt lat="43.98284" lon="5.53683">
        <ele>790.263</ele>
        <time>2011-04-10T09:19:54Z</time>
      </trkpt>
      <trkpt lat="43.98294" lon="5.53674">
        <ele>790.902</ele>
        <time>2011-04-10T09:20:04Z</time>
      </trkpt>
      <trkpt lat="43.98302" lon="5.5366">
        <ele>791.953</ele>
        <time>2011-04-10T09:20:14Z</time>
      </trkpt>
      <trkpt lat="43.9831" lon="5.53644">
        <ele>792.465</ele>
        <time>2011-04-10T09:20:24Z</time>
      </trkpt>
      <trkpt lat="43.98317" lon="5.53629">
        <ele>793.219</ele>
        <time>2011-04-10T09:20:34Z</time>
      </trkpt>
      <trkpt lat="43.98326" lon="5.53619">
        <ele>794.011</ele>
        <time>2011-04-10T09:20:44Z</time>
      </trkpt>
      <trkpt lat="43.98338" lon="5.5361">
        <ele>794.662</ele>
        <time>2011-04-10T09:20:54Z</time>
      </trkpt>
      <trkpt lat="43.98347" lon="5.53598">
        <ele>795.912</ele>
        <time>2011-04-10T09:21:04Z</time>
      </trkpt>
      <trkpt lat="43.98355" lon="5.53592">
        <ele>796.184</ele>
        <time>2011-04-10T09:21:14Z</time>
      </trkpt>
      <trkpt lat="43.98366" lon="5.53589">
        <ele>796.888</ele>
        <time>2011-04-10T09:21:24Z</time>
      </trkpt>
      <trkpt lat="43.98379" lon="5.53587">
        <ele>797.589</ele>
        <time>2011-04-10T09:21:34Z</time>
      </trkpt>
      <trkpt lat="43.98392" lon="5.53581">
        <ele>798.048</ele>
        <time>2011-04-10T09:21:44Z</time>
      </trkpt>
      <trkpt lat="43.98406" lon="5.53585">
        <ele>798.96</ele>
        <time>2011-04-10T09:21:54Z</time>
      </trkpt>
      <trkpt lat="43.98418" lon="5.53585">
        <ele>800.598</ele>
        <time>2011-04-10T09:22:04Z</time>
      </trkpt>
      <trkpt lat="43.9843" lon="5.53588">
        <ele>800.761</ele>
        <time>2011-04-10T09:22:14Z</time>
      </trkpt>
      <trkpt lat="43.98444" lon="5.53591">
        <ele>801.614</ele>
        <time>2011-04-10T09:22:24Z</time>
      </trkpt>
      <trkpt lat="43.98455" lon="5.53587">
        <ele>802.341</ele>
        <time>2011-04-10T09:22:34Z</time>
      </trkpt>
      <trkpt lat="43.98467" lon="5.53586">
        <ele>803.255</ele>
        <time>2011-04-10T09:22:44Z</time>
      </trkpt>
      <trkpt lat="43.98479" lon="5.53582">
        <ele>803.881</ele>
        <time>2011-04-10T09:22:54Z</time>
      </trkpt>
      <trkpt lat="43.98491" lon="5.53572">
        <ele>804.037</ele>
        <time>2011-04-10T09:23:04Z</time>
      </trkpt>
      <trkpt lat="43.98503" lon="5.53562">
        <ele>804.975</ele>
        <time>2011-04-10T09:23:14Z</time>
      </trkpt>
      <trkpt lat="43.98514" lon="5.53553">
        <ele>805.594</ele>
        <time>2011-04-10T09:23:24Z</time>
      </trkpt>
      <trkpt lat="43.98524" lon="5.53545">
        <ele>805.884</ele>
        <time>2011-04-10T09:23:34Z</time>
      </trkpt>
      <trkpt lat="43.98536" lon="5.53538">
        <ele>805.89</ele>
        <time>2011-04-10T09:23:44Z</time>
      </trkpt>
      <trkpt lat="43.98547" lon="5.5353">
        <ele>806.788</ele>
        <time>2011-04-10T09:23:54Z</time>
      </trkpt>
      <trkpt lat="43.98559" lon="5.53525">
        <ele>807.393</ele>
        <time>2011-04-10T09:24:04Z</time>
      </trkpt>
      <trkpt lat="43.98569" lon="5.53518">
        <ele>808.696</ele>
        <time>2011-04-10T09:24:14Z</time>
      </trkpt>
      <trkpt lat="43.9858" lon="5.53511">
        <ele>809.94</ele>
        <time>2011-04-10T09:24:24Z</time>
      </trkpt>
      <trkpt lat="43.98587" lon="5.53498">
        <ele>811.974</ele>
        <time>2011-04-10T09:24:34Z</time>
      </trkpt>
      <trkpt lat="43.98597" lon="5.53491">
        <ele>812.717</ele>
        <time>2011-04-10T09:24:44Z</time>
      </trkpt>
      <trkpt lat="43.98609" lon="5.53476">
        <ele>814.234</ele>
        <time>2011-04-10T09:24:54Z</time>
      </trkpt>
      <trkpt lat="43.98617" lon="5.53463">
        <ele>815.675</ele>
        <time>2011-04-10T09:25:04Z</time>
      </trkpt>
      <trkpt lat="43.98622" lon="5.53451">
        <ele>817.497</ele>
        <time>2011-04-10T09:25:14Z</time>
      </trkpt>
      <trkpt lat="43.98625" lon="5.53438">
        <ele>818.871</ele>
        <time>2011-04-10T09:25:24Z</time>
      </trkpt>
      <trkpt lat="43.98636" lon="5.53425">
        <ele>819.465</ele>
        <time>2011-04-10T09:25:34Z</time>
      </trkpt>
      <trkpt lat="43.98649" lon="5.53415">
        <ele>820.303</ele>
        <time>2011-04-10T09:25:44Z</time>
      </trkpt>
      <trkpt lat="43.98661" lon="5.53406">
        <ele>821.517</ele>
        <time>2011-04-10T09:25:54Z</time>
      </trkpt>
      <trkpt lat="43.98667" lon="5.53394">
        <ele>822.353</ele>
        <time>2011-04-10T09:26:04Z</time>
      </trkpt>
      <trkpt lat="43.98677" lon="5.53383">
        <ele>823.099</ele>
        <time>2011-04-10T09:26:14Z</time>
      </trkpt>
      <trkpt lat="43.98687" lon="5.5337">
        <ele>824.015</ele>
        <time>2011-04-10T09:26:24Z</time>
      </trkpt>
      <trkpt lat="43.98698" lon="5.53356">
        <ele>824.805</ele>
        <time>2011-04-10T09:26:34Z</time>
      </trkpt>
      <trkpt lat="43.98706" lon="5.53345">
        <ele>825.708</ele>
        <time>2011-04-10T09:26:44Z</time>
      </trkpt>
      <trkpt lat="43.98719" lon="5.53337">
        <ele>826.1</ele>
        <time>2011-04-10T09:26:54Z</time>
      </trkpt>
      <trkpt lat="43.9873" lon="5.53325">
        <ele>827.196</ele>
        <time>2011-04-10T09:27:04Z</time>
      </trkpt>
      <trkpt lat="43.9874" lon="5.53316">
        <ele>827.873</ele>
        <time>2011-04-10T09:27:14Z</time>
      </trkpt>
      <trkpt lat="43.98747" lon="5.53302">
        <ele>828.901</ele>
        <time>2011-04-10T09:27:24Z</time>
      </trkpt>
      <trkpt lat="43.98758" lon="5.53291">
        <ele>829.777</ele>
        <time>2011-04-10T09:27:34Z</time>
      </trkpt>
      <trkpt lat="43.98764" lon="5.53279">
        <ele>830.69</ele>
        <time>2011-04-10T09:27:44Z</time>
      </trkpt>
      <trkpt lat="43.98775" lon="5.53267">
        <ele>831.135</ele>
        <time>2011-04-10T09:27:54Z</time>
      </trkpt>
      <trkpt lat="43.98788" lon="5.53258">
        <ele>832.858</ele>
        <time>2011-04-10T09:28:04Z</time>
      </trkpt>
      <trkpt lat="43.98798" lon="5.53245">
        <ele>834.398</ele>
        <time>2011-04-10T09:28:14Z</time>
      </trkpt>
      <trkpt lat="43.98801" lon="5.53229">
        <ele>835.113</ele>
        <time>2011-04-10T09:28:24Z</time>
      </trkpt>
      <trkpt lat="43.98802" lon="5.53211">
        <ele>835.933</ele>
        <time>2011-04-10T09:28:34Z</time>
      </trkpt>
      <trkpt lat="43.98802" lon="5.53193">
        <ele>836.384</ele>
        <time>2011-04-10T09:28:44Z</time>
      </trkpt>
      <trkpt lat="43.988" lon="5.53176">
        <ele>837.496</ele>
        <time>2011-04-10T09:28:54Z</time>
      </trkpt>
      <trkpt lat="43.988" lon="5.53158">
        <ele>837.286</ele>
        <time>2011-04-10T09:29:04Z</time>
      </trkpt>
      <trkpt lat="43.98801" lon="5.53143">
        <ele>837.658</ele>
        <time>2011-04-10T09:29:14Z</time>
      </trkpt>
      <trkpt lat="43.98802" lon="5.53126">
        <ele>837.914</ele>
        <time>2011-04-10T09:29:24Z</time>
      </trkpt>
      <trkpt lat="43.98804" lon="5.5311">
        <ele>838.016</ele>
        <time>2011-04-10T09:29:34Z</time>
      </trkpt>
      <trkpt lat="43.98806" lon="5.53093">
        <ele>838.314</ele>
        <time>2011-04-10T09:29:44Z</time>
      </trkpt>
      <trkpt lat="43.98809" lon="5.53076">
        <ele>838.977</ele>
        <time>2011-04-10T09:29:54Z</time>
      </trkpt>
      <trkpt lat="43.9881" lon="5.53058">
        <ele>839.723</ele>
        <time>2011-04-10T09:30:04Z</time>
      </trkpt>
      <trkpt lat="43.98814" lon="5.53043">
        <ele>840.609</ele>
        <time>2011-04-10T09:30:14Z</time>
      </trkpt>
      <trkpt lat="43.98816" lon="5.53028">
        <ele>840.768</ele>
        <time>2011-04-10T09:30:24Z</time>
      </trkpt>
      <trkpt lat="43.98816" lon="5.53012">
        <ele>841.086</ele>
        <time>2011-04-10T09:30:34Z</time>
      </trkpt>
      <trkpt lat="43.98816" lon="5.5301">
        <ele>841.754</ele>
        <time>2011-04-10T09:30:44Z</time>
      </trkpt>
      <trkpt lat="43.98817" lon="5.5301">
        <ele>842.053</ele>
        <time>2011-04-10T09:30:54Z</time>
      </trkpt>
      <trkpt lat="43.98817" lon="5.5301">
        <ele>841.816</ele>
        <time>2011-04-10T09:31:04Z</time>
      </trkpt>
      <trkpt lat="43.98817" lon="5.5301">
        <ele>841.616</ele>
        <time>2011-04-10T09:31:14Z</time>
      </trkpt>
      <trkpt lat="43.98817" lon="5.53008">
        <ele>842.144</ele>
        <time>2011-04-10T09:31:24Z</time>
      </trkpt>
      <trkpt lat="43.98819" lon="5.53009">
        <ele>842.066</ele>
        <time>2011-04-10T09:31:34Z</time>
      </trkpt>
      <trkpt lat="43.98818" lon="5.53009">
        <ele>842.079</ele>
        <time>2011-04-10T09:31:44Z</time>
      </trkpt>
      <trkpt lat="43.98819" lon="5.53009">
        <ele>841.649</ele>
        <time>2011-04-10T09:31:54Z</time>
      </trkpt>
      <trkpt lat="43.98819" lon="5.53009">
        <ele>841.66</ele>
        <time>2011-04-10T09:32:04Z</time>
      </trkpt>
      <trkpt lat="43.98819" lon="5.53009">
        <ele>841.527</ele>
        <time>2011-04-10T09:32:14Z</time>
      </trkpt>
      <trkpt lat="43.98819" lon="5.53009">
        <ele>841.6</ele>
        <time>2011-04-10T09:32:24Z</time>
      </trkpt>
      <trkpt lat="43.98819" lon="5.53009">
        <ele>841.627</ele>
        <time>2011-04-10T09:32:34Z</time>
      </trkpt>
      <trkpt lat="43.98819" lon="5.53009">
        <ele>841.955</ele>
        <time>2011-04-10T09:32:44Z</time>
      </trkpt>
      <trkpt lat="43.98819" lon="5.53009">
        <ele>841.73</ele>
        <time>2011-04-10T09:32:54Z</time>
      </trkpt>
      <trkpt lat="43.98819" lon="5.53008">
        <ele>841.425</ele>
        <time>2011-04-10T09:33:04Z</time>
      </trkpt>
      <trkpt lat="43.98819" lon="5.53008">
        <ele>841.93</ele>
        <time>2011-04-10T09:33:14Z</time>
      </trkpt>
      <trkpt lat="43.98819" lon="5.53008">
        <ele>841.861</ele>
        <time>2011-04-10T09:33:24Z</time>
      </trkpt>
      <trkpt lat="43.98819" lon="5.53008">
        <ele>841.98</ele>
        <time>2011-04-10T09:33:34Z</time>
      </trkpt>
      <trkpt lat="43.98819" lon="5.53008">
        <ele>841.82</ele>
        <time>2011-04-10T09:33:44Z</time>
      </trkpt>
      <trkpt lat="43.98819" lon="5.53008">
        <ele>841.869</ele>
        <time>2011-04-10T09:33:54Z</time>
      </trkpt>
      <trkpt lat="43.98819" lon="5.53008">
        <ele>841.829</ele>
        <time>2011-04-10T09:34:04Z</time>
      </trkpt>
      <trkpt lat="43.98819" lon="5.53008">
        <ele>842.025</ele>
        <time>2011-04-10T09:34:14Z</time>
      </trkpt>
      <trkpt lat="43.98819" lon="5.53008">
        <ele>841.947</ele>
        <time>2011-04-10T09:34:24Z</time>
      </trkpt>
      <trkpt lat="43.98819" lon="5.53008">
        <ele>842.056</ele>
        <time>2011-04-10T09:34:34Z</time>
      </trkpt>
      <trkpt lat="43.98819" lon="5.53008">
        <ele>841.915</ele>
        <time>2011-04-10T09:34:44Z</time>
      </trkpt>
      <trkpt lat="43.98819" lon="5.53008">
        <ele>842.341</ele>
        <time>2011-04-10T09:34:54Z</time>
      </trkpt>
      <trkpt lat="43.98819" lon="5.53008">
        <ele>842.216</ele>
        <time>2011-04-10T09:35:04Z</time>
      </trkpt>
      <trkpt lat="43.98819" lon="5.53008">
        <ele>842.221</ele>
        <time>2011-04-10T09:35:14Z</time>
      </trkpt>
      <trkpt lat="43.98819" lon="5.53008">
        <ele>842.486</ele>
        <time>2011-04-10T09:35:24Z</time>
      </trkpt>
      <trkpt lat="43.98819" lon="5.53008">
        <ele>842.25</ele>
        <time>2011-04-10T09:35:34Z</time>
      </trkpt>
      <trkpt lat="43.98819" lon="5.53009">
        <ele>842.303</ele>
        <time>2011-04-10T09:35:44Z</time>
      </trkpt>
      <trkpt lat="43.98819" lon="5.53009">
        <ele>842.418</ele>
        <time>2011-04-10T09:35:54Z</time>
      </trkpt>
      <trkpt lat="43.98819" lon="5.53009">
        <ele>842.332</ele>
        <time>2011-04-10T09:36:04Z</time>
      </trkpt>
      <trkpt lat="43.98819" lon="5.53009">
        <ele>842.624</ele>
        <time>2011-04-10T09:36:14Z</time>
      </trkpt>
      <trkpt lat="43.98819" lon="5.53008">
        <ele>842.498</ele>
        <time>2011-04-10T09:36:24Z</time>
      </trkpt>
      <trkpt lat="43.98819" lon="5.53009">
        <ele>842.411</ele>
        <time>2011-04-10T09:36:34Z</time>
      </trkpt>
      <trkpt lat="43.98819" lon="5.53009">
        <ele>842.522</ele>
        <time>2011-04-10T09:36:44Z</time>
      </trkpt>
      <trkpt lat="43.98819" lon="5.53009">
        <ele>842.234</ele>
        <time>2011-04-10T09:36:54Z</time>
      </trkpt>
      <trkpt lat="43.98819" lon="5.53009">
        <ele>842.654</ele>
        <time>2011-04-10T09:37:04Z</time>
      </trkpt>
      <trkpt lat="43.98819" lon="5.53009">
        <ele>842.64</ele>
        <time>2011-04-10T09:37:14Z</time>
      </trkpt>
      <trkpt lat="43.98819" lon="5.53009">
        <ele>842.594</ele>
        <time>2011-04-10T09:37:24Z</time>
      </trkpt>
      <trkpt lat="43.98819" lon="5.53009">
        <ele>842.672</ele>
        <time>2011-04-10T09:37:34Z</time>
      </trkpt>
      <trkpt lat="43.98819" lon="5.53009">
        <ele>842.7</ele>
        <time>2011-04-10T09:37:44Z</time>
      </trkpt>
      <trkpt lat="43.98819" lon="5.53009">
        <ele>842.712</ele>
        <time>2011-04-10T09:37:54Z</time>
      </trkpt>
      <trkpt lat="43.98819" lon="5.53009">
        <ele>842.736</ele>
        <time>2011-04-10T09:38:04Z</time>
      </trkpt>
      <trkpt lat="43.98819" lon="5.53009">
        <ele>842.568</ele>
        <time>2011-04-10T09:38:14Z</time>
      </trkpt>
      <trkpt lat="43.98819" lon="5.53009">
        <ele>842.332</ele>
        <time>2011-04-10T09:38:24Z</time>
      </trkpt>
      <trkpt lat="43.98819" lon="5.53009">
        <ele>843.039</ele>
        <time>2011-04-10T09:38:34Z</time>
      </trkpt>
      <trkpt lat="43.98819" lon="5.53009">
        <ele>842.992</ele>
        <time>2011-04-10T09:38:44Z</time>
      </trkpt>
      <trkpt lat="43.98819" lon="5.53009">
        <ele>842.848</ele>
        <time>2011-04-10T09:38:54Z</time>
      </trkpt>
      <trkpt lat="43.98819" lon="5.5301">
        <ele>842.822</ele>
        <time>2011-04-10T09:39:04Z</time>
      </trkpt>
      <trkpt lat="43.9882" lon="5.53009">
        <ele>842.87</ele>
        <time>2011-04-10T09:39:14Z</time>
      </trkpt>
      <trkpt lat="43.9882" lon="5.53009">
        <ele>842.903</ele>
        <time>2011-04-10T09:39:24Z</time>
      </trkpt>
      <trkpt lat="43.98821" lon="5.53009">
        <ele>842.858</ele>
        <time>2011-04-10T09:39:34Z</time>
      </trkpt>
      <trkpt lat="43.98821" lon="5.53009">
        <ele>842.899</ele>
        <time>2011-04-10T09:39:44Z</time>
      </trkpt>
      <trkpt lat="43.98821" lon="5.53008">
        <ele>843.087</ele>
        <time>2011-04-10T09:39:54Z</time>
      </trkpt>
      <trkpt lat="43.98821" lon="5.53008">
        <ele>842.908</ele>
        <time>2011-04-10T09:40:04Z</time>
      </trkpt>
      <trkpt lat="43.98821" lon="5.53009">
        <ele>842.936</ele>
        <time>2011-04-10T09:40:14Z</time>
      </trkpt>
      <trkpt lat="43.98821" lon="5.53003">
        <ele>843.758</ele>
        <time>2011-04-10T09:40:24Z</time>
      </trkpt>
      <trkpt lat="43.98821" lon="5.52991">
        <ele>843.904</ele>
        <time>2011-04-10T09:40:34Z</time>
      </trkpt>
      <trkpt lat="43.98823" lon="5.5298">
        <ele>844.461</ele>
        <time>2011-04-10T09:40:44Z</time>
      </trkpt>
      <trkpt lat="43.98824" lon="5.52968">
        <ele>845.058</ele>
        <time>2011-04-10T09:40:54Z</time>
      </trkpt>
      <trkpt lat="43.98824" lon="5.52954">
        <ele>845.692</ele>
        <time>2011-04-10T09:41:04Z</time>
      </trkpt>
      <trkpt lat="43.98822" lon="5.52951">
        <ele>845.748</ele>
        <time>2011-04-10T09:41:14Z</time>
      </trkpt>
      <trkpt lat="43.98823" lon="5.52951">
        <ele>846.012</ele>
        <time>2011-04-10T09:41:24Z</time>
      </trkpt>
      <trkpt lat="43.98822" lon="5.52951">
        <ele>846.192</ele>
        <time>2011-04-10T09:41:34Z</time>
      </trkpt>
      <trkpt lat="43.98823" lon="5.52951">
        <ele>846.314</ele>
        <time>2011-04-10T09:41:44Z</time>
      </trkpt>
      <trkpt lat="43.98827" lon="5.52944">
        <ele>845.987</ele>
        <time>2011-04-10T09:41:54Z</time>
      </trkpt>
      <trkpt lat="43.98837" lon="5.52934">
        <ele>846.929</ele>
        <time>2011-04-10T09:42:04Z</time>
      </trkpt>
      <trkpt lat="43.98842" lon="5.52924">
        <ele>848.346</ele>
        <time>2011-04-10T09:42:14Z</time>
      </trkpt>
      <trkpt lat="43.98849" lon="5.52912">
        <ele>849.284</ele>
        <time>2011-04-10T09:42:24Z</time>
      </trkpt>
      <trkpt lat="43.98844" lon="5.52896">
        <ele>849.435</ele>
        <time>2011-04-10T09:42:34Z</time>
      </trkpt>
      <trkpt lat="43.9884" lon="5.52884">
        <ele>849.978</ele>
        <time>2011-04-10T09:42:44Z</time>
      </trkpt>
      <trkpt lat="43.98832" lon="5.52874">
        <ele>850.029</ele>
        <time>2011-04-10T09:42:54Z</time>
      </trkpt>
      <trkpt lat="43.98827" lon="5.52862">
        <ele>850.109</ele>
        <time>2011-04-10T09:43:04Z</time>
      </trkpt>
      <trkpt lat="43.98824" lon="5.52848">
        <ele>850.991</ele>
        <time>2011-04-10T09:43:14Z</time>
      </trkpt>
      <trkpt lat="43.98822" lon="5.52833">
        <ele>851.791</ele>
        <time>2011-04-10T09:43:24Z</time>
      </trkpt>
      <trkpt lat="43.98821" lon="5.52817">
        <ele>852.567</ele>
        <time>2011-04-10T09:43:34Z</time>
      </trkpt>
      <trkpt lat="43.98821" lon="5.52802">
        <ele>853.953</ele>
        <time>2011-04-10T09:43:44Z</time>
      </trkpt>
      <trkpt lat="43.98822" lon="5.52788">
        <ele>854.926</ele>
        <time>2011-04-10T09:43:54Z</time>
      </trkpt>
      <trkpt lat="43.98823" lon="5.52775">
        <ele>856.212</ele>
        <time>2011-04-10T09:44:04Z</time>
      </trkpt>
      <trkpt lat="43.98823" lon="5.52762">
        <ele>857.938</ele>
        <time>2011-04-10T09:44:14Z</time>
      </trkpt>
      <trkpt lat="43.98821" lon="5.52745">
        <ele>859.63</ele>
        <time>2011-04-10T09:44:24Z</time>
      </trkpt>
      <trkpt lat="43.9882" lon="5.52729">
        <ele>862.006</ele>
        <time>2011-04-10T09:44:34Z</time>
      </trkpt>
      <trkpt lat="43.98818" lon="5.52715">
        <ele>863.75</ele>
        <time>2011-04-10T09:44:44Z</time>
      </trkpt>
      <trkpt lat="43.98819" lon="5.527">
        <ele>865.573</ele>
        <time>2011-04-10T09:44:54Z</time>
      </trkpt>
      <trkpt lat="43.98816" lon="5.52688">
        <ele>867.179</ele>
        <time>2011-04-10T09:45:04Z</time>
      </trkpt>
      <trkpt lat="43.98813" lon="5.52673">
        <ele>868.866</ele>
        <time>2011-04-10T09:45:14Z</time>
      </trkpt>
      <trkpt lat="43.9881" lon="5.52661">
        <ele>870.992</ele>
        <time>2011-04-10T09:45:24Z</time>
      </trkpt>
      <trkpt lat="43.98809" lon="5.52646">
        <ele>872.699</ele>
        <time>2011-04-10T09:45:34Z</time>
      </trkpt>
      <trkpt lat="43.98808" lon="5.52631">
        <ele>874.649</ele>
        <time>2011-04-10T09:45:44Z</time>
      </trkpt>
      <trkpt lat="43.98806" lon="5.52618">
        <ele>876.866</ele>
        <time>2011-04-10T09:45:54Z</time>
      </trkpt>
      <trkpt lat="43.98801" lon="5.52604">
        <ele>878.332</ele>
        <time>2011-04-10T09:46:04Z</time>
      </trkpt>
      <trkpt lat="43.98794" lon="5.52595">
        <ele>879.614</ele>
        <time>2011-04-10T09:46:14Z</time>
      </trkpt>
      <trkpt lat="43.98785" lon="5.52584">
        <ele>881.001</ele>
        <time>2011-04-10T09:46:24Z</time>
      </trkpt>
      <trkpt lat="43.98776" lon="5.52578">
        <ele>882.204</ele>
        <time>2011-04-10T09:46:34Z</time>
      </trkpt>
      <trkpt lat="43.98765" lon="5.52572">
        <ele>883.09</ele>
        <time>2011-04-10T09:46:44Z</time>
      </trkpt>
      <trkpt lat="43.98757" lon="5.52564">
        <ele>883.987</ele>
        <time>2011-04-10T09:46:54Z</time>
      </trkpt>
      <trkpt lat="43.98753" lon="5.52563">
        <ele>884.156</ele>
        <time>2011-04-10T09:47:04Z</time>
      </trkpt>
      <trkpt lat="43.98744" lon="5.52556">
        <ele>885.269</ele>
        <time>2011-04-10T09:47:14Z</time>
      </trkpt>
      <trkpt lat="43.98733" lon="5.52548">
        <ele>886.604</ele>
        <time>2011-04-10T09:47:24Z</time>
      </trkpt>
      <trkpt lat="43.98723" lon="5.5254">
        <ele>887.321</ele>
        <time>2011-04-10T09:47:34Z</time>
      </trkpt>
      <trkpt lat="43.98713" lon="5.52533">
        <ele>888.999</ele>
        <time>2011-04-10T09:47:44Z</time>
      </trkpt>
      <trkpt lat="43.98704" lon="5.52526">
        <ele>890.134</ele>
        <time>2011-04-10T09:47:54Z</time>
      </trkpt>
      <trkpt lat="43.98696" lon="5.52518">
        <ele>891.806</ele>
        <time>2011-04-10T09:48:04Z</time>
      </trkpt>
      <trkpt lat="43.98687" lon="5.5251">
        <ele>892.742</ele>
        <time>2011-04-10T09:48:14Z</time>
      </trkpt>
      <trkpt lat="43.98677" lon="5.52503">
        <ele>894.361</ele>
        <time>2011-04-10T09:48:24Z</time>
      </trkpt>
      <trkpt lat="43.98669" lon="5.52497">
        <ele>895.476</ele>
        <time>2011-04-10T09:48:34Z</time>
      </trkpt>
      <trkpt lat="43.9866" lon="5.52488">
        <ele>896.806</ele>
        <time>2011-04-10T09:48:44Z</time>
      </trkpt>
      <trkpt lat="43.98653" lon="5.52481">
        <ele>898.416</ele>
        <time>2011-04-10T09:48:54Z</time>
      </trkpt>
      <trkpt lat="43.98644" lon="5.52476">
        <ele>899.067</ele>
        <time>2011-04-10T09:49:04Z</time>
      </trkpt>
      <trkpt lat="43.98636" lon="5.52467">
        <ele>900.171</ele>
        <time>2011-04-10T09:49:14Z</time>
      </trkpt>
      <trkpt lat="43.98631" lon="5.52462">
        <ele>901.198</ele>
        <time>2011-04-10T09:49:24Z</time>
      </trkpt>
      <trkpt lat="43.98628" lon="5.52459">
        <ele>901.444</ele>
        <time>2011-04-10T09:49:34Z</time>
      </trkpt>
      <trkpt lat="43.98625" lon="5.52459">
        <ele>902.181</ele>
        <time>2011-04-10T09:49:44Z</time>
      </trkpt>
      <trkpt lat="43.9862" lon="5.52459">
        <ele>901.921</ele>
        <time>2011-04-10T09:49:54Z</time>
      </trkpt>
      <trkpt lat="43.98618" lon="5.52459">
        <ele>902.25</ele>
        <time>2011-04-10T09:50:04Z</time>
      </trkpt>
      <trkpt lat="43.98617" lon="5.52459">
        <ele>902.337</ele>
        <time>2011-04-10T09:50:14Z</time>
      </trkpt>
      <trkpt lat="43.98618" lon="5.52457">
        <ele>902.474</ele>
        <time>2011-04-10T09:50:24Z</time>
      </trkpt>
      <trkpt lat="43.98618" lon="5.52457">
        <ele>902.442</ele>
        <time>2011-04-10T09:50:34Z</time>
      </trkpt>
      <trkpt lat="43.98617" lon="5.52459">
        <ele>902.044</ele>
        <time>2011-04-10T09:50:44Z</time>
      </trkpt>
      <trkpt lat="43.98617" lon="5.52459">
        <ele>902.165</ele>
        <time>2011-04-10T09:50:54Z</time>
      </trkpt>
      <trkpt lat="43.98617" lon="5.52459">
        <ele>902.172</ele>
        <time>2011-04-10T09:51:04Z</time>
      </trkpt>
      <trkpt lat="43.98617" lon="5.52459">
        <ele>902.17</ele>
        <time>2011-04-10T09:51:14Z</time>
      </trkpt>
      <trkpt lat="43.98617" lon="5.52459">
        <ele>902.377</ele>
        <time>2011-04-10T09:51:24Z</time>
      </trkpt>
      <trkpt lat="43.98617" lon="5.52459">
        <ele>902.245</ele>
        <time>2011-04-10T09:51:34Z</time>
      </trkpt>
      <trkpt lat="43.98617" lon="5.52459">
        <ele>902.583</ele>
        <time>2011-04-10T09:51:44Z</time>
      </trkpt>
      <trkpt lat="43.98617" lon="5.52459">
        <ele>902.433</ele>
        <time>2011-04-10T09:51:54Z</time>
      </trkpt>
      <trkpt lat="43.98617" lon="5.5246">
        <ele>902.534</ele>
        <time>2011-04-10T09:52:04Z</time>
      </trkpt>
      <trkpt lat="43.98615" lon="5.52463">
        <ele>902.855</ele>
        <time>2011-04-10T09:52:14Z</time>
      </trkpt>
      <trkpt lat="43.98615" lon="5.52472">
        <ele>901.98</ele>
        <time>2011-04-10T09:52:24Z</time>
      </trkpt>
      <trkpt lat="43.98613" lon="5.52473">
        <ele>902.307</ele>
        <time>2011-04-10T09:52:34Z</time>
      </trkpt>
      <trkpt lat="43.98612" lon="5.52473">
        <ele>902.048</ele>
        <time>2011-04-10T09:52:44Z</time>
      </trkpt>
      <trkpt lat="43.98612" lon="5.52473">
        <ele>902.249</ele>
        <time>2011-04-10T09:52:54Z</time>
      </trkpt>
      <trkpt lat="43.98612" lon="5.52469">
        <ele>901.793</ele>
        <time>2011-04-10T09:53:04Z</time>
      </trkpt>
      <trkpt lat="43.98614" lon="5.52458">
        <ele>902.642</ele>
        <time>2011-04-10T09:53:14Z</time>
      </trkpt>
      <trkpt lat="43.98609" lon="5.52452">
        <ele>903.198</ele>
        <time>2011-04-10T09:53:24Z</time>
      </trkpt>
      <trkpt lat="43.98597" lon="5.52443">
        <ele>904.154</ele>
        <time>2011-04-10T09:53:34Z</time>
      </trkpt>
      <trkpt lat="43.9859" lon="5.52438">
        <ele>905.809</ele>
        <time>2011-04-10T09:53:44Z</time>
      </trkpt>
      <trkpt lat="43.98583" lon="5.52431">
        <ele>906.457</ele>
        <time>2011-04-10T09:53:54Z</time>
      </trkpt>
      <trkpt lat="43.98574" lon="5.52425">
        <ele>907.401</ele>
        <time>2011-04-10T09:54:04Z</time>
      </trkpt>
      <trkpt lat="43.98563" lon="5.52419">
        <ele>908.264</ele>
        <time>2011-04-10T09:54:14Z</time>
      </trkpt>
      <trkpt lat="43.98552" lon="5.52414">
        <ele>909.133</ele>
        <time>2011-04-10T09:54:24Z</time>
      </trkpt>
      <trkpt lat="43.98545" lon="5.52404">
        <ele>909.861</ele>
        <time>2011-04-10T09:54:34Z</time>
      </trkpt>
      <trkpt lat="43.98535" lon="5.524">
        <ele>910.803</ele>
        <time>2011-04-10T09:54:44Z</time>
      </trkpt>
      <trkpt lat="43.98526" lon="5.52392">
        <ele>910.989</ele>
        <time>2011-04-10T09:54:54Z</time>
      </trkpt>
      <trkpt lat="43.98517" lon="5.52385">
        <ele>911.664</ele>
        <time>2011-04-10T09:55:04Z</time>
      </trkpt>
      <trkpt lat="43.98508" lon="5.52376">
        <ele>912.601</ele>
        <time>2011-04-10T09:55:14Z</time>
      </trkpt>
      <trkpt lat="43.98498" lon="5.52364">
        <ele>912.69</ele>
        <time>2011-04-10T09:55:24Z</time>
      </trkpt>
      <trkpt lat="43.98488" lon="5.52353">
        <ele>913.118</ele>
        <time>2011-04-10T09:55:34Z</time>
      </trkpt>
      <trkpt lat="43.9848" lon="5.52342">
        <ele>913.767</ele>
        <time>2011-04-10T09:55:44Z</time>
      </trkpt>
      <trkpt lat="43.98471" lon="5.52329">
        <ele>914.22</ele>
        <time>2011-04-10T09:55:54Z</time>
      </trkpt>
      <trkpt lat="43.98463" lon="5.52317">
        <ele>914.699</ele>
        <time>2011-04-10T09:56:04Z</time>
      </trkpt>
      <trkpt lat="43.98455" lon="5.52305">
        <ele>914.766</ele>
        <time>2011-04-10T09:56:14Z</time>
      </trkpt>
      <trkpt lat="43.98447" lon="5.5229">
        <ele>915.387</ele>
        <time>2011-04-10T09:56:24Z</time>
      </trkpt>
      <trkpt lat="43.98439" lon="5.5228">
        <ele>917.03</ele>
        <time>2011-04-10T09:56:34Z</time>
      </trkpt>
      <trkpt lat="43.98431" lon="5.52272">
        <ele>918.084</ele>
        <time>2011-04-10T09:56:44Z</time>
      </trkpt>
      <trkpt lat="43.98422" lon="5.52264">
        <ele>918.787</ele>
        <time>2011-04-10T09:56:54Z</time>
      </trkpt>
      <trkpt lat="43.98415" lon="5.52252">
        <ele>919.568</ele>
        <time>2011-04-10T09:57:04Z</time>
      </trkpt>
      <trkpt lat="43.9841" lon="5.52237">
        <ele>921.441</ele>
        <time>2011-04-10T09:57:14Z</time>
      </trkpt>
      <trkpt lat="43.98401" lon="5.52225">
        <ele>922.369</ele>
        <time>2011-04-10T09:57:24Z</time>
      </trkpt>
      <trkpt lat="43.98394" lon="5.52216">
        <ele>923.956</ele>
        <time>2011-04-10T09:57:34Z</time>
      </trkpt>
      <trkpt lat="43.98392" lon="5.52207">
        <ele>924.774</ele>
        <time>2011-04-10T09:57:44Z</time>
      </trkpt>
      <trkpt lat="43.9839" lon="5.52194">
        <ele>925.908</ele>
        <time>2011-04-10T09:57:54Z</time>
      </trkpt>
      <trkpt lat="43.98393" lon="5.52187">
        <ele>926.351</ele>
        <time>2011-04-10T09:58:04Z</time>
      </trkpt>
      <trkpt lat="43.98398" lon="5.52176">
        <ele>927.206</ele>
        <time>2011-04-10T09:58:14Z</time>
      </trkpt>
      <trkpt lat="43.98399" lon="5.52162">
        <ele>928.939</ele>
        <time>2011-04-10T09:58:24Z</time>
      </trkpt>
      <trkpt lat="43.98403" lon="5.52149">
        <ele>930.281</ele>
        <time>2011-04-10T09:58:34Z</time>
      </trkpt>
      <trkpt lat="43.98408" lon="5.52135">
        <ele>931.855</ele>
        <time>2011-04-10T09:58:44Z</time>
      </trkpt>
      <trkpt lat="43.98413" lon="5.52124">
        <ele>932.822</ele>
        <time>2011-04-10T09:58:54Z</time>
      </trkpt>
      <trkpt lat="43.98417" lon="5.52111">
        <ele>934.063</ele>
        <time>2011-04-10T09:59:04Z</time>
      </trkpt>
      <trkpt lat="43.9842" lon="5.52097">
        <ele>936.438</ele>
        <time>2011-04-10T09:59:14Z</time>
      </trkpt>
      <trkpt lat="43.98424" lon="5.52083">
        <ele>937.137</ele>
        <time>2011-04-10T09:59:24Z</time>
      </trkpt>
      <trkpt lat="43.98428" lon="5.52069">
        <ele>938.17</ele>
        <time>2011-04-10T09:59:34Z</time>
      </trkpt>
      <trkpt lat="43.98434" lon="5.52055">
        <ele>939.164</ele>
        <time>2011-04-10T09:59:44Z</time>
      </trkpt>
      <trkpt lat="43.98439" lon="5.52042">
        <ele>940.917</ele>
        <time>2011-04-10T09:59:54Z</time>
      </trkpt>
      <trkpt lat="43.98446" lon="5.52029">
        <ele>941.383</ele>
        <time>2011-04-10T10:00:04Z</time>
      </trkpt>
      <trkpt lat="43.9845" lon="5.52026">
        <ele>941.587</ele>
        <time>2011-04-10T10:00:14Z</time>
      </trkpt>
      <trkpt lat="43.98454" lon="5.52021">
        <ele>941.564</ele>
        <time>2011-04-10T10:00:24Z</time>
      </trkpt>
      <trkpt lat="43.98462" lon="5.52011">
        <ele>942.496</ele>
        <time>2011-04-10T10:00:34Z</time>
      </trkpt>
      <trkpt lat="43.98472" lon="5.52">
        <ele>942.829</ele>
        <time>2011-04-10T10:00:44Z</time>
      </trkpt>
      <trkpt lat="43.98474" lon="5.51997">
        <ele>943.142</ele>
        <time>2011-04-10T10:00:54Z</time>
      </trkpt>
      <trkpt lat="43.98474" lon="5.51997">
        <ele>943.653</ele>
        <time>2011-04-10T10:01:04Z</time>
      </trkpt>
      <trkpt lat="43.9848" lon="5.51992">
        <ele>943.076</ele>
        <time>2011-04-10T10:01:14Z</time>
      </trkpt>
      <trkpt lat="43.98486" lon="5.51983">
        <ele>943.233</ele>
        <time>2011-04-10T10:01:24Z</time>
      </trkpt>
      <trkpt lat="43.98489" lon="5.51979">
        <ele>943.709</ele>
        <time>2011-04-10T10:01:34Z</time>
      </trkpt>
      <trkpt lat="43.9849" lon="5.51978">
        <ele>943.759</ele>
        <time>2011-04-10T10:01:44Z</time>
      </trkpt>
      <trkpt lat="43.98493" lon="5.51971">
        <ele>943.781</ele>
        <time>2011-04-10T10:01:54Z</time>
      </trkpt>
      <trkpt lat="43.98494" lon="5.51961">
        <ele>944.651</ele>
        <time>2011-04-10T10:02:04Z</time>
      </trkpt>
      <trkpt lat="43.98496" lon="5.51951">
        <ele>945.812</ele>
        <time>2011-04-10T10:02:14Z</time>
      </trkpt>
      <trkpt lat="43.98498" lon="5.51941">
        <ele>946.5</ele>
        <time>2011-04-10T10:02:24Z</time>
      </trkpt>
      <trkpt lat="43.98504" lon="5.51928">
        <ele>947.463</ele>
        <time>2011-04-10T10:02:34Z</time>
      </trkpt>
      <trkpt lat="43.98511" lon="5.51916">
        <ele>947.711</ele>
        <time>2011-04-10T10:02:44Z</time>
      </trkpt>
      <trkpt lat="43.98519" lon="5.51906">
        <ele>947.828</ele>
        <time>2011-04-10T10:02:54Z</time>
      </trkpt>
      <trkpt lat="43.98526" lon="5.51892">
        <ele>948.66</ele>
        <time>2011-04-10T10:03:04Z</time>
      </trkpt>
      <trkpt lat="43.98531" lon="5.51878">
        <ele>949.415</ele>
        <time>2011-04-10T10:03:14Z</time>
      </trkpt>
      <trkpt lat="43.98537" lon="5.51866">
        <ele>950.118</ele>
        <time>2011-04-10T10:03:24Z</time>
      </trkpt>
      <trkpt lat="43.98543" lon="5.51855">
        <ele>950.915</ele>
        <time>2011-04-10T10:03:34Z</time>
      </trkpt>
      <trkpt lat="43.98551" lon="5.51844">
        <ele>951.398</ele>
        <time>2011-04-10T10:03:44Z</time>
      </trkpt>
      <trkpt lat="43.98556" lon="5.51832">
        <ele>952.093</ele>
        <time>2011-04-10T10:03:54Z</time>
      </trkpt>
      <trkpt lat="43.98559" lon="5.51819">
        <ele>953.171</ele>
        <time>2011-04-10T10:04:04Z</time>
      </trkpt>
      <trkpt lat="43.98561" lon="5.51809">
        <ele>953.656</ele>
        <time>2011-04-10T10:04:14Z</time>
      </trkpt>
      <trkpt lat="43.98565" lon="5.518">
        <ele>954.102</ele>
        <time>2011-04-10T10:04:24Z</time>
      </trkpt>
      <trkpt lat="43.98566" lon="5.51787">
        <ele>954.999</ele>
        <time>2011-04-10T10:04:34Z</time>
      </trkpt>
      <trkpt lat="43.98569" lon="5.51778">
        <ele>955.563</ele>
        <time>2011-04-10T10:04:44Z</time>
      </trkpt>
      <trkpt lat="43.98574" lon="5.51765">
        <ele>957.063</ele>
        <time>2011-04-10T10:04:54Z</time>
      </trkpt>
      <trkpt lat="43.98577" lon="5.51756">
        <ele>957.305</ele>
        <time>2011-04-10T10:05:04Z</time>
      </trkpt>
      <trkpt lat="43.98578" lon="5.5175">
        <ele>957.603</ele>
        <time>2011-04-10T10:05:14Z</time>
      </trkpt>
      <trkpt lat="43.9858" lon="5.51745">
        <ele>958.71</ele>
        <time>2011-04-10T10:05:24Z</time>
      </trkpt>
      <trkpt lat="43.98581" lon="5.51745">
        <ele>958.449</ele>
        <time>2011-04-10T10:05:34Z</time>
      </trkpt>
      <trkpt lat="43.98581" lon="5.51745">
        <ele>958.509</ele>
        <time>2011-04-10T10:05:44Z</time>
      </trkpt>
      <trkpt lat="43.98581" lon="5.51747">
        <ele>958.291</ele>
        <time>2011-04-10T10:05:54Z</time>
      </trkpt>
      <trkpt lat="43.98581" lon="5.51747">
        <ele>958.167</ele>
        <time>2011-04-10T10:06:04Z</time>
      </trkpt>
      <trkpt lat="43.98581" lon="5.51747">
        <ele>958.494</ele>
        <time>2011-04-10T10:06:14Z</time>
      </trkpt>
      <trkpt lat="43.98581" lon="5.51747">
        <ele>958.357</ele>
        <time>2011-04-10T10:06:24Z</time>
      </trkpt>
      <trkpt lat="43.9858" lon="5.51746">
        <ele>959.079</ele>
        <time>2011-04-10T10:06:34Z</time>
      </trkpt>
      <trkpt lat="43.98581" lon="5.51746">
        <ele>959.198</ele>
        <time>2011-04-10T10:06:44Z</time>
      </trkpt>
      <trkpt lat="43.98581" lon="5.51746">
        <ele>958.747</ele>
        <time>2011-04-10T10:06:54Z</time>
      </trkpt>
      <trkpt lat="43.98581" lon="5.51746">
        <ele>958.765</ele>
        <time>2011-04-10T10:07:04Z</time>
      </trkpt>
      <trkpt lat="43.98581" lon="5.51746">
        <ele>958.534</ele>
        <time>2011-04-10T10:07:14Z</time>
      </trkpt>
      <trkpt lat="43.98581" lon="5.51746">
        <ele>958.526</ele>
        <time>2011-04-10T10:07:24Z</time>
      </trkpt>
      <trkpt lat="43.98581" lon="5.51746">
        <ele>958.772</ele>
        <time>2011-04-10T10:07:34Z</time>
      </trkpt>
      <trkpt lat="43.98581" lon="5.51746">
        <ele>958.667</ele>
        <time>2011-04-10T10:07:44Z</time>
      </trkpt>
      <trkpt lat="43.98581" lon="5.51746">
        <ele>958.929</ele>
        <time>2011-04-10T10:07:54Z</time>
      </trkpt>
      <trkpt lat="43.98581" lon="5.51746">
        <ele>958.892</ele>
        <time>2011-04-10T10:08:04Z</time>
      </trkpt>
      <trkpt lat="43.98581" lon="5.51746">
        <ele>959.066</ele>
        <time>2011-04-10T10:08:14Z</time>
      </trkpt>
      <trkpt lat="43.98581" lon="5.51746">
        <ele>958.749</ele>
        <time>2011-04-10T10:08:24Z</time>
      </trkpt>
      <trkpt lat="43.98581" lon="5.51743">
        <ele>958.725</ele>
        <time>2011-04-10T10:08:34Z</time>
      </trkpt>
      <trkpt lat="43.98583" lon="5.51732">
        <ele>959.826</ele>
        <time>2011-04-10T10:08:44Z</time>
      </trkpt>
      <trkpt lat="43.98587" lon="5.51723">
        <ele>960.214</ele>
        <time>2011-04-10T10:08:54Z</time>
      </trkpt>
      <trkpt lat="43.98595" lon="5.51715">
        <ele>961.12</ele>
        <time>2011-04-10T10:09:04Z</time>
      </trkpt>
      <trkpt lat="43.986" lon="5.51712">
        <ele>961.66</ele>
        <time>2011-04-10T10:09:14Z</time>
      </trkpt>
      <trkpt lat="43.98599" lon="5.51713">
        <ele>961.78</ele>
        <time>2011-04-10T10:09:24Z</time>
      </trkpt>
      <trkpt lat="43.98599" lon="5.51712">
        <ele>961.576</ele>
        <time>2011-04-10T10:09:34Z</time>
      </trkpt>
      <trkpt lat="43.98599" lon="5.51712">
        <ele>961.923</ele>
        <time>2011-04-10T10:09:44Z</time>
      </trkpt>
      <trkpt lat="43.98604" lon="5.51709">
        <ele>961.995</ele>
        <time>2011-04-10T10:09:54Z</time>
      </trkpt>
      <trkpt lat="43.98607" lon="5.51706">
        <ele>961.57</ele>
        <time>2011-04-10T10:10:04Z</time>
      </trkpt>
      <trkpt lat="43.9861" lon="5.51703">
        <ele>962.267</ele>
        <time>2011-04-10T10:10:14Z</time>
      </trkpt>
      <trkpt lat="43.98607" lon="5.51704">
        <ele>962.071</ele>
        <time>2011-04-10T10:10:24Z</time>
      </trkpt>
      <trkpt lat="43.98604" lon="5.51703">
        <ele>962.431</ele>
        <time>2011-04-10T10:10:34Z</time>
      </trkpt>
      <trkpt lat="43.98599" lon="5.51702">
        <ele>963.655</ele>
        <time>2011-04-10T10:10:44Z</time>
      </trkpt>
      <trkpt lat="43.98599" lon="5.51701">
        <ele>963.596</ele>
        <time>2011-04-10T10:10:54Z</time>
      </trkpt>
      <trkpt lat="43.98599" lon="5.51701">
        <ele>962.864</ele>
        <time>2011-04-10T10:11:04Z</time>
      </trkpt>
      <trkpt lat="43.98599" lon="5.51701">
        <ele>962.94</ele>
        <time>2011-04-10T10:11:14Z</time>
      </trkpt>
      <trkpt lat="43.98599" lon="5.51701">
        <ele>963.807</ele>
        <time>2011-04-10T10:11:24Z</time>
      </trkpt>
      <trkpt lat="43.98598" lon="5.51703">
        <ele>963.368</ele>
        <time>2011-04-10T10:11:34Z</time>
      </trkpt>
      <trkpt lat="43.98598" lon="5.51703">
        <ele>963.586</ele>
        <time>2011-04-10T10:11:44Z</time>
      </trkpt>
      <trkpt lat="43.98598" lon="5.51703">
        <ele>963.507</ele>
        <time>2011-04-10T10:11:54Z</time>
      </trkpt>
      <trkpt lat="43.98598" lon="5.51703">
        <ele>963.062</ele>
        <time>2011-04-10T10:12:04Z</time>
      </trkpt>
      <trkpt lat="43.98598" lon="5.51703">
        <ele>963.624</ele>
        <time>2011-04-10T10:12:14Z</time>
      </trkpt>
      <trkpt lat="43.98598" lon="5.51703">
        <ele>963.051</ele>
        <time>2011-04-10T10:12:24Z</time>
      </trkpt>
      <trkpt lat="43.98598" lon="5.51703">
        <ele>963.169</ele>
        <time>2011-04-10T10:12:34Z</time>
      </trkpt>
      <trkpt lat="43.98598" lon="5.51703">
        <ele>963.251</ele>
        <time>2011-04-10T10:12:44Z</time>
      </trkpt>
      <trkpt lat="43.98601" lon="5.51692">
        <ele>964.202</ele>
        <time>2011-04-10T10:12:54Z</time>
      </trkpt>
      <trkpt lat="43.98606" lon="5.5168">
        <ele>965.013</ele>
        <time>2011-04-10T10:13:04Z</time>
      </trkpt>
      <trkpt lat="43.98612" lon="5.51666">
        <ele>965.808</ele>
        <time>2011-04-10T10:13:14Z</time>
      </trkpt>
      <trkpt lat="43.98617" lon="5.51651">
        <ele>967.067</ele>
        <time>2011-04-10T10:13:24Z</time>
      </trkpt>
      <trkpt lat="43.98621" lon="5.51641">
        <ele>967.458</ele>
        <time>2011-04-10T10:13:34Z</time>
      </trkpt>
      <trkpt lat="43.98626" lon="5.51628">
        <ele>968.656</ele>
        <time>2011-04-10T10:13:44Z</time>
      </trkpt>
      <trkpt lat="43.98631" lon="5.51617">
        <ele>970.229</ele>
        <time>2011-04-10T10:13:54Z</time>
      </trkpt>
      <trkpt lat="43.98633" lon="5.51606">
        <ele>970.968</ele>
        <time>2011-04-10T10:14:04Z</time>
      </trkpt>
      <trkpt lat="43.98635" lon="5.51591">
        <ele>971.57</ele>
        <time>2011-04-10T10:14:14Z</time>
      </trkpt>
      <trkpt lat="43.98635" lon="5.51577">
        <ele>972.636</ele>
        <time>2011-04-10T10:14:24Z</time>
      </trkpt>
      <trkpt lat="43.98636" lon="5.51564">
        <ele>974.04</ele>
        <time>2011-04-10T10:14:34Z</time>
      </trkpt>
      <trkpt lat="43.98635" lon="5.51551">
        <ele>975.253</ele>
        <time>2011-04-10T10:14:44Z</time>
      </trkpt>
      <trkpt lat="43.98633" lon="5.51537">
        <ele>975.999</ele>
        <time>2011-04-10T10:14:54Z</time>
      </trkpt>
      <trkpt lat="43.98629" lon="5.51525">
        <ele>977.368</ele>
        <time>2011-04-10T10:15:04Z</time>
      </trkpt>
      <trkpt lat="43.98624" lon="5.51515">
        <ele>978.269</ele>
        <time>2011-04-10T10:15:14Z</time>
      </trkpt>
      <trkpt lat="43.98628" lon="5.51506">
        <ele>979.007</ele>
        <time>2011-04-10T10:15:24Z</time>
      </trkpt>
      <trkpt lat="43.98635" lon="5.51494">
        <ele>979.142</ele>
        <time>2011-04-10T10:15:34Z</time>
      </trkpt>
      <trkpt lat="43.98642" lon="5.51482">
        <ele>979.988</ele>
        <time>2011-04-10T10:15:44Z</time>
      </trkpt>
      <trkpt lat="43.98646" lon="5.51474">
        <ele>980.654</ele>
        <time>2011-04-10T10:15:54Z</time>
      </trkpt>
      <trkpt lat="43.9865" lon="5.51466">
        <ele>980.962</ele>
        <time>2011-04-10T10:16:04Z</time>
      </trkpt>
      <trkpt lat="43.98656" lon="5.51458">
        <ele>980.367</ele>
        <time>2011-04-10T10:16:14Z</time>
      </trkpt>
      <trkpt lat="43.98662" lon="5.5145">
        <ele>981.238</ele>
        <time>2011-04-10T10:16:24Z</time>
      </trkpt>
      <trkpt lat="43.98669" lon="5.51444">
        <ele>981.726</ele>
        <time>2011-04-10T10:16:34Z</time>
      </trkpt>
      <trkpt lat="43.98676" lon="5.51433">
        <ele>982.68</ele>
        <time>2011-04-10T10:16:44Z</time>
      </trkpt>
      <trkpt lat="43.98683" lon="5.51422">
        <ele>983.086</ele>
        <time>2011-04-10T10:16:54Z</time>
      </trkpt>
      <trkpt lat="43.9869" lon="5.51412">
        <ele>983.422</ele>
        <time>2011-04-10T10:17:04Z</time>
      </trkpt>
      <trkpt lat="43.98697" lon="5.51402">
        <ele>983.83</ele>
        <time>2011-04-10T10:17:14Z</time>
      </trkpt>
      <trkpt lat="43.98705" lon="5.51396">
        <ele>982.847</ele>
        <time>2011-04-10T10:17:24Z</time>
      </trkpt>
      <trkpt lat="43.9871" lon="5.51389">
        <ele>982.509</ele>
        <time>2011-04-10T10:17:34Z</time>
      </trkpt>
      <trkpt lat="43.98717" lon="5.51381">
        <ele>981.737</ele>
        <time>2011-04-10T10:17:44Z</time>
      </trkpt>
      <trkpt lat="43.98721" lon="5.51375">
        <ele>981.468</ele>
        <time>2011-04-10T10:17:54Z</time>
      </trkpt>
      <trkpt lat="43.98729" lon="5.51368">
        <ele>981.138</ele>
        <time>2011-04-10T10:18:04Z</time>
      </trkpt>
      <trkpt lat="43.98734" lon="5.51359">
        <ele>980.785</ele>
        <time>2011-04-10T10:18:14Z</time>
      </trkpt>
      <trkpt lat="43.98739" lon="5.51347">
        <ele>981.28</ele>
        <time>2011-04-10T10:18:24Z</time>
      </trkpt>
      <trkpt lat="43.98745" lon="5.51332">
        <ele>980.903</ele>
        <time>2011-04-10T10:18:34Z</time>
      </trkpt>
      <trkpt lat="43.98751" lon="5.51319">
        <ele>981.011</ele>
        <time>2011-04-10T10:18:44Z</time>
      </trkpt>
      <trkpt lat="43.98757" lon="5.51305">
        <ele>981.45</ele>
        <time>2011-04-10T10:18:54Z</time>
      </trkpt>
      <trkpt lat="43.9876" lon="5.51296">
        <ele>981.778</ele>
        <time>2011-04-10T10:19:04Z</time>
      </trkpt>
      <trkpt lat="43.98765" lon="5.51285">
        <ele>982.259</ele>
        <time>2011-04-10T10:19:14Z</time>
      </trkpt>
      <trkpt lat="43.98773" lon="5.51271">
        <ele>981.789</ele>
        <time>2011-04-10T10:19:24Z</time>
      </trkpt>
      <trkpt lat="43.9878" lon="5.5126">
        <ele>982.547</ele>
        <time>2011-04-10T10:19:34Z</time>
      </trkpt>
      <trkpt lat="43.98788" lon="5.51249">
        <ele>982.795</ele>
        <time>2011-04-10T10:19:44Z</time>
      </trkpt>
      <trkpt lat="43.98795" lon="5.51233">
        <ele>982.665</ele>
        <time>2011-04-10T10:19:54Z</time>
      </trkpt>
      <trkpt lat="43.98803" lon="5.51222">
        <ele>982.987</ele>
        <time>2011-04-10T10:20:04Z</time>
      </trkpt>
      <trkpt lat="43.98808" lon="5.51209">
        <ele>982.488</ele>
        <time>2011-04-10T10:20:14Z</time>
      </trkpt>
      <trkpt lat="43.98817" lon="5.51191">
        <ele>983.353</ele>
        <time>2011-04-10T10:20:24Z</time>
      </trkpt>
      <trkpt lat="43.98822" lon="5.51176">
        <ele>983.642</ele>
        <time>2011-04-10T10:20:34Z</time>
      </trkpt>
      <trkpt lat="43.98831" lon="5.51157">
        <ele>984.198</ele>
        <time>2011-04-10T10:20:44Z</time>
      </trkpt>
      <trkpt lat="43.98835" lon="5.51141">
        <ele>984.543</ele>
        <time>2011-04-10T10:20:54Z</time>
      </trkpt>
      <trkpt lat="43.98838" lon="5.51128">
        <ele>985.79</ele>
        <time>2011-04-10T10:21:04Z</time>
      </trkpt>
      <trkpt lat="43.9884" lon="5.51115">
        <ele>986.168</ele>
        <time>2011-04-10T10:21:14Z</time>
      </trkpt>
      <trkpt lat="43.98845" lon="5.51101">
        <ele>986.667</ele>
        <time>2011-04-10T10:21:24Z</time>
      </trkpt>
      <trkpt lat="43.98847" lon="5.51086">
        <ele>988.036</ele>
        <time>2011-04-10T10:21:34Z</time>
      </trkpt>
      <trkpt lat="43.98852" lon="5.51075">
        <ele>989.059</ele>
        <time>2011-04-10T10:21:44Z</time>
      </trkpt>
      <trkpt lat="43.98856" lon="5.5106">
        <ele>989.995</ele>
        <time>2011-04-10T10:21:54Z</time>
      </trkpt>
      <trkpt lat="43.98859" lon="5.51049">
        <ele>990.449</ele>
        <time>2011-04-10T10:22:04Z</time>
      </trkpt>
      <trkpt lat="43.98865" lon="5.51039">
        <ele>990.857</ele>
        <time>2011-04-10T10:22:14Z</time>
      </trkpt>
      <trkpt lat="43.98869" lon="5.51026">
        <ele>991.243</ele>
        <time>2011-04-10T10:22:24Z</time>
      </trkpt>
      <trkpt lat="43.98876" lon="5.51011">
        <ele>992.281</ele>
        <time>2011-04-10T10:22:34Z</time>
      </trkpt>
      <trkpt lat="43.98885" lon="5.50993">
        <ele>992.314</ele>
        <time>2011-04-10T10:22:44Z</time>
      </trkpt>
      <trkpt lat="43.98887" lon="5.5098">
        <ele>992.772</ele>
        <time>2011-04-10T10:22:54Z</time>
      </trkpt>
      <trkpt lat="43.98892" lon="5.50966">
        <ele>993.726</ele>
        <time>2011-04-10T10:23:04Z</time>
      </trkpt>
      <trkpt lat="43.98897" lon="5.50954">
        <ele>994.617</ele>
        <time>2011-04-10T10:23:14Z</time>
      </trkpt>
      <trkpt lat="43.98899" lon="5.50942">
        <ele>994.453</ele>
        <time>2011-04-10T10:23:24Z</time>
      </trkpt>
      <trkpt lat="43.989" lon="5.50931">
        <ele>994.745</ele>
        <time>2011-04-10T10:23:34Z</time>
      </trkpt>
      <trkpt lat="43.98906" lon="5.5092">
        <ele>994.666</ele>
        <time>2011-04-10T10:23:44Z</time>
      </trkpt>
      <trkpt lat="43.98912" lon="5.50905">
        <ele>994.477</ele>
        <time>2011-04-10T10:23:54Z</time>
      </trkpt>
      <trkpt lat="43.9892" lon="5.50894">
        <ele>994.165</ele>
        <time>2011-04-10T10:24:04Z</time>
      </trkpt>
      <trkpt lat="43.98924" lon="5.50882">
        <ele>994.22</ele>
        <time>2011-04-10T10:24:14Z</time>
      </trkpt>
      <trkpt lat="43.98929" lon="5.5087">
        <ele>994.315</ele>
        <time>2011-04-10T10:24:24Z</time>
      </trkpt>
      <trkpt lat="43.98933" lon="5.50862">
        <ele>994.658</ele>
        <time>2011-04-10T10:24:34Z</time>
      </trkpt>
      <trkpt lat="43.98938" lon="5.50846">
        <ele>994.292</ele>
        <time>2011-04-10T10:24:44Z</time>
      </trkpt>
      <trkpt lat="43.98943" lon="5.50835">
        <ele>994.374</ele>
        <time>2011-04-10T10:24:54Z</time>
      </trkpt>
      <trkpt lat="43.98944" lon="5.50825">
        <ele>995.292</ele>
        <time>2011-04-10T10:25:04Z</time>
      </trkpt>
      <trkpt lat="43.98945" lon="5.50826">
        <ele>995.509</ele>
        <time>2011-04-10T10:25:14Z</time>
      </trkpt>
      <trkpt lat="43.98945" lon="5.50826">
        <ele>995.099</ele>
        <time>2011-04-10T10:25:24Z</time>
      </trkpt>
      <trkpt lat="43.98945" lon="5.50826">
        <ele>995.582</ele>
        <time>2011-04-10T10:25:34Z</time>
      </trkpt>
      <trkpt lat="43.98942" lon="5.50825">
        <ele>995.705</ele>
        <time>2011-04-10T10:25:44Z</time>
      </trkpt>
      <trkpt lat="43.98934" lon="5.5082">
        <ele>997.227</ele>
        <time>2011-04-10T10:25:54Z</time>
      </trkpt>
      <trkpt lat="43.98924" lon="5.50832">
        <ele>997.697</ele>
        <time>2011-04-10T10:26:04Z</time>
      </trkpt>
      <trkpt lat="43.98914" lon="5.50842">
        <ele>998.04</ele>
        <time>2011-04-10T10:26:14Z</time>
      </trkpt>
      <trkpt lat="43.98905" lon="5.50856">
        <ele>997.765</ele>
        <time>2011-04-10T10:26:24Z</time>
      </trkpt>
      <trkpt lat="43.98896" lon="5.50866">
        <ele>998.64</ele>
        <time>2011-04-10T10:26:34Z</time>
      </trkpt>
      <trkpt lat="43.98883" lon="5.50872">
        <ele>998.628</ele>
        <time>2011-04-10T10:26:44Z</time>
      </trkpt>
      <trkpt lat="43.98871" lon="5.50865">
        <ele>1000.734</ele>
        <time>2011-04-10T10:26:54Z</time>
      </trkpt>
      <trkpt lat="43.98867" lon="5.50851">
        <ele>1002.299</ele>
        <time>2011-04-10T10:27:04Z</time>
      </trkpt>
      <trkpt lat="43.98863" lon="5.50838">
        <ele>1003.33</ele>
        <time>2011-04-10T10:27:14Z</time>
      </trkpt>
      <trkpt lat="43.98857" lon="5.50822">
        <ele>1004.926</ele>
        <time>2011-04-10T10:27:24Z</time>
      </trkpt>
      <trkpt lat="43.9885" lon="5.50811">
        <ele>1005.576</ele>
        <time>2011-04-10T10:27:34Z</time>
      </trkpt>
      <trkpt lat="43.98841" lon="5.50801">
        <ele>1006.571</ele>
        <time>2011-04-10T10:27:44Z</time>
      </trkpt>
      <trkpt lat="43.98837" lon="5.50795">
        <ele>1008.521</ele>
        <time>2011-04-10T10:27:54Z</time>
      </trkpt>
      <trkpt lat="43.98829" lon="5.50798">
        <ele>1008.794</ele>
        <time>2011-04-10T10:28:04Z</time>
      </trkpt>
      <trkpt lat="43.98825" lon="5.50808">
        <ele>1009.45</ele>
        <time>2011-04-10T10:28:14Z</time>
      </trkpt>
      <trkpt lat="43.98823" lon="5.50815">
        <ele>1009.794</ele>
        <time>2011-04-10T10:28:24Z</time>
      </trkpt>
      <trkpt lat="43.98824" lon="5.50814">
        <ele>1009.451</ele>
        <time>2011-04-10T10:28:34Z</time>
      </trkpt>
      <trkpt lat="43.98824" lon="5.50814">
        <ele>1009.822</ele>
        <time>2011-04-10T10:28:44Z</time>
      </trkpt>
      <trkpt lat="43.98822" lon="5.50813">
        <ele>1009.594</ele>
        <time>2011-04-10T10:28:54Z</time>
      </trkpt>
      <trkpt lat="43.98822" lon="5.50813">
        <ele>1010.058</ele>
        <time>2011-04-10T10:29:04Z</time>
      </trkpt>
      <trkpt lat="43.98822" lon="5.50813">
        <ele>1009.989</ele>
        <time>2011-04-10T10:29:14Z</time>
      </trkpt>
      <trkpt lat="43.98822" lon="5.50813">
        <ele>1010.171</ele>
        <time>2011-04-10T10:29:24Z</time>
      </trkpt>
      <trkpt lat="43.98822" lon="5.50813">
        <ele>1010.252</ele>
        <time>2011-04-10T10:29:34Z</time>
      </trkpt>
      <trkpt lat="43.98822" lon="5.50813">
        <ele>1009.916</ele>
        <time>2011-04-10T10:29:44Z</time>
      </trkpt>
      <trkpt lat="43.98822" lon="5.50813">
        <ele>1010.323</ele>
        <time>2011-04-10T10:29:54Z</time>
      </trkpt>
      <trkpt lat="43.98822" lon="5.50813">
        <ele>1010.101</ele>
        <time>2011-04-10T10:30:04Z</time>
      </trkpt>
      <trkpt lat="43.98822" lon="5.50813">
        <ele>1010.296</ele>
        <time>2011-04-10T10:30:14Z</time>
      </trkpt>
      <trkpt lat="43.98822" lon="5.50813">
        <ele>1010.092</ele>
        <time>2011-04-10T10:30:24Z</time>
      </trkpt>
      <trkpt lat="43.98819" lon="5.50816">
        <ele>1010.463</ele>
        <time>2011-04-10T10:30:34Z</time>
      </trkpt>
      <trkpt lat="43.98815" lon="5.50819">
        <ele>1011.645</ele>
        <time>2011-04-10T10:30:44Z</time>
      </trkpt>
      <trkpt lat="43.98809" lon="5.50826">
        <ele>1011.949</ele>
        <time>2011-04-10T10:30:54Z</time>
      </trkpt>
      <trkpt lat="43.98799" lon="5.50836">
        <ele>1012.768</ele>
        <time>2011-04-10T10:31:04Z</time>
      </trkpt>
      <trkpt lat="43.9879" lon="5.50844">
        <ele>1013.32</ele>
        <time>2011-04-10T10:31:14Z</time>
      </trkpt>
      <trkpt lat="43.98779" lon="5.50854">
        <ele>1013.861</ele>
        <time>2011-04-10T10:31:24Z</time>
      </trkpt>
      <trkpt lat="43.9877" lon="5.50859">
        <ele>1014.334</ele>
        <time>2011-04-10T10:31:34Z</time>
      </trkpt>
      <trkpt lat="43.98759" lon="5.50866">
        <ele>1014.993</ele>
        <time>2011-04-10T10:31:44Z</time>
      </trkpt>
      <trkpt lat="43.98751" lon="5.50871">
        <ele>1016.008</ele>
        <time>2011-04-10T10:31:54Z</time>
      </trkpt>
      <trkpt lat="43.98745" lon="5.50879">
        <ele>1016.954</ele>
        <time>2011-04-10T10:32:04Z</time>
      </trkpt>
      <trkpt lat="43.98736" lon="5.50887">
        <ele>1017.183</ele>
        <time>2011-04-10T10:32:14Z</time>
      </trkpt>
      <trkpt lat="43.98727" lon="5.50897">
        <ele>1018.381</ele>
        <time>2011-04-10T10:32:24Z</time>
      </trkpt>
      <trkpt lat="43.98717" lon="5.50908">
        <ele>1018.959</ele>
        <time>2011-04-10T10:32:34Z</time>
      </trkpt>
      <trkpt lat="43.98708" lon="5.50921">
        <ele>1019.702</ele>
        <time>2011-04-10T10:32:44Z</time>
      </trkpt>
      <trkpt lat="43.98698" lon="5.50932">
        <ele>1020.469</ele>
        <time>2011-04-10T10:32:54Z</time>
      </trkpt>
      <trkpt lat="43.98687" lon="5.50941">
        <ele>1020.492</ele>
        <time>2011-04-10T10:33:04Z</time>
      </trkpt>
      <trkpt lat="43.98676" lon="5.50949">
        <ele>1021.723</ele>
        <time>2011-04-10T10:33:14Z</time>
      </trkpt>
      <trkpt lat="43.98664" lon="5.50955">
        <ele>1022.226</ele>
        <time>2011-04-10T10:33:24Z</time>
      </trkpt>
      <trkpt lat="43.98654" lon="5.50961">
        <ele>1022.723</ele>
        <time>2011-04-10T10:33:34Z</time>
      </trkpt>
      <trkpt lat="43.98643" lon="5.50966">
        <ele>1023.799</ele>
        <time>2011-04-10T10:33:44Z</time>
      </trkpt>
      <trkpt lat="43.98631" lon="5.50973">
        <ele>1024.287</ele>
        <time>2011-04-10T10:33:54Z</time>
      </trkpt>
      <trkpt lat="43.9862" lon="5.50979">
        <ele>1024.989</ele>
        <time>2011-04-10T10:34:04Z</time>
      </trkpt>
      <trkpt lat="43.98609" lon="5.50985">
        <ele>1025.674</ele>
        <time>2011-04-10T10:34:14Z</time>
      </trkpt>
      <trkpt lat="43.98598" lon="5.50993">
        <ele>1026.779</ele>
        <time>2011-04-10T10:34:24Z</time>
      </trkpt>
      <trkpt lat="43.98589" lon="5.50998">
        <ele>1027.837</ele>
        <time>2011-04-10T10:34:34Z</time>
      </trkpt>
      <trkpt lat="43.98578" lon="5.51003">
        <ele>1028.717</ele>
        <time>2011-04-10T10:34:44Z</time>
      </trkpt>
      <trkpt lat="43.98566" lon="5.51007">
        <ele>1029.676</ele>
        <time>2011-04-10T10:34:54Z</time>
      </trkpt>
      <trkpt lat="43.98554" lon="5.51011">
        <ele>1030.39</ele>
        <time>2011-04-10T10:35:04Z</time>
      </trkpt>
      <trkpt lat="43.98542" lon="5.51013">
        <ele>1031.005</ele>
        <time>2011-04-10T10:35:14Z</time>
      </trkpt>
      <trkpt lat="43.98531" lon="5.51013">
        <ele>1032.271</ele>
        <time>2011-04-10T10:35:24Z</time>
      </trkpt>
      <trkpt lat="43.98519" lon="5.51012">
        <ele>1032.489</ele>
        <time>2011-04-10T10:35:34Z</time>
      </trkpt>
      <trkpt lat="43.98507" lon="5.5101">
        <ele>1033.483</ele>
        <time>2011-04-10T10:35:44Z</time>
      </trkpt>
      <trkpt lat="43.98498" lon="5.51008">
        <ele>1033.952</ele>
        <time>2011-04-10T10:35:54Z</time>
      </trkpt>
      <trkpt lat="43.98485" lon="5.51006">
        <ele>1034.477</ele>
        <time>2011-04-10T10:36:04Z</time>
      </trkpt>
      <trkpt lat="43.98473" lon="5.51006">
        <ele>1035.57</ele>
        <time>2011-04-10T10:36:14Z</time>
      </trkpt>
      <trkpt lat="43.9846" lon="5.51006">
        <ele>1035.76</ele>
        <time>2011-04-10T10:36:24Z</time>
      </trkpt>
      <trkpt lat="43.98448" lon="5.51005">
        <ele>1037.336</ele>
        <time>2011-04-10T10:36:34Z</time>
      </trkpt>
      <trkpt lat="43.98435" lon="5.51004">
        <ele>1037.88</ele>
        <time>2011-04-10T10:36:44Z</time>
      </trkpt>
      <trkpt lat="43.98426" lon="5.51001">
        <ele>1038.758</ele>
        <time>2011-04-10T10:36:54Z</time>
      </trkpt>
      <trkpt lat="43.98412" lon="5.51001">
        <ele>1039.649</ele>
        <time>2011-04-10T10:37:04Z</time>
      </trkpt>
      <trkpt lat="43.98399" lon="5.51002">
        <ele>1040.356</ele>
        <time>2011-04-10T10:37:14Z</time>
      </trkpt>
      <trkpt lat="43.98395" lon="5.51">
        <ele>1040.684</ele>
        <time>2011-04-10T10:37:24Z</time>
      </trkpt>
      <trkpt lat="43.98396" lon="5.50999">
        <ele>1039.954</ele>
        <time>2011-04-10T10:37:34Z</time>
      </trkpt>
      <trkpt lat="43.98396" lon="5.50999">
        <ele>1040.975</ele>
        <time>2011-04-10T10:37:44Z</time>
      </trkpt>
      <trkpt lat="43.98396" lon="5.50999">
        <ele>1041.068</ele>
        <time>2011-04-10T10:37:54Z</time>
      </trkpt>
      <trkpt lat="43.98391" lon="5.51">
        <ele>1041.31</ele>
        <time>2011-04-10T10:38:04Z</time>
      </trkpt>
      <trkpt lat="43.98378" lon="5.50996">
        <ele>1041.833</ele>
        <time>2011-04-10T10:38:14Z</time>
      </trkpt>
      <trkpt lat="43.98366" lon="5.50992">
        <ele>1042.398</ele>
        <time>2011-04-10T10:38:24Z</time>
      </trkpt>
      <trkpt lat="43.98354" lon="5.50987">
        <ele>1042.971</ele>
        <time>2011-04-10T10:38:34Z</time>
      </trkpt>
      <trkpt lat="43.98343" lon="5.50982">
        <ele>1043.843</ele>
        <time>2011-04-10T10:38:44Z</time>
      </trkpt>
      <trkpt lat="43.98333" lon="5.50979">
        <ele>1045.385</ele>
        <time>2011-04-10T10:38:54Z</time>
      </trkpt>
      <trkpt lat="43.98321" lon="5.50981">
        <ele>1046.604</ele>
        <time>2011-04-10T10:39:04Z</time>
      </trkpt>
      <trkpt lat="43.98309" lon="5.50975">
        <ele>1047.392</ele>
        <time>2011-04-10T10:39:14Z</time>
      </trkpt>
      <trkpt lat="43.983" lon="5.50972">
        <ele>1048.582</ele>
        <time>2011-04-10T10:39:24Z</time>
      </trkpt>
      <trkpt lat="43.98287" lon="5.5097">
        <ele>1049.423</ele>
        <time>2011-04-10T10:39:34Z</time>
      </trkpt>
      <trkpt lat="43.98276" lon="5.50965">
        <ele>1049.737</ele>
        <time>2011-04-10T10:39:44Z</time>
      </trkpt>
      <trkpt lat="43.98263" lon="5.50961">
        <ele>1050.486</ele>
        <time>2011-04-10T10:39:54Z</time>
      </trkpt>
      <trkpt lat="43.98251" lon="5.50955">
        <ele>1050.754</ele>
        <time>2011-04-10T10:40:04Z</time>
      </trkpt>
      <trkpt lat="43.98241" lon="5.50948">
        <ele>1051.4</ele>
        <time>2011-04-10T10:40:14Z</time>
      </trkpt>
      <trkpt lat="43.98234" lon="5.50941">
        <ele>1052.159</ele>
        <time>2011-04-10T10:40:24Z</time>
      </trkpt>
      <trkpt lat="43.98226" lon="5.50939">
        <ele>1052.435</ele>
        <time>2011-04-10T10:40:34Z</time>
      </trkpt>
      <trkpt lat="43.98217" lon="5.50937">
        <ele>1052.416</ele>
        <time>2011-04-10T10:40:44Z</time>
      </trkpt>
      <trkpt lat="43.98207" lon="5.50934">
        <ele>1052.723</ele>
        <time>2011-04-10T10:40:54Z</time>
      </trkpt>
      <trkpt lat="43.98199" lon="5.50934">
        <ele>1052.881</ele>
        <time>2011-04-10T10:41:04Z</time>
      </trkpt>
      <trkpt lat="43.98191" lon="5.50935">
        <ele>1053.12</ele>
        <time>2011-04-10T10:41:14Z</time>
      </trkpt>
      <trkpt lat="43.98189" lon="5.50932">
        <ele>1053.34</ele>
        <time>2011-04-10T10:41:24Z</time>
      </trkpt>
      <trkpt lat="43.98182" lon="5.50932">
        <ele>1052.903</ele>
        <time>2011-04-10T10:41:34Z</time>
      </trkpt>
      <trkpt lat="43.98182" lon="5.50937">
        <ele>1052.854</ele>
        <time>2011-04-10T10:41:44Z</time>
      </trkpt>
      <trkpt lat="43.98181" lon="5.50941">
        <ele>1052.884</ele>
        <time>2011-04-10T10:41:54Z</time>
      </trkpt>
      <trkpt lat="43.98178" lon="5.50942">
        <ele>1052.461</ele>
        <time>2011-04-10T10:42:04Z</time>
      </trkpt>
      <trkpt lat="43.98173" lon="5.50939">
        <ele>1052.735</ele>
        <time>2011-04-10T10:42:14Z</time>
      </trkpt>
      <trkpt lat="43.98172" lon="5.50936">
        <ele>1052.522</ele>
        <time>2011-04-10T10:42:24Z</time>
      </trkpt>
      <trkpt lat="43.98174" lon="5.50939">
        <ele>1052.594</ele>
        <time>2011-04-10T10:42:34Z</time>
      </trkpt>
      <trkpt lat="43.98176" lon="5.5094">
        <ele>1052.43</ele>
        <time>2011-04-10T10:42:44Z</time>
      </trkpt>
      <trkpt lat="43.9818" lon="5.50942">
        <ele>1052.235</ele>
        <time>2011-04-10T10:42:54Z</time>
      </trkpt>
      <trkpt lat="43.9818" lon="5.50943">
        <ele>1052.075</ele>
        <time>2011-04-10T10:43:04Z</time>
      </trkpt>
      <trkpt lat="43.98179" lon="5.50943">
        <ele>1051.802</ele>
        <time>2011-04-10T10:43:14Z</time>
      </trkpt>
      <trkpt lat="43.98179" lon="5.50943">
        <ele>1052.233</ele>
        <time>2011-04-10T10:43:24Z</time>
      </trkpt>
      <trkpt lat="43.9818" lon="5.50943">
        <ele>1051.968</ele>
        <time>2011-04-10T10:43:34Z</time>
      </trkpt>
      <trkpt lat="43.9818" lon="5.50944">
        <ele>1052.245</ele>
        <time>2011-04-10T10:43:44Z</time>
      </trkpt>
      <trkpt lat="43.98179" lon="5.50943">
        <ele>1052.454</ele>
        <time>2011-04-10T10:43:54Z</time>
      </trkpt>
      <trkpt lat="43.98179" lon="5.50943">
        <ele>1051.854</ele>
        <time>2011-04-10T10:44:04Z</time>
      </trkpt>
      <trkpt lat="43.98178" lon="5.50942">
        <ele>1051.788</ele>
        <time>2011-04-10T10:44:14Z</time>
      </trkpt>
      <trkpt lat="43.98177" lon="5.50941">
        <ele>1051.934</ele>
        <time>2011-04-10T10:44:24Z</time>
      </trkpt>
      <trkpt lat="43.98175" lon="5.50939">
        <ele>1051.617</ele>
        <time>2011-04-10T10:44:34Z</time>
      </trkpt>
      <trkpt lat="43.98174" lon="5.50938">
        <ele>1051.883</ele>
        <time>2011-04-10T10:44:44Z</time>
      </trkpt>
      <trkpt lat="43.98173" lon="5.50937">
        <ele>1052.072</ele>
        <time>2011-04-10T10:44:54Z</time>
      </trkpt>
      <trkpt lat="43.98172" lon="5.50938">
        <ele>1052.266</ele>
        <time>2011-04-10T10:45:04Z</time>
      </trkpt>
      <trkpt lat="43.98172" lon="5.5094">
        <ele>1052.224</ele>
        <time>2011-04-10T10:45:14Z</time>
      </trkpt>
      <trkpt lat="43.98172" lon="5.50941">
        <ele>1052.103</ele>
        <time>2011-04-10T10:45:24Z</time>
      </trkpt>
      <trkpt lat="43.98172" lon="5.50941">
        <ele>1051.83</ele>
        <time>2011-04-10T10:45:34Z</time>
      </trkpt>
      <trkpt lat="43.98172" lon="5.50941">
        <ele>1051.88</ele>
        <time>2011-04-10T10:45:44Z</time>
      </trkpt>
      <trkpt lat="43.98172" lon="5.50941">
        <ele>1052.076</ele>
        <time>2011-04-10T10:45:54Z</time>
      </trkpt>
      <trkpt lat="43.98172" lon="5.50941">
        <ele>1052.34</ele>
        <time>2011-04-10T10:46:04Z</time>
      </trkpt>
      <trkpt lat="43.98172" lon="5.50941">
        <ele>1052.553</ele>
        <time>2011-04-10T10:46:14Z</time>
      </trkpt>
      <trkpt lat="43.98172" lon="5.50941">
        <ele>1052.219</ele>
        <time>2011-04-10T10:46:24Z</time>
      </trkpt>
      <trkpt lat="43.98172" lon="5.50941">
        <ele>1052.162</ele>
        <time>2011-04-10T10:46:34Z</time>
      </trkpt>
      <trkpt lat="43.98172" lon="5.50941">
        <ele>1052.245</ele>
        <time>2011-04-10T10:46:44Z</time>
      </trkpt>
      <trkpt lat="43.98172" lon="5.50941">
        <ele>1052.032</ele>
        <time>2011-04-10T10:46:54Z</time>
      </trkpt>
      <trkpt lat="43.98172" lon="5.50941">
        <ele>1052.342</ele>
        <time>2011-04-10T10:47:04Z</time>
      </trkpt>
      <trkpt lat="43.98172" lon="5.50941">
        <ele>1052.417</ele>
        <time>2011-04-10T10:47:14Z</time>
      </trkpt>
      <trkpt lat="43.98172" lon="5.50941">
        <ele>1052.536</ele>
        <time>2011-04-10T10:47:24Z</time>
      </trkpt>
      <trkpt lat="43.98172" lon="5.50941">
        <ele>1052.204</ele>
        <time>2011-04-10T10:47:34Z</time>
      </trkpt>
      <trkpt lat="43.98172" lon="5.50941">
        <ele>1052.297</ele>
        <time>2011-04-10T10:47:44Z</time>
      </trkpt>
      <trkpt lat="43.98172" lon="5.50941">
        <ele>1052.758</ele>
        <time>2011-04-10T10:47:54Z</time>
      </trkpt>
      <trkpt lat="43.98172" lon="5.50941">
        <ele>1052.456</ele>
        <time>2011-04-10T10:48:04Z</time>
      </trkpt>
      <trkpt lat="43.98172" lon="5.50941">
        <ele>1052.539</ele>
        <time>2011-04-10T10:48:14Z</time>
      </trkpt>
      <trkpt lat="43.98171" lon="5.50941">
        <ele>1052.316</ele>
        <time>2011-04-10T10:48:24Z</time>
      </trkpt>
      <trkpt lat="43.98171" lon="5.50941">
        <ele>1052.556</ele>
        <time>2011-04-10T10:48:34Z</time>
      </trkpt>
      <trkpt lat="43.98171" lon="5.50941">
        <ele>1052.599</ele>
        <time>2011-04-10T10:48:44Z</time>
      </trkpt>
      <trkpt lat="43.98171" lon="5.50941">
        <ele>1052.648</ele>
        <time>2011-04-10T10:48:54Z</time>
      </trkpt>
      <trkpt lat="43.98171" lon="5.50941">
        <ele>1052.421</ele>
        <time>2011-04-10T10:49:04Z</time>
      </trkpt>
      <trkpt lat="43.98171" lon="5.50941">
        <ele>1053.026</ele>
        <time>2011-04-10T10:49:14Z</time>
      </trkpt>
      <trkpt lat="43.98171" lon="5.50941">
        <ele>1052.902</ele>
        <time>2011-04-10T10:49:24Z</time>
      </trkpt>
      <trkpt lat="43.98171" lon="5.50941">
        <ele>1052.642</ele>
        <time>2011-04-10T10:49:34Z</time>
      </trkpt>
      <trkpt lat="43.98171" lon="5.50941">
        <ele>1053.068</ele>
        <time>2011-04-10T10:49:44Z</time>
      </trkpt>
      <trkpt lat="43.98171" lon="5.50941">
        <ele>1052.577</ele>
        <time>2011-04-10T10:49:54Z</time>
      </trkpt>
      <trkpt lat="43.98171" lon="5.50941">
        <ele>1052.77</ele>
        <time>2011-04-10T10:50:04Z</time>
      </trkpt>
      <trkpt lat="43.98171" lon="5.50941">
        <ele>1052.807</ele>
        <time>2011-04-10T10:50:14Z</time>
      </trkpt>
      <trkpt lat="43.98171" lon="5.50941">
        <ele>1053.151</ele>
        <time>2011-04-10T10:50:24Z</time>
      </trkpt>
      <trkpt lat="43.98171" lon="5.50941">
        <ele>1053.221</ele>
        <time>2011-04-10T10:50:34Z</time>
      </trkpt>
      <trkpt lat="43.98171" lon="5.50941">
        <ele>1052.696</ele>
        <time>2011-04-10T10:50:44Z</time>
      </trkpt>
      <trkpt lat="43.98171" lon="5.5094">
        <ele>1052.931</ele>
        <time>2011-04-10T10:50:54Z</time>
      </trkpt>
      <trkpt lat="43.98171" lon="5.5094">
        <ele>1053.017</ele>
        <time>2011-04-10T10:51:04Z</time>
      </trkpt>
      <trkpt lat="43.98171" lon="5.5094">
        <ele>1052.874</ele>
        <time>2011-04-10T10:51:14Z</time>
      </trkpt>
      <trkpt lat="43.98171" lon="5.5094">
        <ele>1052.733</ele>
        <time>2011-04-10T10:51:24Z</time>
      </trkpt>
      <trkpt lat="43.98171" lon="5.5094">
        <ele>1052.684</ele>
        <time>2011-04-10T10:51:34Z</time>
      </trkpt>
      <trkpt lat="43.98171" lon="5.5094">
        <ele>1053.075</ele>
        <time>2011-04-10T10:51:44Z</time>
      </trkpt>
      <trkpt lat="43.98171" lon="5.5094">
        <ele>1052.943</ele>
        <time>2011-04-10T10:51:54Z</time>
      </trkpt>
      <trkpt lat="43.98171" lon="5.5094">
        <ele>1053.046</ele>
        <time>2011-04-10T10:52:04Z</time>
      </trkpt>
      <trkpt lat="43.98171" lon="5.5094">
        <ele>1053.138</ele>
        <time>2011-04-10T10:52:14Z</time>
      </trkpt>
      <trkpt lat="43.98171" lon="5.5094">
        <ele>1052.876</ele>
        <time>2011-04-10T10:52:24Z</time>
      </trkpt>
      <trkpt lat="43.98171" lon="5.5094">
        <ele>1053.108</ele>
        <time>2011-04-10T10:52:34Z</time>
      </trkpt>
      <trkpt lat="43.98171" lon="5.5094">
        <ele>1053.354</ele>
        <time>2011-04-10T10:52:44Z</time>
      </trkpt>
      <trkpt lat="43.98171" lon="5.5094">
        <ele>1053.328</ele>
        <time>2011-04-10T10:52:54Z</time>
      </trkpt>
      <trkpt lat="43.98171" lon="5.5094">
        <ele>1053.375</ele>
        <time>2011-04-10T10:53:04Z</time>
      </trkpt>
      <trkpt lat="43.98171" lon="5.5094">
        <ele>1053.285</ele>
        <time>2011-04-10T10:53:14Z</time>
      </trkpt>
      <trkpt lat="43.98171" lon="5.5094">
        <ele>1053.672</ele>
        <time>2011-04-10T10:53:24Z</time>
      </trkpt>
      <trkpt lat="43.98171" lon="5.5094">
        <ele>1053.536</ele>
        <time>2011-04-10T10:53:34Z</time>
      </trkpt>
      <trkpt lat="43.98171" lon="5.5094">
        <ele>1053.659</ele>
        <time>2011-04-10T10:53:44Z</time>
      </trkpt>
      <trkpt lat="43.98171" lon="5.5094">
        <ele>1053.323</ele>
        <time>2011-04-10T10:53:54Z</time>
      </trkpt>
      <trkpt lat="43.98171" lon="5.5094">
        <ele>1053.006</ele>
        <time>2011-04-10T10:54:04Z</time>
      </trkpt>
      <trkpt lat="43.98171" lon="5.5094">
        <ele>1053.508</ele>
        <time>2011-04-10T10:54:14Z</time>
      </trkpt>
      <trkpt lat="43.98171" lon="5.5094">
        <ele>1053.047</ele>
        <time>2011-04-10T10:54:24Z</time>
      </trkpt>
      <trkpt lat="43.98171" lon="5.5094">
        <ele>1053.478</ele>
        <time>2011-04-10T10:54:34Z</time>
      </trkpt>
      <trkpt lat="43.98171" lon="5.5094">
        <ele>1053.736</ele>
        <time>2011-04-10T10:54:44Z</time>
      </trkpt>
      <trkpt lat="43.98171" lon="5.5094">
        <ele>1053.469</ele>
        <time>2011-04-10T10:54:54Z</time>
      </trkpt>
      <trkpt lat="43.98171" lon="5.5094">
        <ele>1053.253</ele>
        <time>2011-04-10T10:55:04Z</time>
      </trkpt>
      <trkpt lat="43.98171" lon="5.5094">
        <ele>1053.579</ele>
        <time>2011-04-10T10:55:14Z</time>
      </trkpt>
      <trkpt lat="43.98171" lon="5.5094">
        <ele>1053.316</ele>
        <time>2011-04-10T10:55:24Z</time>
      </trkpt>
      <trkpt lat="43.98171" lon="5.5094">
        <ele>1053.224</ele>
        <time>2011-04-10T10:55:34Z</time>
      </trkpt>
      <trkpt lat="43.98171" lon="5.5094">
        <ele>1053.415</ele>
        <time>2011-04-10T10:55:44Z</time>
      </trkpt>
      <trkpt lat="43.98171" lon="5.5094">
        <ele>1053.721</ele>
        <time>2011-04-10T10:55:54Z</time>
      </trkpt>
      <trkpt lat="43.98171" lon="5.5094">
        <ele>1053.253</ele>
        <time>2011-04-10T10:56:04Z</time>
      </trkpt>
      <trkpt lat="43.98171" lon="5.5094">
        <ele>1053.5</ele>
        <time>2011-04-10T10:56:14Z</time>
      </trkpt>
      <trkpt lat="43.98171" lon="5.5094">
        <ele>1053.59</ele>
        <time>2011-04-10T10:56:24Z</time>
      </trkpt>
      <trkpt lat="43.98171" lon="5.5094">
        <ele>1053.92</ele>
        <time>2011-04-10T10:56:34Z</time>
      </trkpt>
      <trkpt lat="43.98171" lon="5.5094">
        <ele>1053.641</ele>
        <time>2011-04-10T10:56:44Z</time>
      </trkpt>
      <trkpt lat="43.98171" lon="5.5094">
        <ele>1053.629</ele>
        <time>2011-04-10T10:56:54Z</time>
      </trkpt>
      <trkpt lat="43.98171" lon="5.5094">
        <ele>1053.826</ele>
        <time>2011-04-10T10:57:04Z</time>
      </trkpt>
      <trkpt lat="43.98171" lon="5.5094">
        <ele>1053.761</ele>
        <time>2011-04-10T10:57:14Z</time>
      </trkpt>
      <trkpt lat="43.98171" lon="5.5094">
        <ele>1054.126</ele>
        <time>2011-04-10T10:57:24Z</time>
      </trkpt>
      <trkpt lat="43.98171" lon="5.5094">
        <ele>1053.634</ele>
        <time>2011-04-10T10:57:34Z</time>
      </trkpt>
      <trkpt lat="43.98171" lon="5.5094">
        <ele>1053.831</ele>
        <time>2011-04-10T10:57:44Z</time>
      </trkpt>
      <trkpt lat="43.98171" lon="5.5094">
        <ele>1053.685</ele>
        <time>2011-04-10T10:57:54Z</time>
      </trkpt>
      <trkpt lat="43.98171" lon="5.5094">
        <ele>1053.467</ele>
        <time>2011-04-10T10:58:04Z</time>
      </trkpt>
      <trkpt lat="43.98171" lon="5.5094">
        <ele>1053.477</ele>
        <time>2011-04-10T10:58:14Z</time>
      </trkpt>
      <trkpt lat="43.98171" lon="5.5094">
        <ele>1053.677</ele>
        <time>2011-04-10T10:58:24Z</time>
      </trkpt>
      <trkpt lat="43.98171" lon="5.5094">
        <ele>1053.655</ele>
        <time>2011-04-10T10:58:34Z</time>
      </trkpt>
      <trkpt lat="43.98171" lon="5.5094">
        <ele>1053.931</ele>
        <time>2011-04-10T10:58:44Z</time>
      </trkpt>
      <trkpt lat="43.98171" lon="5.5094">
        <ele>1054.235</ele>
        <time>2011-04-10T10:58:54Z</time>
      </trkpt>
      <trkpt lat="43.98171" lon="5.5094">
        <ele>1054.462</ele>
        <time>2011-04-10T10:59:04Z</time>
      </trkpt>
      <trkpt lat="43.98171" lon="5.5094">
        <ele>1054.07</ele>
        <time>2011-04-10T10:59:14Z</time>
      </trkpt>
      <trkpt lat="43.98171" lon="5.5094">
        <ele>1054.42</ele>
        <time>2011-04-10T10:59:24Z</time>
      </trkpt>
      <trkpt lat="43.98171" lon="5.5094">
        <ele>1054.251</ele>
        <time>2011-04-10T10:59:34Z</time>
      </trkpt>
      <trkpt lat="43.98171" lon="5.5094">
        <ele>1054.259</ele>
        <time>2011-04-10T10:59:44Z</time>
      </trkpt>
      <trkpt lat="43.98171" lon="5.5094">
        <ele>1054.191</ele>
        <time>2011-04-10T10:59:54Z</time>
      </trkpt>
      <trkpt lat="43.98171" lon="5.5094">
        <ele>1054.313</ele>
        <time>2011-04-10T11:00:04Z</time>
      </trkpt>
      <trkpt lat="43.98171" lon="5.5094">
        <ele>1054.392</ele>
        <time>2011-04-10T11:00:14Z</time>
      </trkpt>
      <trkpt lat="43.98171" lon="5.5094">
        <ele>1054.279</ele>
        <time>2011-04-10T11:00:24Z</time>
      </trkpt>
      <trkpt lat="43.98171" lon="5.5094">
        <ele>1054.851</ele>
        <time>2011-04-10T11:00:34Z</time>
      </trkpt>
      <trkpt lat="43.98171" lon="5.5094">
        <ele>1054.566</ele>
        <time>2011-04-10T11:00:44Z</time>
      </trkpt>
      <trkpt lat="43.98171" lon="5.5094">
        <ele>1054.691</ele>
        <time>2011-04-10T11:00:54Z</time>
      </trkpt>
      <trkpt lat="43.98172" lon="5.5094">
        <ele>1054.738</ele>
        <time>2011-04-10T11:01:04Z</time>
      </trkpt>
      <trkpt lat="43.98172" lon="5.5094">
        <ele>1054.407</ele>
        <time>2011-04-10T11:01:14Z</time>
      </trkpt>
      <trkpt lat="43.98172" lon="5.5094">
        <ele>1054.415</ele>
        <time>2011-04-10T11:01:24Z</time>
      </trkpt>
      <trkpt lat="43.98172" lon="5.5094">
        <ele>1055.22</ele>
        <time>2011-04-10T11:01:34Z</time>
      </trkpt>
      <trkpt lat="43.98171" lon="5.5094">
        <ele>1054.798</ele>
        <time>2011-04-10T11:01:44Z</time>
      </trkpt>
      <trkpt lat="43.98169" lon="5.5094">
        <ele>1055.154</ele>
        <time>2011-04-10T11:01:54Z</time>
      </trkpt>
      <trkpt lat="43.98168" lon="5.5094">
        <ele>1054.637</ele>
        <time>2011-04-10T11:02:04Z</time>
      </trkpt>
      <trkpt lat="43.98167" lon="5.5094">
        <ele>1054.872</ele>
        <time>2011-04-10T11:02:14Z</time>
      </trkpt>
      <trkpt lat="43.98165" lon="5.50939">
        <ele>1054.848</ele>
        <time>2011-04-10T11:02:24Z</time>
      </trkpt>
      <trkpt lat="43.98165" lon="5.50939">
        <ele>1054.679</ele>
        <time>2011-04-10T11:02:34Z</time>
      </trkpt>
      <trkpt lat="43.98165" lon="5.50941">
        <ele>1054.536</ele>
        <time>2011-04-10T11:02:44Z</time>
      </trkpt>
      <trkpt lat="43.98169" lon="5.50947">
        <ele>1054.204</ele>
        <time>2011-04-10T11:02:54Z</time>
      </trkpt>
      <trkpt lat="43.98167" lon="5.50948">
        <ele>1054.801</ele>
        <time>2011-04-10T11:03:04Z</time>
      </trkpt>
      <trkpt lat="43.98167" lon="5.50949">
        <ele>1054.751</ele>
        <time>2011-04-10T11:03:14Z</time>
      </trkpt>
      <trkpt lat="43.98167" lon="5.50947">
        <ele>1055.335</ele>
        <time>2011-04-10T11:03:24Z</time>
      </trkpt>
      <trkpt lat="43.98169" lon="5.50945">
        <ele>1054.872</ele>
        <time>2011-04-10T11:03:34Z</time>
      </trkpt>
      <trkpt lat="43.98171" lon="5.50944">
        <ele>1054.891</ele>
        <time>2011-04-10T11:03:44Z</time>
      </trkpt>
      <trkpt lat="43.98174" lon="5.50943">
        <ele>1055.081</ele>
        <time>2011-04-10T11:03:54Z</time>
      </trkpt>
      <trkpt lat="43.98174" lon="5.50943">
        <ele>1054.714</ele>
        <time>2011-04-10T11:04:04Z</time>
      </trkpt>
      <trkpt lat="43.98173" lon="5.50946">
        <ele>1055.086</ele>
        <time>2011-04-10T11:04:14Z</time>
      </trkpt>
      <trkpt lat="43.98173" lon="5.50947">
        <ele>1054.872</ele>
        <time>2011-04-10T11:04:24Z</time>
      </trkpt>
      <trkpt lat="43.98174" lon="5.50946">
        <ele>1054.893</ele>
        <time>2011-04-10T11:04:34Z</time>
      </trkpt>
      <trkpt lat="43.98174" lon="5.50946">
        <ele>1054.753</ele>
        <time>2011-04-10T11:04:44Z</time>
      </trkpt>
      <trkpt lat="43.98171" lon="5.50942">
        <ele>1054.245</ele>
        <time>2011-04-10T11:04:54Z</time>
      </trkpt>
      <trkpt lat="43.98171" lon="5.50935">
        <ele>1054.29</ele>
        <time>2011-04-10T11:05:04Z</time>
      </trkpt>
      <trkpt lat="43.9817" lon="5.50936">
        <ele>1054.306</ele>
        <time>2011-04-10T11:05:14Z</time>
      </trkpt>
      <trkpt lat="43.98171" lon="5.50936">
        <ele>1054.351</ele>
        <time>2011-04-10T11:05:24Z</time>
      </trkpt>
      <trkpt lat="43.98171" lon="5.50936">
        <ele>1054.333</ele>
        <time>2011-04-10T11:05:34Z</time>
      </trkpt>
      <trkpt lat="43.98171" lon="5.50936">
        <ele>1054.831</ele>
        <time>2011-04-10T11:05:44Z</time>
      </trkpt>
      <trkpt lat="43.98171" lon="5.50936">
        <ele>1054.442</ele>
        <time>2011-04-10T11:05:54Z</time>
      </trkpt>
      <trkpt lat="43.98171" lon="5.50936">
        <ele>1054.515</ele>
        <time>2011-04-10T11:06:04Z</time>
      </trkpt>
      <trkpt lat="43.98171" lon="5.50936">
        <ele>1054.293</ele>
        <time>2011-04-10T11:06:14Z</time>
      </trkpt>
      <trkpt lat="43.98171" lon="5.50937">
        <ele>1054.475</ele>
        <time>2011-04-10T11:06:24Z</time>
      </trkpt>
      <trkpt lat="43.98171" lon="5.50937">
        <ele>1054.486</ele>
        <time>2011-04-10T11:06:34Z</time>
      </trkpt>
      <trkpt lat="43.98171" lon="5.50937">
        <ele>1053.474</ele>
        <time>2011-04-10T11:06:44Z</time>
      </trkpt>
      <trkpt lat="43.98171" lon="5.50937">
        <ele>1054.923</ele>
        <time>2011-04-10T11:06:54Z</time>
      </trkpt>
      <trkpt lat="43.98172" lon="5.50937">
        <ele>1055.186</ele>
        <time>2011-04-10T11:07:04Z</time>
      </trkpt>
      <trkpt lat="43.98172" lon="5.50937">
        <ele>1055.224</ele>
        <time>2011-04-10T11:07:14Z</time>
      </trkpt>
      <trkpt lat="43.98172" lon="5.50937">
        <ele>1055.538</ele>
        <time>2011-04-10T11:07:24Z</time>
      </trkpt>
      <trkpt lat="43.98172" lon="5.50937">
        <ele>1055.279</ele>
        <time>2011-04-10T11:07:34Z</time>
      </trkpt>
      <trkpt lat="43.98172" lon="5.50937">
        <ele>1055.074</ele>
        <time>2011-04-10T11:07:44Z</time>
      </trkpt>
      <trkpt lat="43.98172" lon="5.50937">
        <ele>1055.648</ele>
        <time>2011-04-10T11:07:54Z</time>
      </trkpt>
      <trkpt lat="43.98172" lon="5.50937">
        <ele>1054.891</ele>
        <time>2011-04-10T11:08:04Z</time>
      </trkpt>
      <trkpt lat="43.98172" lon="5.50937">
        <ele>1055.692</ele>
        <time>2011-04-10T11:08:14Z</time>
      </trkpt>
      <trkpt lat="43.98172" lon="5.50937">
        <ele>1055.661</ele>
        <time>2011-04-10T11:08:24Z</time>
      </trkpt>
      <trkpt lat="43.98172" lon="5.50937">
        <ele>1055.838</ele>
        <time>2011-04-10T11:08:34Z</time>
      </trkpt>
      <trkpt lat="43.98172" lon="5.50937">
        <ele>1055.988</ele>
        <time>2011-04-10T11:08:44Z</time>
      </trkpt>
      <trkpt lat="43.98172" lon="5.50937">
        <ele>1056.124</ele>
        <time>2011-04-10T11:08:54Z</time>
      </trkpt>
      <trkpt lat="43.98172" lon="5.50937">
        <ele>1056.109</ele>
        <time>2011-04-10T11:09:04Z</time>
      </trkpt>
      <trkpt lat="43.98172" lon="5.50937">
        <ele>1055.958</ele>
        <time>2011-04-10T11:09:14Z</time>
      </trkpt>
      <trkpt lat="43.98172" lon="5.50937">
        <ele>1055.959</ele>
        <time>2011-04-10T11:09:24Z</time>
      </trkpt>
      <trkpt lat="43.98172" lon="5.50937">
        <ele>1056.392</ele>
        <time>2011-04-10T11:09:34Z</time>
      </trkpt>
      <trkpt lat="43.98172" lon="5.50937">
        <ele>1056.674</ele>
        <time>2011-04-10T11:09:44Z</time>
      </trkpt>
      <trkpt lat="43.98174" lon="5.50947">
        <ele>1056.641</ele>
        <time>2011-04-10T11:09:54Z</time>
      </trkpt>
      <trkpt lat="43.98172" lon="5.50955">
        <ele>1056.353</ele>
        <time>2011-04-10T11:10:04Z</time>
      </trkpt>
      <trkpt lat="43.98171" lon="5.50957">
        <ele>1056.053</ele>
        <time>2011-04-10T11:10:14Z</time>
      </trkpt>
      <trkpt lat="43.98173" lon="5.50968">
        <ele>1055.487</ele>
        <time>2011-04-10T11:10:24Z</time>
      </trkpt>
      <trkpt lat="43.98177" lon="5.50975">
        <ele>1054.297</ele>
        <time>2011-04-10T11:10:34Z</time>
      </trkpt>
      <trkpt lat="43.98178" lon="5.50978">
        <ele>1054.379</ele>
        <time>2011-04-10T11:10:44Z</time>
      </trkpt>
      <trkpt lat="43.98178" lon="5.50978">
        <ele>1054.034</ele>
        <time>2011-04-10T11:10:54Z</time>
      </trkpt>
      <trkpt lat="43.98178" lon="5.50978">
        <ele>1054.337</ele>
        <time>2011-04-10T11:11:04Z</time>
      </trkpt>
      <trkpt lat="43.98178" lon="5.50978">
        <ele>1054.659</ele>
        <time>2011-04-10T11:11:14Z</time>
      </trkpt>
      <trkpt lat="43.98178" lon="5.50978">
        <ele>1054.226</ele>
        <time>2011-04-10T11:11:24Z</time>
      </trkpt>
      <trkpt lat="43.98178" lon="5.50978">
        <ele>1054.606</ele>
        <time>2011-04-10T11:11:34Z</time>
      </trkpt>
      <trkpt lat="43.98178" lon="5.50978">
        <ele>1054.606</ele>
        <time>2011-04-10T11:11:44Z</time>
      </trkpt>
      <trkpt lat="43.98172" lon="5.50975">
        <ele>1054.629</ele>
        <time>2011-04-10T11:11:54Z</time>
      </trkpt>
      <trkpt lat="43.98171" lon="5.50975">
        <ele>1054.469</ele>
        <time>2011-04-10T11:12:04Z</time>
      </trkpt>
      <trkpt lat="43.98171" lon="5.50975">
        <ele>1054.48</ele>
        <time>2011-04-10T11:12:14Z</time>
      </trkpt>
      <trkpt lat="43.98171" lon="5.50975">
        <ele>1054.909</ele>
        <time>2011-04-10T11:12:24Z</time>
      </trkpt>
      <trkpt lat="43.98171" lon="5.50975">
        <ele>1054.851</ele>
        <time>2011-04-10T11:12:34Z</time>
      </trkpt>
      <trkpt lat="43.98171" lon="5.50976">
        <ele>1054.136</ele>
        <time>2011-04-10T11:12:44Z</time>
      </trkpt>
      <trkpt lat="43.98176" lon="5.50976">
        <ele>1054.731</ele>
        <time>2011-04-10T11:12:54Z</time>
      </trkpt>
      <trkpt lat="43.98177" lon="5.50975">
        <ele>1055.572</ele>
        <time>2011-04-10T11:13:04Z</time>
      </trkpt>
      <trkpt lat="43.98183" lon="5.50966">
        <ele>1056.412</ele>
        <time>2011-04-10T11:13:14Z</time>
      </trkpt>
      <trkpt lat="43.98187" lon="5.50957">
        <ele>1057.256</ele>
        <time>2011-04-10T11:13:24Z</time>
      </trkpt>
      <trkpt lat="43.98189" lon="5.50946">
        <ele>1057.796</ele>
        <time>2011-04-10T11:13:34Z</time>
      </trkpt>
      <trkpt lat="43.98185" lon="5.50942">
        <ele>1058.257</ele>
        <time>2011-04-10T11:13:44Z</time>
      </trkpt>
      <trkpt lat="43.98182" lon="5.50944">
        <ele>1057.64</ele>
        <time>2011-04-10T11:13:54Z</time>
      </trkpt>
      <trkpt lat="43.98182" lon="5.50945">
        <ele>1058.054</ele>
        <time>2011-04-10T11:14:04Z</time>
      </trkpt>
      <trkpt lat="43.9818" lon="5.50943">
        <ele>1057.773</ele>
        <time>2011-04-10T11:14:14Z</time>
      </trkpt>
      <trkpt lat="43.98178" lon="5.50946">
        <ele>1057.729</ele>
        <time>2011-04-10T11:14:24Z</time>
      </trkpt>
      <trkpt lat="43.98179" lon="5.50946">
        <ele>1057.82</ele>
        <time>2011-04-10T11:14:34Z</time>
      </trkpt>
      <trkpt lat="43.98179" lon="5.50945">
        <ele>1057.942</ele>
        <time>2011-04-10T11:14:44Z</time>
      </trkpt>
      <trkpt lat="43.98179" lon="5.50944">
        <ele>1057.111</ele>
        <time>2011-04-10T11:14:54Z</time>
      </trkpt>
      <trkpt lat="43.98177" lon="5.50942">
        <ele>1057.515</ele>
        <time>2011-04-10T11:15:04Z</time>
      </trkpt>
      <trkpt lat="43.98175" lon="5.50941">
        <ele>1057.092</ele>
        <time>2011-04-10T11:15:14Z</time>
      </trkpt>
      <trkpt lat="43.98175" lon="5.50941">
        <ele>1057.904</ele>
        <time>2011-04-10T11:15:24Z</time>
      </trkpt>
      <trkpt lat="43.98175" lon="5.50941">
        <ele>1056.575</ele>
        <time>2011-04-10T11:15:34Z</time>
      </trkpt>
      <trkpt lat="43.98175" lon="5.50941">
        <ele>1057.934</ele>
        <time>2011-04-10T11:15:44Z</time>
      </trkpt>
      <trkpt lat="43.98175" lon="5.50941">
        <ele>1056.771</ele>
        <time>2011-04-10T11:15:54Z</time>
      </trkpt>
      <trkpt lat="43.98175" lon="5.50941">
        <ele>1057.159</ele>
        <time>2011-04-10T11:16:04Z</time>
      </trkpt>
      <trkpt lat="43.98176" lon="5.50941">
        <ele>1057.296</ele>
        <time>2011-04-10T11:16:14Z</time>
      </trkpt>
      <trkpt lat="43.98175" lon="5.50941">
        <ele>1058.073</ele>
        <time>2011-04-10T11:16:24Z</time>
      </trkpt>
      <trkpt lat="43.98175" lon="5.50941">
        <ele>1058.164</ele>
        <time>2011-04-10T11:16:34Z</time>
      </trkpt>
      <trkpt lat="43.98175" lon="5.50941">
        <ele>1058.013</ele>
        <time>2011-04-10T11:16:44Z</time>
      </trkpt>
      <trkpt lat="43.98175" lon="5.50941">
        <ele>1057.098</ele>
        <time>2011-04-10T11:16:54Z</time>
      </trkpt>
      <trkpt lat="43.98176" lon="5.50941">
        <ele>1058.492</ele>
        <time>2011-04-10T11:17:04Z</time>
      </trkpt>
      <trkpt lat="43.98176" lon="5.50941">
        <ele>1057.698</ele>
        <time>2011-04-10T11:17:14Z</time>
      </trkpt>
      <trkpt lat="43.98176" lon="5.50941">
        <ele>1057.874</ele>
        <time>2011-04-10T11:17:24Z</time>
      </trkpt>
      <trkpt lat="43.98176" lon="5.50941">
        <ele>1057.074</ele>
        <time>2011-04-10T11:17:34Z</time>
      </trkpt>
      <trkpt lat="43.98176" lon="5.50941">
        <ele>1057.546</ele>
        <time>2011-04-10T11:17:44Z</time>
      </trkpt>
      <trkpt lat="43.98176" lon="5.50941">
        <ele>1058.715</ele>
        <time>2011-04-10T11:17:54Z</time>
      </trkpt>
      <trkpt lat="43.98176" lon="5.50941">
        <ele>1058.16</ele>
        <time>2011-04-10T11:18:04Z</time>
      </trkpt>
      <trkpt lat="43.98176" lon="5.50941">
        <ele>1058.036</ele>
        <time>2011-04-10T11:18:14Z</time>
      </trkpt>
      <trkpt lat="43.98176" lon="5.50941">
        <ele>1058.3</ele>
        <time>2011-04-10T11:18:24Z</time>
      </trkpt>
      <trkpt lat="43.98176" lon="5.50941">
        <ele>1058.274</ele>
        <time>2011-04-10T11:18:34Z</time>
      </trkpt>
      <trkpt lat="43.98176" lon="5.50941">
        <ele>1058.703</ele>
        <time>2011-04-10T11:18:44Z</time>
      </trkpt>
      <trkpt lat="43.98176" lon="5.50941">
        <ele>1058.261</ele>
        <time>2011-04-10T11:18:56Z</time>
      </trkpt>
      <trkpt lat="43.98176" lon="5.50941">
        <ele>1058.851</ele>
        <time>2011-04-10T11:19:06Z</time>
      </trkpt>
      <trkpt lat="43.98176" lon="5.50941">
        <ele>1058.164</ele>
        <time>2011-04-10T11:19:16Z</time>
      </trkpt>
      <trkpt lat="43.98176" lon="5.50941">
        <ele>1058.228</ele>
        <time>2011-04-10T11:19:26Z</time>
      </trkpt>
      <trkpt lat="43.98176" lon="5.50941">
        <ele>1058.39</ele>
        <time>2011-04-10T11:19:36Z</time>
      </trkpt>
      <trkpt lat="43.98176" lon="5.50941">
        <ele>1058.303</ele>
        <time>2011-04-10T11:19:46Z</time>
      </trkpt>
      <trkpt lat="43.98176" lon="5.50941">
        <ele>1057.636</ele>
        <time>2011-04-10T11:19:56Z</time>
      </trkpt>
      <trkpt lat="43.98176" lon="5.50941">
        <ele>1058.051</ele>
        <time>2011-04-10T11:20:14Z</time>
      </trkpt>
      <trkpt lat="43.98176" lon="5.50941">
        <ele>1058.035</ele>
        <time>2011-04-10T11:20:24Z</time>
      </trkpt>
      <trkpt lat="43.98176" lon="5.50941">
        <ele>1058.044</ele>
        <time>2011-04-10T11:20:34Z</time>
      </trkpt>
      <trkpt lat="43.98176" lon="5.50941">
        <ele>1057.857</ele>
        <time>2011-04-10T11:20:44Z</time>
      </trkpt>
      <trkpt lat="43.98176" lon="5.50941">
        <ele>1058.286</ele>
        <time>2011-04-10T11:20:54Z</time>
      </trkpt>
      <trkpt lat="43.98176" lon="5.50941">
        <ele>1058.108</ele>
        <time>2011-04-10T11:21:04Z</time>
      </trkpt>
      <trkpt lat="43.98176" lon="5.50941">
        <ele>1057.535</ele>
        <time>2011-04-10T11:21:14Z</time>
      </trkpt>
      <trkpt lat="43.98176" lon="5.50941">
        <ele>1058.244</ele>
        <time>2011-04-10T11:21:24Z</time>
      </trkpt>
      <trkpt lat="43.98176" lon="5.50941">
        <ele>1058.192</ele>
        <time>2011-04-10T11:21:34Z</time>
      </trkpt>
      <trkpt lat="43.98176" lon="5.50941">
        <ele>1057.55</ele>
        <time>2011-04-10T11:21:44Z</time>
      </trkpt>
      <trkpt lat="43.98176" lon="5.50941">
        <ele>1058.074</ele>
        <time>2011-04-10T11:21:54Z</time>
      </trkpt>
      <trkpt lat="43.98176" lon="5.50941">
        <ele>1057.718</ele>
        <time>2011-04-10T11:22:04Z</time>
      </trkpt>
      <trkpt lat="43.98176" lon="5.50941">
        <ele>1058.496</ele>
        <time>2011-04-10T11:22:14Z</time>
      </trkpt>
      <trkpt lat="43.98176" lon="5.50941">
        <ele>1057.888</ele>
        <time>2011-04-10T11:22:24Z</time>
      </trkpt>
      <trkpt lat="43.98176" lon="5.50941">
        <ele>1058.235</ele>
        <time>2011-04-10T11:22:34Z</time>
      </trkpt>
      <trkpt lat="43.98176" lon="5.50941">
        <ele>1058.146</ele>
        <time>2011-04-10T11:22:44Z</time>
      </trkpt>
      <trkpt lat="43.98176" lon="5.50941">
        <ele>1057.929</ele>
        <time>2011-04-10T11:22:54Z</time>
      </trkpt>
      <trkpt lat="43.98176" lon="5.50941">
        <ele>1058.276</ele>
        <time>2011-04-10T11:23:04Z</time>
      </trkpt>
      <trkpt lat="43.98176" lon="5.50941">
        <ele>1058.379</ele>
        <time>2011-04-10T11:23:14Z</time>
      </trkpt>
      <trkpt lat="43.98176" lon="5.50941">
        <ele>1058.316</ele>
        <time>2011-04-10T11:23:24Z</time>
      </trkpt>
      <trkpt lat="43.98176" lon="5.50941">
        <ele>1058.347</ele>
        <time>2011-04-10T11:23:34Z</time>
      </trkpt>
      <trkpt lat="43.98176" lon="5.50941">
        <ele>1059.275</ele>
        <time>2011-04-10T11:23:44Z</time>
      </trkpt>
      <trkpt lat="43.98176" lon="5.50941">
        <ele>1058.791</ele>
        <time>2011-04-10T11:23:54Z</time>
      </trkpt>
      <trkpt lat="43.98177" lon="5.50941">
        <ele>1059.036</ele>
        <time>2011-04-10T11:24:04Z</time>
      </trkpt>
      <trkpt lat="43.98178" lon="5.5094">
        <ele>1058.218</ele>
        <time>2011-04-10T11:24:14Z</time>
      </trkpt>
      <trkpt lat="43.9818" lon="5.50943">
        <ele>1058.724</ele>
        <time>2011-04-10T11:24:24Z</time>
      </trkpt>
      <trkpt lat="43.9818" lon="5.50943">
        <ele>1058.442</ele>
        <time>2011-04-10T11:24:34Z</time>
      </trkpt>
      <trkpt lat="43.98184" lon="5.50943">
        <ele>1059.363</ele>
        <time>2011-04-10T11:24:44Z</time>
      </trkpt>
      <trkpt lat="43.98182" lon="5.50943">
        <ele>1058.694</ele>
        <time>2011-04-10T11:24:54Z</time>
      </trkpt>
      <trkpt lat="43.98183" lon="5.50941">
        <ele>1058.58</ele>
        <time>2011-04-10T11:25:04Z</time>
      </trkpt>
      <trkpt lat="43.9818" lon="5.50935">
        <ele>1059.02</ele>
        <time>2011-04-10T11:25:14Z</time>
      </trkpt>
      <trkpt lat="43.98182" lon="5.50937">
        <ele>1058.765</ele>
        <time>2011-04-10T11:25:24Z</time>
      </trkpt>
      <trkpt lat="43.98182" lon="5.50939">
        <ele>1058.228</ele>
        <time>2011-04-10T11:25:34Z</time>
      </trkpt>
      <trkpt lat="43.98183" lon="5.5094">
        <ele>1059.247</ele>
        <time>2011-04-10T11:25:44Z</time>
      </trkpt>
      <trkpt lat="43.98184" lon="5.50941">
        <ele>1059.153</ele>
        <time>2011-04-10T11:25:54Z</time>
      </trkpt>
      <trkpt lat="43.98184" lon="5.50941">
        <ele>1058.7</ele>
        <time>2011-04-10T11:26:04Z</time>
      </trkpt>
      <trkpt lat="43.98184" lon="5.50941">
        <ele>1058.797</ele>
        <time>2011-04-10T11:26:14Z</time>
      </trkpt>
      <trkpt lat="43.98184" lon="5.50941">
        <ele>1058.688</ele>
        <time>2011-04-10T11:26:24Z</time>
      </trkpt>
      <trkpt lat="43.98184" lon="5.50941">
        <ele>1058.38</ele>
        <time>2011-04-10T11:26:34Z</time>
      </trkpt>
      <trkpt lat="43.98184" lon="5.50941">
        <ele>1058.254</ele>
        <time>2011-04-10T11:26:44Z</time>
      </trkpt>
      <trkpt lat="43.98184" lon="5.50941">
        <ele>1058.228</ele>
        <time>2011-04-10T11:26:54Z</time>
      </trkpt>
      <trkpt lat="43.98184" lon="5.50941">
        <ele>1057.868</ele>
        <time>2011-04-10T11:27:04Z</time>
      </trkpt>
      <trkpt lat="43.98184" lon="5.50941">
        <ele>1058.473</ele>
        <time>2011-04-10T11:27:15Z</time>
      </trkpt>
      <trkpt lat="43.98184" lon="5.50941">
        <ele>1058.342</ele>
        <time>2011-04-10T11:27:25Z</time>
      </trkpt>
      <trkpt lat="43.98184" lon="5.50941">
        <ele>1058.37</ele>
        <time>2011-04-10T11:27:35Z</time>
      </trkpt>
      <trkpt lat="43.98184" lon="5.50941">
        <ele>1058.468</ele>
        <time>2011-04-10T11:27:45Z</time>
      </trkpt>
      <trkpt lat="43.98184" lon="5.50941">
        <ele>1058.236</ele>
        <time>2011-04-10T11:27:55Z</time>
      </trkpt>
      <trkpt lat="43.98184" lon="5.50941">
        <ele>1058.421</ele>
        <time>2011-04-10T11:28:05Z</time>
      </trkpt>
      <trkpt lat="43.98184" lon="5.50941">
        <ele>1058.256</ele>
        <time>2011-04-10T11:28:15Z</time>
      </trkpt>
      <trkpt lat="43.98184" lon="5.50941">
        <ele>1058.042</ele>
        <time>2011-04-10T11:28:25Z</time>
      </trkpt>
      <trkpt lat="43.98184" lon="5.50941">
        <ele>1059.032</ele>
        <time>2011-04-10T11:28:35Z</time>
      </trkpt>
      <trkpt lat="43.98184" lon="5.50941">
        <ele>1058.952</ele>
        <time>2011-04-10T11:28:45Z</time>
      </trkpt>
      <trkpt lat="43.98184" lon="5.50941">
        <ele>1059.746</ele>
        <time>2011-04-10T11:28:55Z</time>
      </trkpt>
      <trkpt lat="43.98184" lon="5.50941">
        <ele>1059.748</ele>
        <time>2011-04-10T11:29:05Z</time>
      </trkpt>
      <trkpt lat="43.98184" lon="5.50941">
        <ele>1058.688</ele>
        <time>2011-04-10T11:29:15Z</time>
      </trkpt>
      <trkpt lat="43.98184" lon="5.50941">
        <ele>1059.611</ele>
        <time>2011-04-10T11:29:25Z</time>
      </trkpt>
      <trkpt lat="43.98184" lon="5.50941">
        <ele>1059.194</ele>
        <time>2011-04-10T11:29:35Z</time>
      </trkpt>
      <trkpt lat="43.98184" lon="5.50941">
        <ele>1058.79</ele>
        <time>2011-04-10T11:29:45Z</time>
      </trkpt>
      <trkpt lat="43.98184" lon="5.50941">
        <ele>1059.021</ele>
        <time>2011-04-10T11:29:55Z</time>
      </trkpt>
      <trkpt lat="43.98184" lon="5.50941">
        <ele>1059.839</ele>
        <time>2011-04-10T11:30:05Z</time>
      </trkpt>
      <trkpt lat="43.98184" lon="5.50941">
        <ele>1059.085</ele>
        <time>2011-04-10T11:30:15Z</time>
      </trkpt>
      <trkpt lat="43.98184" lon="5.50942">
        <ele>1059.658</ele>
        <time>2011-04-10T11:30:25Z</time>
      </trkpt>
      <trkpt lat="43.98184" lon="5.50941">
        <ele>1059.971</ele>
        <time>2011-04-10T11:30:35Z</time>
      </trkpt>
      <trkpt lat="43.98184" lon="5.50942">
        <ele>1060.188</ele>
        <time>2011-04-10T11:30:45Z</time>
      </trkpt>
      <trkpt lat="43.98184" lon="5.50942">
        <ele>1059.119</ele>
        <time>2011-04-10T11:30:55Z</time>
      </trkpt>
      <trkpt lat="43.98184" lon="5.50942">
        <ele>1059.663</ele>
        <time>2011-04-10T11:31:05Z</time>
      </trkpt>
      <trkpt lat="43.98185" lon="5.50942">
        <ele>1058.693</ele>
        <time>2011-04-10T11:31:15Z</time>
      </trkpt>
      <trkpt lat="43.98181" lon="5.50942">
        <ele>1059.094</ele>
        <time>2011-04-10T11:31:25Z</time>
      </trkpt>
      <trkpt lat="43.98179" lon="5.50939">
        <ele>1058.864</ele>
        <time>2011-04-10T11:31:35Z</time>
      </trkpt>
      <trkpt lat="43.98181" lon="5.50939">
        <ele>1058.495</ele>
        <time>2011-04-10T11:31:45Z</time>
      </trkpt>
      <trkpt lat="43.98181" lon="5.5094">
        <ele>1059.042</ele>
        <time>2011-04-10T11:31:55Z</time>
      </trkpt>
      <trkpt lat="43.98181" lon="5.5094">
        <ele>1059.298</ele>
        <time>2011-04-10T11:32:05Z</time>
      </trkpt>
      <trkpt lat="43.98181" lon="5.5094">
        <ele>1059.312</ele>
        <time>2011-04-10T11:32:15Z</time>
      </trkpt>
      <trkpt lat="43.98181" lon="5.5094">
        <ele>1059.086</ele>
        <time>2011-04-10T11:32:25Z</time>
      </trkpt>
      <trkpt lat="43.98181" lon="5.5094">
        <ele>1058.855</ele>
        <time>2011-04-10T11:32:35Z</time>
      </trkpt>
      <trkpt lat="43.98181" lon="5.5094">
        <ele>1059.353</ele>
        <time>2011-04-10T11:32:45Z</time>
      </trkpt>
      <trkpt lat="43.98181" lon="5.5094">
        <ele>1059.086</ele>
        <time>2011-04-10T11:32:55Z</time>
      </trkpt>
      <trkpt lat="43.98181" lon="5.5094">
        <ele>1059.1</ele>
        <time>2011-04-10T11:33:05Z</time>
      </trkpt>
      <trkpt lat="43.98181" lon="5.5094">
        <ele>1059.109</ele>
        <time>2011-04-10T11:33:15Z</time>
      </trkpt>
      <trkpt lat="43.98181" lon="5.5094">
        <ele>1059.25</ele>
        <time>2011-04-10T11:33:25Z</time>
      </trkpt>
      <trkpt lat="43.98181" lon="5.5094">
        <ele>1059.47</ele>
        <time>2011-04-10T11:33:35Z</time>
      </trkpt>
      <trkpt lat="43.98181" lon="5.5094">
        <ele>1059.627</ele>
        <time>2011-04-10T11:33:45Z</time>
      </trkpt>
      <trkpt lat="43.98181" lon="5.5094">
        <ele>1059.54</ele>
        <time>2011-04-10T11:33:55Z</time>
      </trkpt>
      <trkpt lat="43.98181" lon="5.5094">
        <ele>1059.385</ele>
        <time>2011-04-10T11:34:05Z</time>
      </trkpt>
      <trkpt lat="43.98181" lon="5.5094">
        <ele>1058.966</ele>
        <time>2011-04-10T11:34:15Z</time>
      </trkpt>
      <trkpt lat="43.98181" lon="5.5094">
        <ele>1059.252</ele>
        <time>2011-04-10T11:34:25Z</time>
      </trkpt>
      <trkpt lat="43.98181" lon="5.5094">
        <ele>1059.116</ele>
        <time>2011-04-10T11:34:35Z</time>
      </trkpt>
      <trkpt lat="43.98182" lon="5.5094">
        <ele>1058.997</ele>
        <time>2011-04-10T11:34:45Z</time>
      </trkpt>
      <trkpt lat="43.98182" lon="5.5094">
        <ele>1059.18</ele>
        <time>2011-04-10T11:34:55Z</time>
      </trkpt>
      <trkpt lat="43.98182" lon="5.5094">
        <ele>1059.239</ele>
        <time>2011-04-10T11:35:05Z</time>
      </trkpt>
      <trkpt lat="43.98182" lon="5.5094">
        <ele>1058.965</ele>
        <time>2011-04-10T11:35:15Z</time>
      </trkpt>
      <trkpt lat="43.98182" lon="5.5094">
        <ele>1059.455</ele>
        <time>2011-04-10T11:35:25Z</time>
      </trkpt>
      <trkpt lat="43.98182" lon="5.5094">
        <ele>1059.396</ele>
        <time>2011-04-10T11:35:35Z</time>
      </trkpt>
      <trkpt lat="43.98182" lon="5.5094">
        <ele>1059.249</ele>
        <time>2011-04-10T11:35:45Z</time>
      </trkpt>
      <trkpt lat="43.98182" lon="5.5094">
        <ele>1059.469</ele>
        <time>2011-04-10T11:35:55Z</time>
      </trkpt>
      <trkpt lat="43.98182" lon="5.5094">
        <ele>1059.685</ele>
        <time>2011-04-10T11:36:05Z</time>
      </trkpt>
      <trkpt lat="43.98182" lon="5.5094">
        <ele>1059.125</ele>
        <time>2011-04-10T11:36:15Z</time>
      </trkpt>
      <trkpt lat="43.98182" lon="5.5094">
        <ele>1059.506</ele>
        <time>2011-04-10T11:36:25Z</time>
      </trkpt>
      <trkpt lat="43.98182" lon="5.5094">
        <ele>1059.673</ele>
        <time>2011-04-10T11:36:35Z</time>
      </trkpt>
      <trkpt lat="43.98182" lon="5.5094">
        <ele>1059.576</ele>
        <time>2011-04-10T11:36:45Z</time>
      </trkpt>
      <trkpt lat="43.98182" lon="5.5094">
        <ele>1059.307</ele>
        <time>2011-04-10T11:36:55Z</time>
      </trkpt>
      <trkpt lat="43.98182" lon="5.5094">
        <ele>1059.402</ele>
        <time>2011-04-10T11:37:05Z</time>
      </trkpt>
      <trkpt lat="43.98182" lon="5.5094">
        <ele>1059.115</ele>
        <time>2011-04-10T11:37:15Z</time>
      </trkpt>
      <trkpt lat="43.98182" lon="5.5094">
        <ele>1059.431</ele>
        <time>2011-04-10T11:37:25Z</time>
      </trkpt>
      <trkpt lat="43.98182" lon="5.5094">
        <ele>1059.329</ele>
        <time>2011-04-10T11:37:35Z</time>
      </trkpt>
      <trkpt lat="43.98182" lon="5.5094">
        <ele>1059.344</ele>
        <time>2011-04-10T11:37:45Z</time>
      </trkpt>
      <trkpt lat="43.98182" lon="5.5094">
        <ele>1059.22</ele>
        <time>2011-04-10T11:37:55Z</time>
      </trkpt>
      <trkpt lat="43.98182" lon="5.5094">
        <ele>1059.437</ele>
        <time>2011-04-10T11:38:05Z</time>
      </trkpt>
      <trkpt lat="43.98182" lon="5.5094">
        <ele>1059.199</ele>
        <time>2011-04-10T11:38:15Z</time>
      </trkpt>
      <trkpt lat="43.98182" lon="5.5094">
        <ele>1059.564</ele>
        <time>2011-04-10T11:38:25Z</time>
      </trkpt>
      <trkpt lat="43.98182" lon="5.5094">
        <ele>1059.524</ele>
        <time>2011-04-10T11:38:35Z</time>
      </trkpt>
      <trkpt lat="43.98182" lon="5.5094">
        <ele>1059.169</ele>
        <time>2011-04-10T11:38:45Z</time>
      </trkpt>
      <trkpt lat="43.98182" lon="5.5094">
        <ele>1059.296</ele>
        <time>2011-04-10T11:38:55Z</time>
      </trkpt>
      <trkpt lat="43.98182" lon="5.5094">
        <ele>1059.188</ele>
        <time>2011-04-10T11:39:05Z</time>
      </trkpt>
      <trkpt lat="43.98182" lon="5.5094">
        <ele>1059.727</ele>
        <time>2011-04-10T11:39:15Z</time>
      </trkpt>
      <trkpt lat="43.98182" lon="5.5094">
        <ele>1059.462</ele>
        <time>2011-04-10T11:39:25Z</time>
      </trkpt>
      <trkpt lat="43.9818" lon="5.50941">
        <ele>1059.798</ele>
        <time>2011-04-10T11:39:35Z</time>
      </trkpt>
      <trkpt lat="43.9818" lon="5.50942">
        <ele>1059.716</ele>
        <time>2011-04-10T11:39:45Z</time>
      </trkpt>
      <trkpt lat="43.98181" lon="5.50945">
        <ele>1059.441</ele>
        <time>2011-04-10T11:39:55Z</time>
      </trkpt>
      <trkpt lat="43.98181" lon="5.50945">
        <ele>1059.043</ele>
        <time>2011-04-10T11:40:05Z</time>
      </trkpt>
      <trkpt lat="43.98182" lon="5.50944">
        <ele>1059.635</ele>
        <time>2011-04-10T11:40:15Z</time>
      </trkpt>
      <trkpt lat="43.98182" lon="5.50944">
        <ele>1059.628</ele>
        <time>2011-04-10T11:40:25Z</time>
      </trkpt>
      <trkpt lat="43.98181" lon="5.50939">
        <ele>1059.576</ele>
        <time>2011-04-10T11:40:35Z</time>
      </trkpt>
      <trkpt lat="43.98184" lon="5.50936">
        <ele>1060.337</ele>
        <time>2011-04-10T11:40:45Z</time>
      </trkpt>
      <trkpt lat="43.98182" lon="5.50928">
        <ele>1060.273</ele>
        <time>2011-04-10T11:40:55Z</time>
      </trkpt>
      <trkpt lat="43.98182" lon="5.50926">
        <ele>1060.823</ele>
        <time>2011-04-10T11:41:05Z</time>
      </trkpt>
      <trkpt lat="43.98183" lon="5.50929">
        <ele>1060.532</ele>
        <time>2011-04-10T11:41:15Z</time>
      </trkpt>
      <trkpt lat="43.98182" lon="5.5093">
        <ele>1060.18</ele>
        <time>2011-04-10T11:41:25Z</time>
      </trkpt>
      <trkpt lat="43.98182" lon="5.50931">
        <ele>1060.406</ele>
        <time>2011-04-10T11:41:35Z</time>
      </trkpt>
      <trkpt lat="43.98182" lon="5.50931">
        <ele>1061.077</ele>
        <time>2011-04-10T11:41:45Z</time>
      </trkpt>
      <trkpt lat="43.98182" lon="5.50931">
        <ele>1060.613</ele>
        <time>2011-04-10T11:41:55Z</time>
      </trkpt>
      <trkpt lat="43.98182" lon="5.50931">
        <ele>1060.402</ele>
        <time>2011-04-10T11:42:05Z</time>
      </trkpt>
      <trkpt lat="43.98182" lon="5.50931">
        <ele>1060.06</ele>
        <time>2011-04-10T11:42:15Z</time>
      </trkpt>
      <trkpt lat="43.98182" lon="5.50931">
        <ele>1060.381</ele>
        <time>2011-04-10T11:42:25Z</time>
      </trkpt>
      <trkpt lat="43.98182" lon="5.50931">
        <ele>1060.006</ele>
        <time>2011-04-10T11:42:35Z</time>
      </trkpt>
      <trkpt lat="43.98182" lon="5.50931">
        <ele>1060.164</ele>
        <time>2011-04-10T11:42:45Z</time>
      </trkpt>
      <trkpt lat="43.98182" lon="5.5093">
        <ele>1060.478</ele>
        <time>2011-04-10T11:42:55Z</time>
      </trkpt>
      <trkpt lat="43.98182" lon="5.5093">
        <ele>1060.366</ele>
        <time>2011-04-10T11:43:05Z</time>
      </trkpt>
      <trkpt lat="43.98181" lon="5.50928">
        <ele>1060.141</ele>
        <time>2011-04-10T11:43:15Z</time>
      </trkpt>
      <trkpt lat="43.98175" lon="5.50924">
        <ele>1060.398</ele>
        <time>2011-04-10T11:43:25Z</time>
      </trkpt>
      <trkpt lat="43.98168" lon="5.5092">
        <ele>1060.449</ele>
        <time>2011-04-10T11:43:35Z</time>
      </trkpt>
      <trkpt lat="43.9816" lon="5.50916">
        <ele>1059.812</ele>
        <time>2011-04-10T11:43:45Z</time>
      </trkpt>
      <trkpt lat="43.98152" lon="5.50912">
        <ele>1059.205</ele>
        <time>2011-04-10T11:43:55Z</time>
      </trkpt>
      <trkpt lat="43.98145" lon="5.50909">
        <ele>1059.256</ele>
        <time>2011-04-10T11:44:05Z</time>
      </trkpt>
      <trkpt lat="43.98141" lon="5.50904">
        <ele>1059.568</ele>
        <time>2011-04-10T11:44:15Z</time>
      </trkpt>
      <trkpt lat="43.98141" lon="5.50904">
        <ele>1059.849</ele>
        <time>2011-04-10T11:44:25Z</time>
      </trkpt>
      <trkpt lat="43.98141" lon="5.50904">
        <ele>1059.26</ele>
        <time>2011-04-10T11:44:35Z</time>
      </trkpt>
      <trkpt lat="43.98141" lon="5.50904">
        <ele>1059.622</ele>
        <time>2011-04-10T11:44:45Z</time>
      </trkpt>
      <trkpt lat="43.98141" lon="5.50904">
        <ele>1059.456</ele>
        <time>2011-04-10T11:44:55Z</time>
      </trkpt>
      <trkpt lat="43.9814" lon="5.50903">
        <ele>1059.58</ele>
        <time>2011-04-10T11:45:05Z</time>
      </trkpt>
      <trkpt lat="43.98132" lon="5.509">
        <ele>1058.845</ele>
        <time>2011-04-10T11:45:15Z</time>
      </trkpt>
      <trkpt lat="43.98124" lon="5.50895">
        <ele>1060.012</ele>
        <time>2011-04-10T11:45:25Z</time>
      </trkpt>
      <trkpt lat="43.98121" lon="5.50892">
        <ele>1059.281</ele>
        <time>2011-04-10T11:45:35Z</time>
      </trkpt>
      <trkpt lat="43.9812" lon="5.5089">
        <ele>1059.204</ele>
        <time>2011-04-10T11:45:45Z</time>
      </trkpt>
      <trkpt lat="43.98111" lon="5.50887">
        <ele>1058.484</ele>
        <time>2011-04-10T11:45:55Z</time>
      </trkpt>
      <trkpt lat="43.98104" lon="5.50883">
        <ele>1058.6</ele>
        <time>2011-04-10T11:46:05Z</time>
      </trkpt>
      <trkpt lat="43.98095" lon="5.50883">
        <ele>1057.925</ele>
        <time>2011-04-10T11:46:15Z</time>
      </trkpt>
      <trkpt lat="43.98087" lon="5.50886">
        <ele>1058.21</ele>
        <time>2011-04-10T11:46:25Z</time>
      </trkpt>
      <trkpt lat="43.98077" lon="5.50886">
        <ele>1058.641</ele>
        <time>2011-04-10T11:46:35Z</time>
      </trkpt>
      <trkpt lat="43.98067" lon="5.50887">
        <ele>1057.916</ele>
        <time>2011-04-10T11:46:45Z</time>
      </trkpt>
      <trkpt lat="43.98058" lon="5.5089">
        <ele>1058.133</ele>
        <time>2011-04-10T11:46:55Z</time>
      </trkpt>
      <trkpt lat="43.98047" lon="5.5089">
        <ele>1058.282</ele>
        <time>2011-04-10T11:47:05Z</time>
      </trkpt>
      <trkpt lat="43.98036" lon="5.50891">
        <ele>1058.267</ele>
        <time>2011-04-10T11:47:15Z</time>
      </trkpt>
      <trkpt lat="43.98027" lon="5.50891">
        <ele>1058.148</ele>
        <time>2011-04-10T11:47:25Z</time>
      </trkpt>
      <trkpt lat="43.98017" lon="5.50893">
        <ele>1057.361</ele>
        <time>2011-04-10T11:47:35Z</time>
      </trkpt>
      <trkpt lat="43.98005" lon="5.50894">
        <ele>1057.793</ele>
        <time>2011-04-10T11:47:45Z</time>
      </trkpt>
      <trkpt lat="43.97995" lon="5.50897">
        <ele>1057.241</ele>
        <time>2011-04-10T11:47:55Z</time>
      </trkpt>
      <trkpt lat="43.97984" lon="5.50896">
        <ele>1057.318</ele>
        <time>2011-04-10T11:48:05Z</time>
      </trkpt>
      <trkpt lat="43.97974" lon="5.50896">
        <ele>1056.529</ele>
        <time>2011-04-10T11:48:15Z</time>
      </trkpt>
      <trkpt lat="43.97963" lon="5.50895">
        <ele>1056.449</ele>
        <time>2011-04-10T11:48:25Z</time>
      </trkpt>
      <trkpt lat="43.97953" lon="5.50893">
        <ele>1056.036</ele>
        <time>2011-04-10T11:48:35Z</time>
      </trkpt>
      <trkpt lat="43.97943" lon="5.50893">
        <ele>1054.918</ele>
        <time>2011-04-10T11:48:45Z</time>
      </trkpt>
      <trkpt lat="43.97935" lon="5.50893">
        <ele>1055.235</ele>
        <time>2011-04-10T11:48:55Z</time>
      </trkpt>
      <trkpt lat="43.97924" lon="5.50889">
        <ele>1054.396</ele>
        <time>2011-04-10T11:49:05Z</time>
      </trkpt>
      <trkpt lat="43.97914" lon="5.50878">
        <ele>1053.903</ele>
        <time>2011-04-10T11:49:15Z</time>
      </trkpt>
      <trkpt lat="43.97905" lon="5.50868">
        <ele>1053.682</ele>
        <time>2011-04-10T11:49:25Z</time>
      </trkpt>
      <trkpt lat="43.97896" lon="5.50855">
        <ele>1053.368</ele>
        <time>2011-04-10T11:49:35Z</time>
      </trkpt>
      <trkpt lat="43.97885" lon="5.50847">
        <ele>1053.929</ele>
        <time>2011-04-10T11:49:45Z</time>
      </trkpt>
      <trkpt lat="43.97876" lon="5.50841">
        <ele>1054.056</ele>
        <time>2011-04-10T11:49:55Z</time>
      </trkpt>
      <trkpt lat="43.97864" lon="5.50833">
        <ele>1054.22</ele>
        <time>2011-04-10T11:50:05Z</time>
      </trkpt>
      <trkpt lat="43.97852" lon="5.50829">
        <ele>1054.76</ele>
        <time>2011-04-10T11:50:15Z</time>
      </trkpt>
      <trkpt lat="43.97841" lon="5.50826">
        <ele>1054.904</ele>
        <time>2011-04-10T11:50:25Z</time>
      </trkpt>
      <trkpt lat="43.97833" lon="5.50822">
        <ele>1055.243</ele>
        <time>2011-04-10T11:50:35Z</time>
      </trkpt>
      <trkpt lat="43.97828" lon="5.50812">
        <ele>1056.327</ele>
        <time>2011-04-10T11:50:45Z</time>
      </trkpt>
      <trkpt lat="43.97818" lon="5.50799">
        <ele>1056.563</ele>
        <time>2011-04-10T11:50:55Z</time>
      </trkpt>
      <trkpt lat="43.97807" lon="5.50791">
        <ele>1057.268</ele>
        <time>2011-04-10T11:51:05Z</time>
      </trkpt>
      <trkpt lat="43.978" lon="5.50777">
        <ele>1058.431</ele>
        <time>2011-04-10T11:51:15Z</time>
      </trkpt>
      <trkpt lat="43.97791" lon="5.50768">
        <ele>1059.155</ele>
        <time>2011-04-10T11:51:25Z</time>
      </trkpt>
      <trkpt lat="43.97783" lon="5.50765">
        <ele>1060.452</ele>
        <time>2011-04-10T11:51:35Z</time>
      </trkpt>
      <trkpt lat="43.97774" lon="5.50767">
        <ele>1061.548</ele>
        <time>2011-04-10T11:51:45Z</time>
      </trkpt>
      <trkpt lat="43.97765" lon="5.50767">
        <ele>1062.072</ele>
        <time>2011-04-10T11:51:55Z</time>
      </trkpt>
      <trkpt lat="43.97753" lon="5.50768">
        <ele>1063.103</ele>
        <time>2011-04-10T11:52:05Z</time>
      </trkpt>
      <trkpt lat="43.97741" lon="5.50765">
        <ele>1063.746</ele>
        <time>2011-04-10T11:52:15Z</time>
      </trkpt>
      <trkpt lat="43.97731" lon="5.50761">
        <ele>1063.825</ele>
        <time>2011-04-10T11:52:25Z</time>
      </trkpt>
      <trkpt lat="43.97719" lon="5.50755">
        <ele>1063.936</ele>
        <time>2011-04-10T11:52:35Z</time>
      </trkpt>
      <trkpt lat="43.97708" lon="5.50749">
        <ele>1064.546</ele>
        <time>2011-04-10T11:52:45Z</time>
      </trkpt>
      <trkpt lat="43.97699" lon="5.5074">
        <ele>1065.685</ele>
        <time>2011-04-10T11:52:55Z</time>
      </trkpt>
      <trkpt lat="43.9769" lon="5.50728">
        <ele>1066.978</ele>
        <time>2011-04-10T11:53:05Z</time>
      </trkpt>
      <trkpt lat="43.97683" lon="5.50715">
        <ele>1068.446</ele>
        <time>2011-04-10T11:53:15Z</time>
      </trkpt>
      <trkpt lat="43.97677" lon="5.50702">
        <ele>1069.444</ele>
        <time>2011-04-10T11:53:25Z</time>
      </trkpt>
      <trkpt lat="43.97669" lon="5.5069">
        <ele>1070.224</ele>
        <time>2011-04-10T11:53:35Z</time>
      </trkpt>
      <trkpt lat="43.97663" lon="5.50678">
        <ele>1070.382</ele>
        <time>2011-04-10T11:53:45Z</time>
      </trkpt>
      <trkpt lat="43.97655" lon="5.50666">
        <ele>1071.897</ele>
        <time>2011-04-10T11:53:55Z</time>
      </trkpt>
      <trkpt lat="43.97648" lon="5.50655">
        <ele>1072.439</ele>
        <time>2011-04-10T11:54:05Z</time>
      </trkpt>
      <trkpt lat="43.97639" lon="5.50645">
        <ele>1072.589</ele>
        <time>2011-04-10T11:54:15Z</time>
      </trkpt>
      <trkpt lat="43.9763" lon="5.50639">
        <ele>1073.646</ele>
        <time>2011-04-10T11:54:25Z</time>
      </trkpt>
      <trkpt lat="43.97621" lon="5.50634">
        <ele>1074.49</ele>
        <time>2011-04-10T11:54:35Z</time>
      </trkpt>
      <trkpt lat="43.9761" lon="5.5063">
        <ele>1074.223</ele>
        <time>2011-04-10T11:54:45Z</time>
      </trkpt>
      <trkpt lat="43.97599" lon="5.50625">
        <ele>1076.164</ele>
        <time>2011-04-10T11:54:55Z</time>
      </trkpt>
      <trkpt lat="43.97589" lon="5.50616">
        <ele>1076.751</ele>
        <time>2011-04-10T11:55:05Z</time>
      </trkpt>
      <trkpt lat="43.97579" lon="5.50608">
        <ele>1077.387</ele>
        <time>2011-04-10T11:55:15Z</time>
      </trkpt>
      <trkpt lat="43.97572" lon="5.50599">
        <ele>1078.827</ele>
        <time>2011-04-10T11:55:25Z</time>
      </trkpt>
      <trkpt lat="43.9757" lon="5.50594">
        <ele>1079.24</ele>
        <time>2011-04-10T11:55:35Z</time>
      </trkpt>
      <trkpt lat="43.97561" lon="5.50588">
        <ele>1079.052</ele>
        <time>2011-04-10T11:55:45Z</time>
      </trkpt>
      <trkpt lat="43.9755" lon="5.50579">
        <ele>1079.75</ele>
        <time>2011-04-10T11:55:55Z</time>
      </trkpt>
      <trkpt lat="43.97549" lon="5.50577">
        <ele>1080.086</ele>
        <time>2011-04-10T11:56:05Z</time>
      </trkpt>
      <trkpt lat="43.97546" lon="5.50568">
        <ele>1080.822</ele>
        <time>2011-04-10T11:56:15Z</time>
      </trkpt>
      <trkpt lat="43.97543" lon="5.5055">
        <ele>1081.45</ele>
        <time>2011-04-10T11:56:25Z</time>
      </trkpt>
      <trkpt lat="43.9754" lon="5.50533">
        <ele>1082.183</ele>
        <time>2011-04-10T11:56:35Z</time>
      </trkpt>
      <trkpt lat="43.97538" lon="5.50516">
        <ele>1082.998</ele>
        <time>2011-04-10T11:56:45Z</time>
      </trkpt>
      <trkpt lat="43.97539" lon="5.50499">
        <ele>1084.367</ele>
        <time>2011-04-10T11:56:55Z</time>
      </trkpt>
      <trkpt lat="43.97537" lon="5.50481">
        <ele>1084.904</ele>
        <time>2011-04-10T11:57:05Z</time>
      </trkpt>
      <trkpt lat="43.97538" lon="5.50464">
        <ele>1086.117</ele>
        <time>2011-04-10T11:57:15Z</time>
      </trkpt>
      <trkpt lat="43.97537" lon="5.50447">
        <ele>1087.094</ele>
        <time>2011-04-10T11:57:25Z</time>
      </trkpt>
      <trkpt lat="43.97536" lon="5.50428">
        <ele>1088.036</ele>
        <time>2011-04-10T11:57:35Z</time>
      </trkpt>
      <trkpt lat="43.97537" lon="5.50409">
        <ele>1088.678</ele>
        <time>2011-04-10T11:57:45Z</time>
      </trkpt>
      <trkpt lat="43.97539" lon="5.5039">
        <ele>1089.495</ele>
        <time>2011-04-10T11:57:55Z</time>
      </trkpt>
      <trkpt lat="43.97541" lon="5.50373">
        <ele>1090.737</ele>
        <time>2011-04-10T11:58:05Z</time>
      </trkpt>
      <trkpt lat="43.9754" lon="5.50358">
        <ele>1092.4</ele>
        <time>2011-04-10T11:58:15Z</time>
      </trkpt>
      <trkpt lat="43.97537" lon="5.50345">
        <ele>1092.923</ele>
        <time>2011-04-10T11:58:25Z</time>
      </trkpt>
      <trkpt lat="43.9753" lon="5.50339">
        <ele>1092.665</ele>
        <time>2011-04-10T11:58:35Z</time>
      </trkpt>
      <trkpt lat="43.9752" lon="5.50341">
        <ele>1093.176</ele>
        <time>2011-04-10T11:58:45Z</time>
      </trkpt>
      <trkpt lat="43.97508" lon="5.50341">
        <ele>1093.719</ele>
        <time>2011-04-10T11:58:55Z</time>
      </trkpt>
      <trkpt lat="43.97497" lon="5.50341">
        <ele>1093.552</ele>
        <time>2011-04-10T11:59:05Z</time>
      </trkpt>
      <trkpt lat="43.97491" lon="5.50338">
        <ele>1094.332</ele>
        <time>2011-04-10T11:59:15Z</time>
      </trkpt>
      <trkpt lat="43.9749" lon="5.50332">
        <ele>1094.255</ele>
        <time>2011-04-10T11:59:25Z</time>
      </trkpt>
      <trkpt lat="43.9749" lon="5.50331">
        <ele>1094.036</ele>
        <time>2011-04-10T11:59:35Z</time>
      </trkpt>
      <trkpt lat="43.97489" lon="5.50328">
        <ele>1094.364</ele>
        <time>2011-04-10T11:59:45Z</time>
      </trkpt>
      <trkpt lat="43.97486" lon="5.50341">
        <ele>1093.086</ele>
        <time>2011-04-10T11:59:55Z</time>
      </trkpt>
      <trkpt lat="43.97479" lon="5.50352">
        <ele>1092.621</ele>
        <time>2011-04-10T12:00:05Z</time>
      </trkpt>
      <trkpt lat="43.97479" lon="5.50354">
        <ele>1092.523</ele>
        <time>2011-04-10T12:00:15Z</time>
      </trkpt>
      <trkpt lat="43.97479" lon="5.50351">
        <ele>1092.828</ele>
        <time>2011-04-10T12:00:25Z</time>
      </trkpt>
      <trkpt lat="43.97476" lon="5.5035">
        <ele>1092.907</ele>
        <time>2011-04-10T12:00:35Z</time>
      </trkpt>
      <trkpt lat="43.97476" lon="5.5035">
        <ele>1092.904</ele>
        <time>2011-04-10T12:00:45Z</time>
      </trkpt>
      <trkpt lat="43.97476" lon="5.5035">
        <ele>1093.226</ele>
        <time>2011-04-10T12:00:55Z</time>
      </trkpt>
      <trkpt lat="43.97476" lon="5.5035">
        <ele>1092.482</ele>
        <time>2011-04-10T12:01:05Z</time>
      </trkpt>
      <trkpt lat="43.97466" lon="5.5035">
        <ele>1093.094</ele>
        <time>2011-04-10T12:01:15Z</time>
      </trkpt>
      <trkpt lat="43.97455" lon="5.50349">
        <ele>1092.56</ele>
        <time>2011-04-10T12:01:25Z</time>
      </trkpt>
      <trkpt lat="43.97444" lon="5.50351">
        <ele>1092.707</ele>
        <time>2011-04-10T12:01:35Z</time>
      </trkpt>
      <trkpt lat="43.97435" lon="5.50351">
        <ele>1091.551</ele>
        <time>2011-04-10T12:01:45Z</time>
      </trkpt>
      <trkpt lat="43.97432" lon="5.5035">
        <ele>1093.88</ele>
        <time>2011-04-10T12:01:55Z</time>
      </trkpt>
      <trkpt lat="43.97431" lon="5.5035">
        <ele>1093.337</ele>
        <time>2011-04-10T12:02:05Z</time>
      </trkpt>
      <trkpt lat="43.97427" lon="5.50351">
        <ele>1090.973</ele>
        <time>2011-04-10T12:02:15Z</time>
      </trkpt>
      <trkpt lat="43.97416" lon="5.50353">
        <ele>1091.286</ele>
        <time>2011-04-10T12:02:25Z</time>
      </trkpt>
      <trkpt lat="43.97404" lon="5.50352">
        <ele>1090.98</ele>
        <time>2011-04-10T12:02:35Z</time>
      </trkpt>
      <trkpt lat="43.97391" lon="5.50355">
        <ele>1090.798</ele>
        <time>2011-04-10T12:02:45Z</time>
      </trkpt>
      <trkpt lat="43.97378" lon="5.50354">
        <ele>1090.78</ele>
        <time>2011-04-10T12:02:55Z</time>
      </trkpt>
      <trkpt lat="43.97367" lon="5.50352">
        <ele>1090.498</ele>
        <time>2011-04-10T12:03:05Z</time>
      </trkpt>
      <trkpt lat="43.97356" lon="5.50349">
        <ele>1090.224</ele>
        <time>2011-04-10T12:03:15Z</time>
      </trkpt>
      <trkpt lat="43.97345" lon="5.50346">
        <ele>1089.933</ele>
        <time>2011-04-10T12:03:25Z</time>
      </trkpt>
      <trkpt lat="43.9733" lon="5.50341">
        <ele>1088.813</ele>
        <time>2011-04-10T12:03:35Z</time>
      </trkpt>
      <trkpt lat="43.97318" lon="5.50332">
        <ele>1087.635</ele>
        <time>2011-04-10T12:03:45Z</time>
      </trkpt>
      <trkpt lat="43.97309" lon="5.50322">
        <ele>1085.841</ele>
        <time>2011-04-10T12:03:55Z</time>
      </trkpt>
      <trkpt lat="43.97298" lon="5.50317">
        <ele>1084.997</ele>
        <time>2011-04-10T12:04:05Z</time>
      </trkpt>
      <trkpt lat="43.97287" lon="5.50307">
        <ele>1084.075</ele>
        <time>2011-04-10T12:04:15Z</time>
      </trkpt>
      <trkpt lat="43.9728" lon="5.50302">
        <ele>1083.217</ele>
        <time>2011-04-10T12:04:25Z</time>
      </trkpt>
      <trkpt lat="43.9727" lon="5.503">
        <ele>1082.331</ele>
        <time>2011-04-10T12:04:35Z</time>
      </trkpt>
      <trkpt lat="43.97258" lon="5.50298">
        <ele>1080.88</ele>
        <time>2011-04-10T12:04:45Z</time>
      </trkpt>
      <trkpt lat="43.97249" lon="5.503">
        <ele>1080.256</ele>
        <time>2011-04-10T12:04:55Z</time>
      </trkpt>
      <trkpt lat="43.97244" lon="5.503">
        <ele>1080.277</ele>
        <time>2011-04-10T12:05:05Z</time>
      </trkpt>
      <trkpt lat="43.97239" lon="5.50301">
        <ele>1079.724</ele>
        <time>2011-04-10T12:05:15Z</time>
      </trkpt>
      <trkpt lat="43.97229" lon="5.50304">
        <ele>1078.157</ele>
        <time>2011-04-10T12:05:25Z</time>
      </trkpt>
      <trkpt lat="43.97219" lon="5.50305">
        <ele>1076.28</ele>
        <time>2011-04-10T12:05:35Z</time>
      </trkpt>
      <trkpt lat="43.97208" lon="5.50306">
        <ele>1075.766</ele>
        <time>2011-04-10T12:05:45Z</time>
      </trkpt>
      <trkpt lat="43.97196" lon="5.50309">
        <ele>1074.826</ele>
        <time>2011-04-10T12:05:55Z</time>
      </trkpt>
      <trkpt lat="43.97185" lon="5.50311">
        <ele>1073.432</ele>
        <time>2011-04-10T12:06:05Z</time>
      </trkpt>
      <trkpt lat="43.97173" lon="5.50312">
        <ele>1072.434</ele>
        <time>2011-04-10T12:06:15Z</time>
      </trkpt>
      <trkpt lat="43.97161" lon="5.50313">
        <ele>1071.219</ele>
        <time>2011-04-10T12:06:25Z</time>
      </trkpt>
      <trkpt lat="43.97149" lon="5.50313">
        <ele>1070.124</ele>
        <time>2011-04-10T12:06:35Z</time>
      </trkpt>
      <trkpt lat="43.97136" lon="5.50317">
        <ele>1069.462</ele>
        <time>2011-04-10T12:06:45Z</time>
      </trkpt>
      <trkpt lat="43.97124" lon="5.50325">
        <ele>1069.636</ele>
        <time>2011-04-10T12:06:55Z</time>
      </trkpt>
      <trkpt lat="43.97113" lon="5.50334">
        <ele>1069.046</ele>
        <time>2011-04-10T12:07:05Z</time>
      </trkpt>
      <trkpt lat="43.97104" lon="5.50346">
        <ele>1068.355</ele>
        <time>2011-04-10T12:07:15Z</time>
      </trkpt>
      <trkpt lat="43.97094" lon="5.50358">
        <ele>1065.839</ele>
        <time>2011-04-10T12:07:25Z</time>
      </trkpt>
      <trkpt lat="43.97083" lon="5.5037">
        <ele>1066.372</ele>
        <time>2011-04-10T12:07:35Z</time>
      </trkpt>
      <trkpt lat="43.97075" lon="5.50383">
        <ele>1065.404</ele>
        <time>2011-04-10T12:07:45Z</time>
      </trkpt>
      <trkpt lat="43.97068" lon="5.504">
        <ele>1064.774</ele>
        <time>2011-04-10T12:07:55Z</time>
      </trkpt>
      <trkpt lat="43.97062" lon="5.50415">
        <ele>1064.12</ele>
        <time>2011-04-10T12:08:05Z</time>
      </trkpt>
      <trkpt lat="43.97055" lon="5.50429">
        <ele>1063.011</ele>
        <time>2011-04-10T12:08:15Z</time>
      </trkpt>
      <trkpt lat="43.97047" lon="5.50441">
        <ele>1063.319</ele>
        <time>2011-04-10T12:08:25Z</time>
      </trkpt>
      <trkpt lat="43.97037" lon="5.5045">
        <ele>1060.426</ele>
        <time>2011-04-10T12:08:35Z</time>
      </trkpt>
      <trkpt lat="43.97025" lon="5.5045">
        <ele>1059.994</ele>
        <time>2011-04-10T12:08:45Z</time>
      </trkpt>
      <trkpt lat="43.97011" lon="5.50451">
        <ele>1059.085</ele>
        <time>2011-04-10T12:08:55Z</time>
      </trkpt>
      <trkpt lat="43.96998" lon="5.50453">
        <ele>1057.91</ele>
        <time>2011-04-10T12:09:05Z</time>
      </trkpt>
      <trkpt lat="43.96988" lon="5.5046">
        <ele>1057.611</ele>
        <time>2011-04-10T12:09:15Z</time>
      </trkpt>
      <trkpt lat="43.96981" lon="5.50473">
        <ele>1056.317</ele>
        <time>2011-04-10T12:09:25Z</time>
      </trkpt>
      <trkpt lat="43.9698" lon="5.50494">
        <ele>1055.682</ele>
        <time>2011-04-10T12:09:35Z</time>
      </trkpt>
      <trkpt lat="43.96981" lon="5.50513">
        <ele>1055.133</ele>
        <time>2011-04-10T12:09:45Z</time>
      </trkpt>
      <trkpt lat="43.96983" lon="5.50532">
        <ele>1055.315</ele>
        <time>2011-04-10T12:09:55Z</time>
      </trkpt>
      <trkpt lat="43.96986" lon="5.50555">
        <ele>1054.748</ele>
        <time>2011-04-10T12:10:05Z</time>
      </trkpt>
      <trkpt lat="43.96988" lon="5.50574">
        <ele>1054.332</ele>
        <time>2011-04-10T12:10:15Z</time>
      </trkpt>
      <trkpt lat="43.96993" lon="5.5059">
        <ele>1053.936</ele>
        <time>2011-04-10T12:10:25Z</time>
      </trkpt>
      <trkpt lat="43.96998" lon="5.50606">
        <ele>1053.53</ele>
        <time>2011-04-10T12:10:35Z</time>
      </trkpt>
      <trkpt lat="43.97001" lon="5.50624">
        <ele>1052.5</ele>
        <time>2011-04-10T12:10:45Z</time>
      </trkpt>
      <trkpt lat="43.97006" lon="5.50641">
        <ele>1051.572</ele>
        <time>2011-04-10T12:10:55Z</time>
      </trkpt>
      <trkpt lat="43.97016" lon="5.50653">
        <ele>1051.36</ele>
        <time>2011-04-10T12:11:05Z</time>
      </trkpt>
      <trkpt lat="43.9702" lon="5.50672">
        <ele>1051.847</ele>
        <time>2011-04-10T12:11:15Z</time>
      </trkpt>
      <trkpt lat="43.97022" lon="5.50683">
        <ele>1051.95</ele>
        <time>2011-04-10T12:11:25Z</time>
      </trkpt>
      <trkpt lat="43.97026" lon="5.50695">
        <ele>1051.888</ele>
        <time>2011-04-10T12:11:35Z</time>
      </trkpt>
      <trkpt lat="43.97026" lon="5.50714">
        <ele>1051.794</ele>
        <time>2011-04-10T12:11:45Z</time>
      </trkpt>
      <trkpt lat="43.97027" lon="5.50736">
        <ele>1052.11</ele>
        <time>2011-04-10T12:11:55Z</time>
      </trkpt>
      <trkpt lat="43.9703" lon="5.50755">
        <ele>1051.025</ele>
        <time>2011-04-10T12:12:05Z</time>
      </trkpt>
      <trkpt lat="43.97033" lon="5.50772">
        <ele>1050.477</ele>
        <time>2011-04-10T12:12:15Z</time>
      </trkpt>
      <trkpt lat="43.97036" lon="5.50788">
        <ele>1049.385</ele>
        <time>2011-04-10T12:12:25Z</time>
      </trkpt>
      <trkpt lat="43.97038" lon="5.50792">
        <ele>1049.634</ele>
        <time>2011-04-10T12:12:35Z</time>
      </trkpt>
      <trkpt lat="43.97042" lon="5.50807">
        <ele>1048.851</ele>
        <time>2011-04-10T12:12:45Z</time>
      </trkpt>
      <trkpt lat="43.97051" lon="5.50821">
        <ele>1047.945</ele>
        <time>2011-04-10T12:12:55Z</time>
      </trkpt>
      <trkpt lat="43.97059" lon="5.50834">
        <ele>1048.115</ele>
        <time>2011-04-10T12:13:05Z</time>
      </trkpt>
      <trkpt lat="43.97068" lon="5.50842">
        <ele>1049.487</ele>
        <time>2011-04-10T12:13:15Z</time>
      </trkpt>
      <trkpt lat="43.97078" lon="5.50844">
        <ele>1050.961</ele>
        <time>2011-04-10T12:13:25Z</time>
      </trkpt>
      <trkpt lat="43.97089" lon="5.50847">
        <ele>1052.452</ele>
        <time>2011-04-10T12:13:35Z</time>
      </trkpt>
      <trkpt lat="43.97096" lon="5.50852">
        <ele>1054.339</ele>
        <time>2011-04-10T12:13:45Z</time>
      </trkpt>
      <trkpt lat="43.97107" lon="5.50866">
        <ele>1054.524</ele>
        <time>2011-04-10T12:13:55Z</time>
      </trkpt>
      <trkpt lat="43.9711" lon="5.50871">
        <ele>1054.696</ele>
        <time>2011-04-10T12:14:05Z</time>
      </trkpt>
      <trkpt lat="43.9711" lon="5.50871">
        <ele>1054.474</ele>
        <time>2011-04-10T12:14:15Z</time>
      </trkpt>
      <trkpt lat="43.9711" lon="5.50871">
        <ele>1054.06</ele>
        <time>2011-04-10T12:14:25Z</time>
      </trkpt>
      <trkpt lat="43.9711" lon="5.50871">
        <ele>1054.175</ele>
        <time>2011-04-10T12:14:35Z</time>
      </trkpt>
      <trkpt lat="43.9711" lon="5.50871">
        <ele>1054.022</ele>
        <time>2011-04-10T12:14:45Z</time>
      </trkpt>
      <trkpt lat="43.97117" lon="5.50877">
        <ele>1055.387</ele>
        <time>2011-04-10T12:14:55Z</time>
      </trkpt>
      <trkpt lat="43.97125" lon="5.50884">
        <ele>1056.089</ele>
        <time>2011-04-10T12:15:05Z</time>
      </trkpt>
      <trkpt lat="43.97124" lon="5.50884">
        <ele>1056.146</ele>
        <time>2011-04-10T12:15:15Z</time>
      </trkpt>
      <trkpt lat="43.97115" lon="5.50879">
        <ele>1054.013</ele>
        <time>2011-04-10T12:15:25Z</time>
      </trkpt>
      <trkpt lat="43.97113" lon="5.50878">
        <ele>1054.483</ele>
        <time>2011-04-10T12:15:35Z</time>
      </trkpt>
      <trkpt lat="43.97115" lon="5.50893">
        <ele>1053.302</ele>
        <time>2011-04-10T12:15:45Z</time>
      </trkpt>
      <trkpt lat="43.97118" lon="5.50905">
        <ele>1052.18</ele>
        <time>2011-04-10T12:15:55Z</time>
      </trkpt>
      <trkpt lat="43.97119" lon="5.50919">
        <ele>1051.832</ele>
        <time>2011-04-10T12:16:05Z</time>
      </trkpt>
      <trkpt lat="43.97119" lon="5.50922">
        <ele>1052.043</ele>
        <time>2011-04-10T12:16:15Z</time>
      </trkpt>
      <trkpt lat="43.97117" lon="5.50942">
        <ele>1051.43</ele>
        <time>2011-04-10T12:16:25Z</time>
      </trkpt>
      <trkpt lat="43.97117" lon="5.50961">
        <ele>1051.204</ele>
        <time>2011-04-10T12:16:35Z</time>
      </trkpt>
      <trkpt lat="43.97117" lon="5.50979">
        <ele>1051.369</ele>
        <time>2011-04-10T12:16:45Z</time>
      </trkpt>
      <trkpt lat="43.97116" lon="5.50998">
        <ele>1050.516</ele>
        <time>2011-04-10T12:16:55Z</time>
      </trkpt>
      <trkpt lat="43.97115" lon="5.51015">
        <ele>1049.34</ele>
        <time>2011-04-10T12:17:05Z</time>
      </trkpt>
      <trkpt lat="43.97112" lon="5.51034">
        <ele>1049.11</ele>
        <time>2011-04-10T12:17:15Z</time>
      </trkpt>
      <trkpt lat="43.9711" lon="5.51052">
        <ele>1048.158</ele>
        <time>2011-04-10T12:17:25Z</time>
      </trkpt>
      <trkpt lat="43.97106" lon="5.51072">
        <ele>1047.66</ele>
        <time>2011-04-10T12:17:35Z</time>
      </trkpt>
      <trkpt lat="43.97104" lon="5.51088">
        <ele>1047.26</ele>
        <time>2011-04-10T12:17:45Z</time>
      </trkpt>
      <trkpt lat="43.97102" lon="5.51106">
        <ele>1047.609</ele>
        <time>2011-04-10T12:17:55Z</time>
      </trkpt>
      <trkpt lat="43.97101" lon="5.51123">
        <ele>1048.103</ele>
        <time>2011-04-10T12:18:05Z</time>
      </trkpt>
      <trkpt lat="43.971" lon="5.5114">
        <ele>1048.423</ele>
        <time>2011-04-10T12:18:15Z</time>
      </trkpt>
      <trkpt lat="43.97099" lon="5.51155">
        <ele>1047.812</ele>
        <time>2011-04-10T12:18:25Z</time>
      </trkpt>
      <trkpt lat="43.971" lon="5.5117">
        <ele>1047.4</ele>
        <time>2011-04-10T12:18:35Z</time>
      </trkpt>
      <trkpt lat="43.97098" lon="5.51189">
        <ele>1046.739</ele>
        <time>2011-04-10T12:18:45Z</time>
      </trkpt>
      <trkpt lat="43.97096" lon="5.51207">
        <ele>1046.546</ele>
        <time>2011-04-10T12:18:55Z</time>
      </trkpt>
      <trkpt lat="43.97096" lon="5.51224">
        <ele>1046.435</ele>
        <time>2011-04-10T12:19:05Z</time>
      </trkpt>
      <trkpt lat="43.97097" lon="5.5124">
        <ele>1047.275</ele>
        <time>2011-04-10T12:19:15Z</time>
      </trkpt>
      <trkpt lat="43.97097" lon="5.51255">
        <ele>1048.452</ele>
        <time>2011-04-10T12:19:25Z</time>
      </trkpt>
      <trkpt lat="43.97101" lon="5.51269">
        <ele>1049.534</ele>
        <time>2011-04-10T12:19:35Z</time>
      </trkpt>
      <trkpt lat="43.97108" lon="5.51277">
        <ele>1051.241</ele>
        <time>2011-04-10T12:19:45Z</time>
      </trkpt>
      <trkpt lat="43.97118" lon="5.51279">
        <ele>1052.561</ele>
        <time>2011-04-10T12:19:55Z</time>
      </trkpt>
      <trkpt lat="43.97129" lon="5.51283">
        <ele>1054.86</ele>
        <time>2011-04-10T12:20:05Z</time>
      </trkpt>
      <trkpt lat="43.97138" lon="5.51286">
        <ele>1056.07</ele>
        <time>2011-04-10T12:20:15Z</time>
      </trkpt>
      <trkpt lat="43.97145" lon="5.51298">
        <ele>1056.878</ele>
        <time>2011-04-10T12:20:25Z</time>
      </trkpt>
      <trkpt lat="43.97146" lon="5.51312">
        <ele>1057.021</ele>
        <time>2011-04-10T12:20:35Z</time>
      </trkpt>
      <trkpt lat="43.97146" lon="5.51323">
        <ele>1058.067</ele>
        <time>2011-04-10T12:20:45Z</time>
      </trkpt>
      <trkpt lat="43.97143" lon="5.51336">
        <ele>1057.057</ele>
        <time>2011-04-10T12:20:55Z</time>
      </trkpt>
      <trkpt lat="43.97142" lon="5.51353">
        <ele>1057.276</ele>
        <time>2011-04-10T12:21:05Z</time>
      </trkpt>
      <trkpt lat="43.9714" lon="5.5137">
        <ele>1056.923</ele>
        <time>2011-04-10T12:21:15Z</time>
      </trkpt>
      <trkpt lat="43.97137" lon="5.51385">
        <ele>1056.928</ele>
        <time>2011-04-10T12:21:25Z</time>
      </trkpt>
      <trkpt lat="43.97136" lon="5.51401">
        <ele>1056.81</ele>
        <time>2011-04-10T12:21:35Z</time>
      </trkpt>
      <trkpt lat="43.97134" lon="5.51417">
        <ele>1056.514</ele>
        <time>2011-04-10T12:21:45Z</time>
      </trkpt>
      <trkpt lat="43.97129" lon="5.51427">
        <ele>1056.373</ele>
        <time>2011-04-10T12:21:55Z</time>
      </trkpt>
      <trkpt lat="43.97123" lon="5.51427">
        <ele>1056.158</ele>
        <time>2011-04-10T12:22:05Z</time>
      </trkpt>
      <trkpt lat="43.97123" lon="5.51427">
        <ele>1056.228</ele>
        <time>2011-04-10T12:22:15Z</time>
      </trkpt>
      <trkpt lat="43.97123" lon="5.51427">
        <ele>1055.853</ele>
        <time>2011-04-10T12:22:25Z</time>
      </trkpt>
      <trkpt lat="43.97123" lon="5.51427">
        <ele>1056.242</ele>
        <time>2011-04-10T12:22:35Z</time>
      </trkpt>
      <trkpt lat="43.97123" lon="5.51427">
        <ele>1055.991</ele>
        <time>2011-04-10T12:22:45Z</time>
      </trkpt>
      <trkpt lat="43.97114" lon="5.51425">
        <ele>1054.335</ele>
        <time>2011-04-10T12:22:55Z</time>
      </trkpt>
      <trkpt lat="43.97104" lon="5.51422">
        <ele>1054.314</ele>
        <time>2011-04-10T12:23:05Z</time>
      </trkpt>
      <trkpt lat="43.97093" lon="5.51425">
        <ele>1053.297</ele>
        <time>2011-04-10T12:23:15Z</time>
      </trkpt>
      <trkpt lat="43.97082" lon="5.51429">
        <ele>1052.21</ele>
        <time>2011-04-10T12:23:25Z</time>
      </trkpt>
      <trkpt lat="43.97074" lon="5.51439">
        <ele>1051.265</ele>
        <time>2011-04-10T12:23:35Z</time>
      </trkpt>
      <trkpt lat="43.97065" lon="5.51449">
        <ele>1050.692</ele>
        <time>2011-04-10T12:23:45Z</time>
      </trkpt>
      <trkpt lat="43.97056" lon="5.5146">
        <ele>1050.135</ele>
        <time>2011-04-10T12:23:55Z</time>
      </trkpt>
      <trkpt lat="43.97047" lon="5.51471">
        <ele>1049.534</ele>
        <time>2011-04-10T12:24:05Z</time>
      </trkpt>
      <trkpt lat="43.97038" lon="5.51482">
        <ele>1049.008</ele>
        <time>2011-04-10T12:24:15Z</time>
      </trkpt>
      <trkpt lat="43.97029" lon="5.51494">
        <ele>1048.103</ele>
        <time>2011-04-10T12:24:25Z</time>
      </trkpt>
      <trkpt lat="43.97019" lon="5.51507">
        <ele>1047.709</ele>
        <time>2011-04-10T12:24:35Z</time>
      </trkpt>
      <trkpt lat="43.97009" lon="5.51518">
        <ele>1046.855</ele>
        <time>2011-04-10T12:24:45Z</time>
      </trkpt>
      <trkpt lat="43.97" lon="5.51527">
        <ele>1045.908</ele>
        <time>2011-04-10T12:24:55Z</time>
      </trkpt>
      <trkpt lat="43.9699" lon="5.51533">
        <ele>1044.727</ele>
        <time>2011-04-10T12:25:05Z</time>
      </trkpt>
      <trkpt lat="43.96979" lon="5.5154">
        <ele>1044.734</ele>
        <time>2011-04-10T12:25:15Z</time>
      </trkpt>
      <trkpt lat="43.96969" lon="5.51549">
        <ele>1044.314</ele>
        <time>2011-04-10T12:25:25Z</time>
      </trkpt>
      <trkpt lat="43.96959" lon="5.51558">
        <ele>1044.773</ele>
        <time>2011-04-10T12:25:35Z</time>
      </trkpt>
      <trkpt lat="43.96949" lon="5.51566">
        <ele>1046.342</ele>
        <time>2011-04-10T12:25:45Z</time>
      </trkpt>
      <trkpt lat="43.9694" lon="5.51574">
        <ele>1046.517</ele>
        <time>2011-04-10T12:25:55Z</time>
      </trkpt>
      <trkpt lat="43.96931" lon="5.51583">
        <ele>1047.604</ele>
        <time>2011-04-10T12:26:05Z</time>
      </trkpt>
      <trkpt lat="43.9692" lon="5.51592">
        <ele>1048.826</ele>
        <time>2011-04-10T12:26:15Z</time>
      </trkpt>
      <trkpt lat="43.96909" lon="5.51598">
        <ele>1049.2</ele>
        <time>2011-04-10T12:26:25Z</time>
      </trkpt>
      <trkpt lat="43.969" lon="5.51601">
        <ele>1050.421</ele>
        <time>2011-04-10T12:26:35Z</time>
      </trkpt>
      <trkpt lat="43.969" lon="5.51601">
        <ele>1049.345</ele>
        <time>2011-04-10T12:26:45Z</time>
      </trkpt>
      <trkpt lat="43.96895" lon="5.51608">
        <ele>1051.23</ele>
        <time>2011-04-10T12:26:55Z</time>
      </trkpt>
      <trkpt lat="43.96889" lon="5.51613">
        <ele>1051.744</ele>
        <time>2011-04-10T12:27:05Z</time>
      </trkpt>
      <trkpt lat="43.96888" lon="5.51613">
        <ele>1051.921</ele>
        <time>2011-04-10T12:27:15Z</time>
      </trkpt>
      <trkpt lat="43.96885" lon="5.51619">
        <ele>1051.797</ele>
        <time>2011-04-10T12:27:25Z</time>
      </trkpt>
      <trkpt lat="43.96877" lon="5.51628">
        <ele>1052.605</ele>
        <time>2011-04-10T12:27:35Z</time>
      </trkpt>
      <trkpt lat="43.96868" lon="5.51635">
        <ele>1054.366</ele>
        <time>2011-04-10T12:27:45Z</time>
      </trkpt>
      <trkpt lat="43.96858" lon="5.51643">
        <ele>1055.308</ele>
        <time>2011-04-10T12:27:55Z</time>
      </trkpt>
      <trkpt lat="43.9685" lon="5.51648">
        <ele>1055.67</ele>
        <time>2011-04-10T12:28:05Z</time>
      </trkpt>
      <trkpt lat="43.96841" lon="5.51654">
        <ele>1055.284</ele>
        <time>2011-04-10T12:28:15Z</time>
      </trkpt>
      <trkpt lat="43.96834" lon="5.51664">
        <ele>1055.787</ele>
        <time>2011-04-10T12:28:25Z</time>
      </trkpt>
      <trkpt lat="43.96828" lon="5.51676">
        <ele>1055.761</ele>
        <time>2011-04-10T12:28:35Z</time>
      </trkpt>
      <trkpt lat="43.96816" lon="5.51687">
        <ele>1055.541</ele>
        <time>2011-04-10T12:28:45Z</time>
      </trkpt>
      <trkpt lat="43.96804" lon="5.51697">
        <ele>1054.258</ele>
        <time>2011-04-10T12:28:55Z</time>
      </trkpt>
      <trkpt lat="43.96793" lon="5.51703">
        <ele>1053.821</ele>
        <time>2011-04-10T12:29:05Z</time>
      </trkpt>
      <trkpt lat="43.9678" lon="5.51709">
        <ele>1052.991</ele>
        <time>2011-04-10T12:29:15Z</time>
      </trkpt>
      <trkpt lat="43.96769" lon="5.51716">
        <ele>1052.952</ele>
        <time>2011-04-10T12:29:25Z</time>
      </trkpt>
      <trkpt lat="43.96758" lon="5.5172">
        <ele>1052.085</ele>
        <time>2011-04-10T12:29:35Z</time>
      </trkpt>
      <trkpt lat="43.96745" lon="5.51725">
        <ele>1050.759</ele>
        <time>2011-04-10T12:29:45Z</time>
      </trkpt>
      <trkpt lat="43.96735" lon="5.51726">
        <ele>1050.006</ele>
        <time>2011-04-10T12:29:55Z</time>
      </trkpt>
      <trkpt lat="43.96725" lon="5.51732">
        <ele>1049.747</ele>
        <time>2011-04-10T12:30:05Z</time>
      </trkpt>
      <trkpt lat="43.96718" lon="5.51746">
        <ele>1048.465</ele>
        <time>2011-04-10T12:30:15Z</time>
      </trkpt>
      <trkpt lat="43.96718" lon="5.51762">
        <ele>1048.498</ele>
        <time>2011-04-10T12:30:25Z</time>
      </trkpt>
      <trkpt lat="43.96721" lon="5.51777">
        <ele>1048.185</ele>
        <time>2011-04-10T12:30:35Z</time>
      </trkpt>
      <trkpt lat="43.96725" lon="5.5179">
        <ele>1048.365</ele>
        <time>2011-04-10T12:30:45Z</time>
      </trkpt>
      <trkpt lat="43.96729" lon="5.51806">
        <ele>1048.567</ele>
        <time>2011-04-10T12:30:55Z</time>
      </trkpt>
      <trkpt lat="43.96733" lon="5.5182">
        <ele>1047.125</ele>
        <time>2011-04-10T12:31:05Z</time>
      </trkpt>
      <trkpt lat="43.96737" lon="5.51836">
        <ele>1046.146</ele>
        <time>2011-04-10T12:31:15Z</time>
      </trkpt>
      <trkpt lat="43.96736" lon="5.51854">
        <ele>1046.427</ele>
        <time>2011-04-10T12:31:25Z</time>
      </trkpt>
      <trkpt lat="43.96734" lon="5.5187">
        <ele>1046.574</ele>
        <time>2011-04-10T12:31:35Z</time>
      </trkpt>
      <trkpt lat="43.96731" lon="5.51884">
        <ele>1047.241</ele>
        <time>2011-04-10T12:31:45Z</time>
      </trkpt>
      <trkpt lat="43.96728" lon="5.51897">
        <ele>1049.993</ele>
        <time>2011-04-10T12:31:55Z</time>
      </trkpt>
      <trkpt lat="43.96719" lon="5.51909">
        <ele>1050.923</ele>
        <time>2011-04-10T12:32:05Z</time>
      </trkpt>
      <trkpt lat="43.9671" lon="5.51921">
        <ele>1052.993</ele>
        <time>2011-04-10T12:32:15Z</time>
      </trkpt>
      <trkpt lat="43.96701" lon="5.51933">
        <ele>1053.678</ele>
        <time>2011-04-10T12:32:25Z</time>
      </trkpt>
      <trkpt lat="43.96692" lon="5.51944">
        <ele>1054.939</ele>
        <time>2011-04-10T12:32:35Z</time>
      </trkpt>
      <trkpt lat="43.96682" lon="5.51958">
        <ele>1055.329</ele>
        <time>2011-04-10T12:32:45Z</time>
      </trkpt>
      <trkpt lat="43.96673" lon="5.51971">
        <ele>1056.595</ele>
        <time>2011-04-10T12:32:55Z</time>
      </trkpt>
      <trkpt lat="43.96666" lon="5.51984">
        <ele>1056.797</ele>
        <time>2011-04-10T12:33:05Z</time>
      </trkpt>
      <trkpt lat="43.96658" lon="5.51995">
        <ele>1058.268</ele>
        <time>2011-04-10T12:33:15Z</time>
      </trkpt>
      <trkpt lat="43.96648" lon="5.52009">
        <ele>1058.647</ele>
        <time>2011-04-10T12:33:25Z</time>
      </trkpt>
      <trkpt lat="43.9664" lon="5.52021">
        <ele>1060.017</ele>
        <time>2011-04-10T12:33:35Z</time>
      </trkpt>
      <trkpt lat="43.96631" lon="5.52036">
        <ele>1060.285</ele>
        <time>2011-04-10T12:33:45Z</time>
      </trkpt>
      <trkpt lat="43.96626" lon="5.52046">
        <ele>1060.669</ele>
        <time>2011-04-10T12:33:55Z</time>
      </trkpt>
      <trkpt lat="43.96618" lon="5.52058">
        <ele>1061.947</ele>
        <time>2011-04-10T12:34:05Z</time>
      </trkpt>
      <trkpt lat="43.96612" lon="5.52068">
        <ele>1062.165</ele>
        <time>2011-04-10T12:34:15Z</time>
      </trkpt>
      <trkpt lat="43.96603" lon="5.5208">
        <ele>1060.252</ele>
        <time>2011-04-10T12:34:25Z</time>
      </trkpt>
      <trkpt lat="43.96591" lon="5.52096">
        <ele>1061.589</ele>
        <time>2011-04-10T12:34:35Z</time>
      </trkpt>
      <trkpt lat="43.96581" lon="5.52112">
        <ele>1062.218</ele>
        <time>2011-04-10T12:34:45Z</time>
      </trkpt>
      <trkpt lat="43.96575" lon="5.5212">
        <ele>1061.615</ele>
        <time>2011-04-10T12:34:55Z</time>
      </trkpt>
      <trkpt lat="43.96575" lon="5.5212">
        <ele>1061.865</ele>
        <time>2011-04-10T12:35:05Z</time>
      </trkpt>
      <trkpt lat="43.96573" lon="5.52118">
        <ele>1061.625</ele>
        <time>2011-04-10T12:35:15Z</time>
      </trkpt>
      <trkpt lat="43.9657" lon="5.52117">
        <ele>1061.5</ele>
        <time>2011-04-10T12:35:25Z</time>
      </trkpt>
      <trkpt lat="43.9657" lon="5.52117">
        <ele>1061.339</ele>
        <time>2011-04-10T12:35:35Z</time>
      </trkpt>
      <trkpt lat="43.9657" lon="5.52117">
        <ele>1061.462</ele>
        <time>2011-04-10T12:35:45Z</time>
      </trkpt>
      <trkpt lat="43.9657" lon="5.52119">
        <ele>1062.137</ele>
        <time>2011-04-10T12:35:55Z</time>
      </trkpt>
      <trkpt lat="43.9657" lon="5.52119">
        <ele>1061.78</ele>
        <time>2011-04-10T12:36:05Z</time>
      </trkpt>
      <trkpt lat="43.9657" lon="5.52119">
        <ele>1062.231</ele>
        <time>2011-04-10T12:36:15Z</time>
      </trkpt>
      <trkpt lat="43.9657" lon="5.52119">
        <ele>1062.185</ele>
        <time>2011-04-10T12:36:25Z</time>
      </trkpt>
      <trkpt lat="43.9657" lon="5.52119">
        <ele>1062.776</ele>
        <time>2011-04-10T12:36:35Z</time>
      </trkpt>
      <trkpt lat="43.96571" lon="5.52119">
        <ele>1061.342</ele>
        <time>2011-04-10T12:36:45Z</time>
      </trkpt>
      <trkpt lat="43.96571" lon="5.5212">
        <ele>1062.043</ele>
        <time>2011-04-10T12:36:55Z</time>
      </trkpt>
      <trkpt lat="43.96571" lon="5.5212">
        <ele>1061.99</ele>
        <time>2011-04-10T12:37:05Z</time>
      </trkpt>
      <trkpt lat="43.96571" lon="5.5212">
        <ele>1060.535</ele>
        <time>2011-04-10T12:37:15Z</time>
      </trkpt>
      <trkpt lat="43.96571" lon="5.5212">
        <ele>1061.936</ele>
        <time>2011-04-10T12:37:25Z</time>
      </trkpt>
      <trkpt lat="43.96571" lon="5.5212">
        <ele>1061.935</ele>
        <time>2011-04-10T12:37:35Z</time>
      </trkpt>
      <trkpt lat="43.96571" lon="5.5212">
        <ele>1061.555</ele>
        <time>2011-04-10T12:37:45Z</time>
      </trkpt>
      <trkpt lat="43.9657" lon="5.52118">
        <ele>1061.663</ele>
        <time>2011-04-10T12:37:55Z</time>
      </trkpt>
      <trkpt lat="43.9657" lon="5.52119">
        <ele>1061.281</ele>
        <time>2011-04-10T12:38:05Z</time>
      </trkpt>
      <trkpt lat="43.9657" lon="5.52119">
        <ele>1061.807</ele>
        <time>2011-04-10T12:38:15Z</time>
      </trkpt>
      <trkpt lat="43.9657" lon="5.52118">
        <ele>1060.581</ele>
        <time>2011-04-10T12:38:25Z</time>
      </trkpt>
      <trkpt lat="43.9657" lon="5.52118">
        <ele>1062.411</ele>
        <time>2011-04-10T12:38:35Z</time>
      </trkpt>
      <trkpt lat="43.9657" lon="5.52118">
        <ele>1061.302</ele>
        <time>2011-04-10T12:38:45Z</time>
      </trkpt>
      <trkpt lat="43.9657" lon="5.52118">
        <ele>1061.474</ele>
        <time>2011-04-10T12:38:55Z</time>
      </trkpt>
      <trkpt lat="43.96571" lon="5.52118">
        <ele>1061.56</ele>
        <time>2011-04-10T12:39:05Z</time>
      </trkpt>
      <trkpt lat="43.96571" lon="5.52118">
        <ele>1061.921</ele>
        <time>2011-04-10T12:39:15Z</time>
      </trkpt>
      <trkpt lat="43.96571" lon="5.52118">
        <ele>1061.945</ele>
        <time>2011-04-10T12:39:25Z</time>
      </trkpt>
      <trkpt lat="43.96571" lon="5.52118">
        <ele>1061.605</ele>
        <time>2011-04-10T12:39:35Z</time>
      </trkpt>
      <trkpt lat="43.96571" lon="5.52118">
        <ele>1061.685</ele>
        <time>2011-04-10T12:39:45Z</time>
      </trkpt>
      <trkpt lat="43.96571" lon="5.52118">
        <ele>1061.53</ele>
        <time>2011-04-10T12:39:55Z</time>
      </trkpt>
      <trkpt lat="43.96571" lon="5.52118">
        <ele>1062.121</ele>
        <time>2011-04-10T12:40:05Z</time>
      </trkpt>
      <trkpt lat="43.96571" lon="5.52118">
        <ele>1061.287</ele>
        <time>2011-04-10T12:40:15Z</time>
      </trkpt>
      <trkpt lat="43.96571" lon="5.52118">
        <ele>1061.43</ele>
        <time>2011-04-10T12:40:25Z</time>
      </trkpt>
      <trkpt lat="43.96571" lon="5.52118">
        <ele>1059.892</ele>
        <time>2011-04-10T12:40:35Z</time>
      </trkpt>
      <trkpt lat="43.9657" lon="5.52117">
        <ele>1060.604</ele>
        <time>2011-04-10T12:40:45Z</time>
      </trkpt>
      <trkpt lat="43.9657" lon="5.52117">
        <ele>1060.698</ele>
        <time>2011-04-10T12:40:55Z</time>
      </trkpt>
      <trkpt lat="43.9657" lon="5.52117">
        <ele>1061.081</ele>
        <time>2011-04-10T12:41:05Z</time>
      </trkpt>
      <trkpt lat="43.9657" lon="5.52117">
        <ele>1060.632</ele>
        <time>2011-04-10T12:41:15Z</time>
      </trkpt>
      <trkpt lat="43.9657" lon="5.52117">
        <ele>1061.126</ele>
        <time>2011-04-10T12:41:25Z</time>
      </trkpt>
      <trkpt lat="43.96569" lon="5.52116">
        <ele>1059.778</ele>
        <time>2011-04-10T12:41:35Z</time>
      </trkpt>
      <trkpt lat="43.96569" lon="5.52116">
        <ele>1060.478</ele>
        <time>2011-04-10T12:41:45Z</time>
      </trkpt>
      <trkpt lat="43.96569" lon="5.52116">
        <ele>1061.108</ele>
        <time>2011-04-10T12:41:55Z</time>
      </trkpt>
      <trkpt lat="43.96568" lon="5.52116">
        <ele>1061.248</ele>
        <time>2011-04-10T12:42:05Z</time>
      </trkpt>
      <trkpt lat="43.96565" lon="5.52113">
        <ele>1060.605</ele>
        <time>2011-04-10T12:42:15Z</time>
      </trkpt>
      <trkpt lat="43.96562" lon="5.52109">
        <ele>1060.79</ele>
        <time>2011-04-10T12:42:25Z</time>
      </trkpt>
      <trkpt lat="43.96556" lon="5.521">
        <ele>1059.79</ele>
        <time>2011-04-10T12:42:35Z</time>
      </trkpt>
      <trkpt lat="43.9655" lon="5.52091">
        <ele>1059.25</ele>
        <time>2011-04-10T12:42:45Z</time>
      </trkpt>
      <trkpt lat="43.96544" lon="5.52082">
        <ele>1058.766</ele>
        <time>2011-04-10T12:42:55Z</time>
      </trkpt>
      <trkpt lat="43.96538" lon="5.52076">
        <ele>1057.789</ele>
        <time>2011-04-10T12:43:05Z</time>
      </trkpt>
      <trkpt lat="43.96532" lon="5.52078">
        <ele>1057.867</ele>
        <time>2011-04-10T12:43:15Z</time>
      </trkpt>
      <trkpt lat="43.96528" lon="5.52084">
        <ele>1057.627</ele>
        <time>2011-04-10T12:43:25Z</time>
      </trkpt>
      <trkpt lat="43.96526" lon="5.52087">
        <ele>1058.263</ele>
        <time>2011-04-10T12:43:35Z</time>
      </trkpt>
      <trkpt lat="43.96526" lon="5.52086">
        <ele>1058.165</ele>
        <time>2011-04-10T12:43:45Z</time>
      </trkpt>
      <trkpt lat="43.96526" lon="5.52087">
        <ele>1057.988</ele>
        <time>2011-04-10T12:43:55Z</time>
      </trkpt>
      <trkpt lat="43.96523" lon="5.52092">
        <ele>1058.759</ele>
        <time>2011-04-10T12:44:05Z</time>
      </trkpt>
      <trkpt lat="43.96519" lon="5.52102">
        <ele>1058.733</ele>
        <time>2011-04-10T12:44:15Z</time>
      </trkpt>
      <trkpt lat="43.96512" lon="5.52113">
        <ele>1057.818</ele>
        <time>2011-04-10T12:44:25Z</time>
      </trkpt>
      <trkpt lat="43.9651" lon="5.52123">
        <ele>1057.385</ele>
        <time>2011-04-10T12:44:35Z</time>
      </trkpt>
      <trkpt lat="43.96506" lon="5.52133">
        <ele>1057.855</ele>
        <time>2011-04-10T12:44:45Z</time>
      </trkpt>
      <trkpt lat="43.96502" lon="5.52146">
        <ele>1057.329</ele>
        <time>2011-04-10T12:44:55Z</time>
      </trkpt>
      <trkpt lat="43.96496" lon="5.52157">
        <ele>1056.994</ele>
        <time>2011-04-10T12:45:05Z</time>
      </trkpt>
      <trkpt lat="43.96489" lon="5.52168">
        <ele>1055.523</ele>
        <time>2011-04-10T12:45:15Z</time>
      </trkpt>
      <trkpt lat="43.96484" lon="5.5218">
        <ele>1054.722</ele>
        <time>2011-04-10T12:45:25Z</time>
      </trkpt>
      <trkpt lat="43.96477" lon="5.52193">
        <ele>1054.578</ele>
        <time>2011-04-10T12:45:35Z</time>
      </trkpt>
      <trkpt lat="43.9647" lon="5.52208">
        <ele>1054.144</ele>
        <time>2011-04-10T12:45:45Z</time>
      </trkpt>
      <trkpt lat="43.96466" lon="5.52225">
        <ele>1053.497</ele>
        <time>2011-04-10T12:45:55Z</time>
      </trkpt>
      <trkpt lat="43.96463" lon="5.52243">
        <ele>1052.092</ele>
        <time>2011-04-10T12:46:05Z</time>
      </trkpt>
      <trkpt lat="43.9646" lon="5.52259">
        <ele>1050.78</ele>
        <time>2011-04-10T12:46:15Z</time>
      </trkpt>
      <trkpt lat="43.96457" lon="5.52275">
        <ele>1049.887</ele>
        <time>2011-04-10T12:46:25Z</time>
      </trkpt>
      <trkpt lat="43.96458" lon="5.52289">
        <ele>1048.785</ele>
        <time>2011-04-10T12:46:35Z</time>
      </trkpt>
      <trkpt lat="43.96461" lon="5.52305">
        <ele>1048.013</ele>
        <time>2011-04-10T12:46:45Z</time>
      </trkpt>
      <trkpt lat="43.96467" lon="5.52319">
        <ele>1046.308</ele>
        <time>2011-04-10T12:46:55Z</time>
      </trkpt>
      <trkpt lat="43.96467" lon="5.52335">
        <ele>1043.645</ele>
        <time>2011-04-10T12:47:05Z</time>
      </trkpt>
      <trkpt lat="43.9646" lon="5.52347">
        <ele>1041.834</ele>
        <time>2011-04-10T12:47:15Z</time>
      </trkpt>
      <trkpt lat="43.96455" lon="5.52359">
        <ele>1040.558</ele>
        <time>2011-04-10T12:47:25Z</time>
      </trkpt>
      <trkpt lat="43.96451" lon="5.5237">
        <ele>1037.752</ele>
        <time>2011-04-10T12:47:35Z</time>
      </trkpt>
      <trkpt lat="43.96449" lon="5.52385">
        <ele>1035.583</ele>
        <time>2011-04-10T12:47:45Z</time>
      </trkpt>
      <trkpt lat="43.96445" lon="5.52399">
        <ele>1033.299</ele>
        <time>2011-04-10T12:47:55Z</time>
      </trkpt>
      <trkpt lat="43.9644" lon="5.52414">
        <ele>1031.618</ele>
        <time>2011-04-10T12:48:05Z</time>
      </trkpt>
      <trkpt lat="43.96441" lon="5.52429">
        <ele>1029.824</ele>
        <time>2011-04-10T12:48:15Z</time>
      </trkpt>
      <trkpt lat="43.96445" lon="5.52444">
        <ele>1026.949</ele>
        <time>2011-04-10T12:48:25Z</time>
      </trkpt>
      <trkpt lat="43.96447" lon="5.52459">
        <ele>1023.286</ele>
        <time>2011-04-10T12:48:35Z</time>
      </trkpt>
      <trkpt lat="43.96445" lon="5.52477">
        <ele>1020.251</ele>
        <time>2011-04-10T12:48:45Z</time>
      </trkpt>
      <trkpt lat="43.96437" lon="5.5249">
        <ele>1017.421</ele>
        <time>2011-04-10T12:48:55Z</time>
      </trkpt>
      <trkpt lat="43.96432" lon="5.52505">
        <ele>1014.863</ele>
        <time>2011-04-10T12:49:05Z</time>
      </trkpt>
      <trkpt lat="43.96429" lon="5.52519">
        <ele>1012.27</ele>
        <time>2011-04-10T12:49:15Z</time>
      </trkpt>
      <trkpt lat="43.96427" lon="5.52535">
        <ele>1009.169</ele>
        <time>2011-04-10T12:49:25Z</time>
      </trkpt>
      <trkpt lat="43.96424" lon="5.5255">
        <ele>1005.975</ele>
        <time>2011-04-10T12:49:35Z</time>
      </trkpt>
      <trkpt lat="43.96424" lon="5.52567">
        <ele>1002.851</ele>
        <time>2011-04-10T12:49:45Z</time>
      </trkpt>
      <trkpt lat="43.96419" lon="5.52579">
        <ele>999.751</ele>
        <time>2011-04-10T12:49:55Z</time>
      </trkpt>
      <trkpt lat="43.9641" lon="5.52584">
        <ele>996.816</ele>
        <time>2011-04-10T12:50:05Z</time>
      </trkpt>
      <trkpt lat="43.96399" lon="5.52589">
        <ele>993.919</ele>
        <time>2011-04-10T12:50:15Z</time>
      </trkpt>
      <trkpt lat="43.96387" lon="5.52595">
        <ele>991.146</ele>
        <time>2011-04-10T12:50:25Z</time>
      </trkpt>
      <trkpt lat="43.96376" lon="5.52599">
        <ele>988.753</ele>
        <time>2011-04-10T12:50:35Z</time>
      </trkpt>
      <trkpt lat="43.96363" lon="5.52599">
        <ele>986.871</ele>
        <time>2011-04-10T12:50:45Z</time>
      </trkpt>
      <trkpt lat="43.96353" lon="5.52599">
        <ele>985.087</ele>
        <time>2011-04-10T12:50:55Z</time>
      </trkpt>
      <trkpt lat="43.96342" lon="5.52604">
        <ele>984.107</ele>
        <time>2011-04-10T12:51:05Z</time>
      </trkpt>
      <trkpt lat="43.9633" lon="5.52608">
        <ele>981.615</ele>
        <time>2011-04-10T12:51:15Z</time>
      </trkpt>
      <trkpt lat="43.96319" lon="5.52613">
        <ele>979.557</ele>
        <time>2011-04-10T12:51:25Z</time>
      </trkpt>
      <trkpt lat="43.96326" lon="5.52623">
        <ele>976.934</ele>
        <time>2011-04-10T12:51:35Z</time>
      </trkpt>
      <trkpt lat="43.96339" lon="5.52631">
        <ele>974.771</ele>
        <time>2011-04-10T12:51:45Z</time>
      </trkpt>
      <trkpt lat="43.9635" lon="5.5264">
        <ele>972.905</ele>
        <time>2011-04-10T12:51:55Z</time>
      </trkpt>
      <trkpt lat="43.9636" lon="5.52647">
        <ele>971.675</ele>
        <time>2011-04-10T12:52:05Z</time>
      </trkpt>
      <trkpt lat="43.9637" lon="5.52653">
        <ele>969.557</ele>
        <time>2011-04-10T12:52:15Z</time>
      </trkpt>
      <trkpt lat="43.96381" lon="5.52662">
        <ele>967.951</ele>
        <time>2011-04-10T12:52:25Z</time>
      </trkpt>
      <trkpt lat="43.96393" lon="5.52672">
        <ele>967.034</ele>
        <time>2011-04-10T12:52:35Z</time>
      </trkpt>
      <trkpt lat="43.96401" lon="5.52685">
        <ele>965.71</ele>
        <time>2011-04-10T12:52:45Z</time>
      </trkpt>
      <trkpt lat="43.96407" lon="5.52701">
        <ele>963.281</ele>
        <time>2011-04-10T12:52:55Z</time>
      </trkpt>
      <trkpt lat="43.9641" lon="5.52719">
        <ele>960.692</ele>
        <time>2011-04-10T12:53:05Z</time>
      </trkpt>
      <trkpt lat="43.96411" lon="5.52737">
        <ele>958.858</ele>
        <time>2011-04-10T12:53:15Z</time>
      </trkpt>
      <trkpt lat="43.9641" lon="5.52754">
        <ele>956.444</ele>
        <time>2011-04-10T12:53:25Z</time>
      </trkpt>
      <trkpt lat="43.96409" lon="5.5277">
        <ele>953.748</ele>
        <time>2011-04-10T12:53:35Z</time>
      </trkpt>
      <trkpt lat="43.9641" lon="5.52784">
        <ele>951.35</ele>
        <time>2011-04-10T12:53:45Z</time>
      </trkpt>
      <trkpt lat="43.96412" lon="5.52801">
        <ele>948.924</ele>
        <time>2011-04-10T12:53:55Z</time>
      </trkpt>
      <trkpt lat="43.96413" lon="5.52819">
        <ele>946.768</ele>
        <time>2011-04-10T12:54:05Z</time>
      </trkpt>
      <trkpt lat="43.96411" lon="5.52824">
        <ele>946.727</ele>
        <time>2011-04-10T12:54:15Z</time>
      </trkpt>
      <trkpt lat="43.9641" lon="5.52831">
        <ele>945.384</ele>
        <time>2011-04-10T12:54:25Z</time>
      </trkpt>
      <trkpt lat="43.96411" lon="5.52833">
        <ele>946.141</ele>
        <time>2011-04-10T12:54:35Z</time>
      </trkpt>
      <trkpt lat="43.96415" lon="5.52847">
        <ele>943.944</ele>
        <time>2011-04-10T12:54:45Z</time>
      </trkpt>
      <trkpt lat="43.96421" lon="5.52859">
        <ele>942.156</ele>
        <time>2011-04-10T12:54:55Z</time>
      </trkpt>
      <trkpt lat="43.96426" lon="5.52873">
        <ele>940.35</ele>
        <time>2011-04-10T12:55:05Z</time>
      </trkpt>
      <trkpt lat="43.96428" lon="5.52885">
        <ele>939.55</ele>
        <time>2011-04-10T12:55:15Z</time>
      </trkpt>
      <trkpt lat="43.96428" lon="5.52885">
        <ele>939.051</ele>
        <time>2011-04-10T12:55:25Z</time>
      </trkpt>
      <trkpt lat="43.96428" lon="5.52885">
        <ele>939.51</ele>
        <time>2011-04-10T12:55:35Z</time>
      </trkpt>
      <trkpt lat="43.96428" lon="5.52885">
        <ele>939.03</ele>
        <time>2011-04-10T12:55:45Z</time>
      </trkpt>
      <trkpt lat="43.96428" lon="5.52885">
        <ele>938.94</ele>
        <time>2011-04-10T12:55:55Z</time>
      </trkpt>
      <trkpt lat="43.96431" lon="5.52894">
        <ele>936.745</ele>
        <time>2011-04-10T12:56:05Z</time>
      </trkpt>
      <trkpt lat="43.96439" lon="5.52902">
        <ele>936.932</ele>
        <time>2011-04-10T12:56:15Z</time>
      </trkpt>
      <trkpt lat="43.96447" lon="5.52913">
        <ele>935.32</ele>
        <time>2011-04-10T12:56:25Z</time>
      </trkpt>
      <trkpt lat="43.96458" lon="5.52922">
        <ele>934.31</ele>
        <time>2011-04-10T12:56:35Z</time>
      </trkpt>
      <trkpt lat="43.96466" lon="5.5293">
        <ele>932.666</ele>
        <time>2011-04-10T12:56:45Z</time>
      </trkpt>
      <trkpt lat="43.96478" lon="5.52941">
        <ele>931.423</ele>
        <time>2011-04-10T12:56:55Z</time>
      </trkpt>
      <trkpt lat="43.96488" lon="5.5295">
        <ele>930.594</ele>
        <time>2011-04-10T12:57:05Z</time>
      </trkpt>
      <trkpt lat="43.96491" lon="5.5295">
        <ele>930.918</ele>
        <time>2011-04-10T12:57:15Z</time>
      </trkpt>
      <trkpt lat="43.96491" lon="5.52952">
        <ele>931</ele>
        <time>2011-04-10T12:57:25Z</time>
      </trkpt>
      <trkpt lat="43.96493" lon="5.52954">
        <ele>931.127</ele>
        <time>2011-04-10T12:57:35Z</time>
      </trkpt>
      <trkpt lat="43.96493" lon="5.52953">
        <ele>931.088</ele>
        <time>2011-04-10T12:57:45Z</time>
      </trkpt>
      <trkpt lat="43.96493" lon="5.52954">
        <ele>931.264</ele>
        <time>2011-04-10T12:57:55Z</time>
      </trkpt>
      <trkpt lat="43.96494" lon="5.52954">
        <ele>931.288</ele>
        <time>2011-04-10T12:58:05Z</time>
      </trkpt>
      <trkpt lat="43.96494" lon="5.52953">
        <ele>932.096</ele>
        <time>2011-04-10T12:58:15Z</time>
      </trkpt>
      <trkpt lat="43.96494" lon="5.52953">
        <ele>932.702</ele>
        <time>2011-04-10T12:58:25Z</time>
      </trkpt>
      <trkpt lat="43.96495" lon="5.52953">
        <ele>932.277</ele>
        <time>2011-04-10T12:58:35Z</time>
      </trkpt>
      <trkpt lat="43.96495" lon="5.52953">
        <ele>932.879</ele>
        <time>2011-04-10T12:58:45Z</time>
      </trkpt>
      <trkpt lat="43.96495" lon="5.52953">
        <ele>931.637</ele>
        <time>2011-04-10T12:58:55Z</time>
      </trkpt>
      <trkpt lat="43.96495" lon="5.52953">
        <ele>930.401</ele>
        <time>2011-04-10T12:59:05Z</time>
      </trkpt>
      <trkpt lat="43.96495" lon="5.52953">
        <ele>931.03</ele>
        <time>2011-04-10T12:59:15Z</time>
      </trkpt>
      <trkpt lat="43.96495" lon="5.52953">
        <ele>931.163</ele>
        <time>2011-04-10T12:59:25Z</time>
      </trkpt>
      <trkpt lat="43.96495" lon="5.52953">
        <ele>931.518</ele>
        <time>2011-04-10T12:59:35Z</time>
      </trkpt>
      <trkpt lat="43.96495" lon="5.52953">
        <ele>931.588</ele>
        <time>2011-04-10T12:59:45Z</time>
      </trkpt>
      <trkpt lat="43.96495" lon="5.52953">
        <ele>931.315</ele>
        <time>2011-04-10T12:59:55Z</time>
      </trkpt>
      <trkpt lat="43.96495" lon="5.52953">
        <ele>932.06</ele>
        <time>2011-04-10T13:00:05Z</time>
      </trkpt>
      <trkpt lat="43.96495" lon="5.52954">
        <ele>931.353</ele>
        <time>2011-04-10T13:00:15Z</time>
      </trkpt>
      <trkpt lat="43.96495" lon="5.52954">
        <ele>931.242</ele>
        <time>2011-04-10T13:00:25Z</time>
      </trkpt>
      <trkpt lat="43.96496" lon="5.52954">
        <ele>930.99</ele>
        <time>2011-04-10T13:00:35Z</time>
      </trkpt>
      <trkpt lat="43.96496" lon="5.52956">
        <ele>931.211</ele>
        <time>2011-04-10T13:00:45Z</time>
      </trkpt>
      <trkpt lat="43.96497" lon="5.52956">
        <ele>930.709</ele>
        <time>2011-04-10T13:00:55Z</time>
      </trkpt>
      <trkpt lat="43.96498" lon="5.52957">
        <ele>930.963</ele>
        <time>2011-04-10T13:01:05Z</time>
      </trkpt>
      <trkpt lat="43.965" lon="5.52957">
        <ele>931.035</ele>
        <time>2011-04-10T13:01:15Z</time>
      </trkpt>
      <trkpt lat="43.96502" lon="5.52958">
        <ele>930.53</ele>
        <time>2011-04-10T13:01:25Z</time>
      </trkpt>
      <trkpt lat="43.96503" lon="5.52958">
        <ele>930.604</ele>
        <time>2011-04-10T13:01:35Z</time>
      </trkpt>
      <trkpt lat="43.96504" lon="5.52958">
        <ele>930.544</ele>
        <time>2011-04-10T13:01:45Z</time>
      </trkpt>
      <trkpt lat="43.96503" lon="5.52958">
        <ele>930.935</ele>
        <time>2011-04-10T13:01:55Z</time>
      </trkpt>
      <trkpt lat="43.96503" lon="5.52958">
        <ele>930.616</ele>
        <time>2011-04-10T13:02:05Z</time>
      </trkpt>
      <trkpt lat="43.96501" lon="5.52957">
        <ele>930.445</ele>
        <time>2011-04-10T13:02:15Z</time>
      </trkpt>
      <trkpt lat="43.96499" lon="5.52957">
        <ele>930.633</ele>
        <time>2011-04-10T13:02:25Z</time>
      </trkpt>
      <trkpt lat="43.96497" lon="5.52956">
        <ele>930.45</ele>
        <time>2011-04-10T13:02:35Z</time>
      </trkpt>
      <trkpt lat="43.96496" lon="5.52956">
        <ele>930.67</ele>
        <time>2011-04-10T13:02:45Z</time>
      </trkpt>
      <trkpt lat="43.96496" lon="5.52956">
        <ele>930.775</ele>
        <time>2011-04-10T13:02:55Z</time>
      </trkpt>
      <trkpt lat="43.96496" lon="5.52956">
        <ele>930.402</ele>
        <time>2011-04-10T13:03:05Z</time>
      </trkpt>
      <trkpt lat="43.96496" lon="5.52956">
        <ele>930.813</ele>
        <time>2011-04-10T13:03:15Z</time>
      </trkpt>
      <trkpt lat="43.96496" lon="5.52956">
        <ele>930.72</ele>
        <time>2011-04-10T13:03:25Z</time>
      </trkpt>
      <trkpt lat="43.96496" lon="5.52956">
        <ele>930.659</ele>
        <time>2011-04-10T13:03:35Z</time>
      </trkpt>
      <trkpt lat="43.96496" lon="5.52956">
        <ele>931.265</ele>
        <time>2011-04-10T13:03:45Z</time>
      </trkpt>
      <trkpt lat="43.96494" lon="5.52956">
        <ele>931.532</ele>
        <time>2011-04-10T13:03:55Z</time>
      </trkpt>
      <trkpt lat="43.96494" lon="5.52956">
        <ele>931.6</ele>
        <time>2011-04-10T13:04:05Z</time>
      </trkpt>
      <trkpt lat="43.96494" lon="5.52956">
        <ele>931.116</ele>
        <time>2011-04-10T13:04:15Z</time>
      </trkpt>
      <trkpt lat="43.96494" lon="5.52956">
        <ele>931.314</ele>
        <time>2011-04-10T13:04:25Z</time>
      </trkpt>
      <trkpt lat="43.96494" lon="5.52956">
        <ele>932.189</ele>
        <time>2011-04-10T13:04:35Z</time>
      </trkpt>
      <trkpt lat="43.96494" lon="5.52956">
        <ele>932.132</ele>
        <time>2011-04-10T13:04:45Z</time>
      </trkpt>
      <trkpt lat="43.96491" lon="5.52956">
        <ele>931.655</ele>
        <time>2011-04-10T13:04:55Z</time>
      </trkpt>
      <trkpt lat="43.96491" lon="5.52956">
        <ele>931.791</ele>
        <time>2011-04-10T13:05:05Z</time>
      </trkpt>
      <trkpt lat="43.96491" lon="5.52956">
        <ele>932.056</ele>
        <time>2011-04-10T13:05:15Z</time>
      </trkpt>
      <trkpt lat="43.96491" lon="5.52956">
        <ele>932.398</ele>
        <time>2011-04-10T13:05:25Z</time>
      </trkpt>
      <trkpt lat="43.96491" lon="5.52956">
        <ele>932.118</ele>
        <time>2011-04-10T13:05:35Z</time>
      </trkpt>
      <trkpt lat="43.96491" lon="5.52956">
        <ele>931.778</ele>
        <time>2011-04-10T13:05:45Z</time>
      </trkpt>
      <trkpt lat="43.96491" lon="5.52956">
        <ele>931.95</ele>
        <time>2011-04-10T13:05:55Z</time>
      </trkpt>
      <trkpt lat="43.96491" lon="5.52956">
        <ele>932.024</ele>
        <time>2011-04-10T13:06:05Z</time>
      </trkpt>
      <trkpt lat="43.96491" lon="5.52956">
        <ele>932.078</ele>
        <time>2011-04-10T13:06:15Z</time>
      </trkpt>
      <trkpt lat="43.96491" lon="5.52956">
        <ele>931.885</ele>
        <time>2011-04-10T13:06:25Z</time>
      </trkpt>
      <trkpt lat="43.96491" lon="5.52956">
        <ele>932.276</ele>
        <time>2011-04-10T13:06:35Z</time>
      </trkpt>
      <trkpt lat="43.96491" lon="5.52956">
        <ele>932.085</ele>
        <time>2011-04-10T13:06:45Z</time>
      </trkpt>
      <trkpt lat="43.96491" lon="5.52956">
        <ele>932.063</ele>
        <time>2011-04-10T13:06:55Z</time>
      </trkpt>
      <trkpt lat="43.96491" lon="5.52956">
        <ele>931.958</ele>
        <time>2011-04-10T13:07:05Z</time>
      </trkpt>
      <trkpt lat="43.96491" lon="5.52956">
        <ele>932.743</ele>
        <time>2011-04-10T13:07:15Z</time>
      </trkpt>
      <trkpt lat="43.96491" lon="5.52956">
        <ele>932.626</ele>
        <time>2011-04-10T13:07:25Z</time>
      </trkpt>
      <trkpt lat="43.96491" lon="5.52956">
        <ele>932.378</ele>
        <time>2011-04-10T13:07:35Z</time>
      </trkpt>
      <trkpt lat="43.96491" lon="5.52956">
        <ele>932.287</ele>
        <time>2011-04-10T13:07:45Z</time>
      </trkpt>
      <trkpt lat="43.96491" lon="5.52956">
        <ele>932.476</ele>
        <time>2011-04-10T13:07:55Z</time>
      </trkpt>
      <trkpt lat="43.96491" lon="5.52956">
        <ele>932.193</ele>
        <time>2011-04-10T13:08:05Z</time>
      </trkpt>
      <trkpt lat="43.96491" lon="5.52956">
        <ele>932.251</ele>
        <time>2011-04-10T13:08:15Z</time>
      </trkpt>
      <trkpt lat="43.96491" lon="5.52956">
        <ele>932.658</ele>
        <time>2011-04-10T13:08:25Z</time>
      </trkpt>
      <trkpt lat="43.96491" lon="5.52956">
        <ele>932.217</ele>
        <time>2011-04-10T13:08:35Z</time>
      </trkpt>
      <trkpt lat="43.9649" lon="5.52957">
        <ele>932.181</ele>
        <time>2011-04-10T13:08:45Z</time>
      </trkpt>
      <trkpt lat="43.9649" lon="5.52959">
        <ele>931.786</ele>
        <time>2011-04-10T13:08:55Z</time>
      </trkpt>
      <trkpt lat="43.9649" lon="5.52959">
        <ele>931.917</ele>
        <time>2011-04-10T13:09:05Z</time>
      </trkpt>
      <trkpt lat="43.9649" lon="5.52958">
        <ele>931.529</ele>
        <time>2011-04-10T13:09:15Z</time>
      </trkpt>
      <trkpt lat="43.9649" lon="5.52958">
        <ele>931.957</ele>
        <time>2011-04-10T13:09:25Z</time>
      </trkpt>
      <trkpt lat="43.96491" lon="5.52958">
        <ele>931.922</ele>
        <time>2011-04-10T13:09:35Z</time>
      </trkpt>
      <trkpt lat="43.96489" lon="5.52958">
        <ele>932.07</ele>
        <time>2011-04-10T13:09:45Z</time>
      </trkpt>
      <trkpt lat="43.96487" lon="5.52957">
        <ele>932.106</ele>
        <time>2011-04-10T13:09:55Z</time>
      </trkpt>
      <trkpt lat="43.96486" lon="5.52958">
        <ele>931.901</ele>
        <time>2011-04-10T13:10:05Z</time>
      </trkpt>
      <trkpt lat="43.96486" lon="5.52959">
        <ele>931.766</ele>
        <time>2011-04-10T13:10:15Z</time>
      </trkpt>
      <trkpt lat="43.96487" lon="5.52958">
        <ele>931.651</ele>
        <time>2011-04-10T13:10:25Z</time>
      </trkpt>
      <trkpt lat="43.9649" lon="5.52954">
        <ele>931.525</ele>
        <time>2011-04-10T13:10:35Z</time>
      </trkpt>
      <trkpt lat="43.9649" lon="5.52954">
        <ele>931.892</ele>
        <time>2011-04-10T13:10:45Z</time>
      </trkpt>
      <trkpt lat="43.96491" lon="5.52954">
        <ele>931.811</ele>
        <time>2011-04-10T13:10:55Z</time>
      </trkpt>
      <trkpt lat="43.9649" lon="5.52956">
        <ele>931.945</ele>
        <time>2011-04-10T13:11:05Z</time>
      </trkpt>
      <trkpt lat="43.96489" lon="5.52957">
        <ele>932.47</ele>
        <time>2011-04-10T13:11:15Z</time>
      </trkpt>
      <trkpt lat="43.96489" lon="5.52958">
        <ele>932.787</ele>
        <time>2011-04-10T13:11:25Z</time>
      </trkpt>
      <trkpt lat="43.9649" lon="5.52959">
        <ele>932.505</ele>
        <time>2011-04-10T13:11:35Z</time>
      </trkpt>
      <trkpt lat="43.96489" lon="5.52956">
        <ele>932.812</ele>
        <time>2011-04-10T13:11:45Z</time>
      </trkpt>
      <trkpt lat="43.96488" lon="5.52955">
        <ele>932.523</ele>
        <time>2011-04-10T13:11:55Z</time>
      </trkpt>
      <trkpt lat="43.96488" lon="5.52955">
        <ele>932.482</ele>
        <time>2011-04-10T13:12:05Z</time>
      </trkpt>
      <trkpt lat="43.96486" lon="5.5296">
        <ele>931.186</ele>
        <time>2011-04-10T13:12:15Z</time>
      </trkpt>
      <trkpt lat="43.9649" lon="5.52968">
        <ele>930.68</ele>
        <time>2011-04-10T13:12:25Z</time>
      </trkpt>
      <trkpt lat="43.96497" lon="5.52972">
        <ele>929.123</ele>
        <time>2011-04-10T13:12:35Z</time>
      </trkpt>
      <trkpt lat="43.965" lon="5.52976">
        <ele>928.484</ele>
        <time>2011-04-10T13:12:45Z</time>
      </trkpt>
      <trkpt lat="43.96505" lon="5.52984">
        <ele>927.703</ele>
        <time>2011-04-10T13:12:55Z</time>
      </trkpt>
      <trkpt lat="43.96514" lon="5.52994">
        <ele>925.907</ele>
        <time>2011-04-10T13:13:05Z</time>
      </trkpt>
      <trkpt lat="43.96524" lon="5.53003">
        <ele>924.631</ele>
        <time>2011-04-10T13:13:15Z</time>
      </trkpt>
      <trkpt lat="43.96531" lon="5.53011">
        <ele>923.809</ele>
        <time>2011-04-10T13:13:25Z</time>
      </trkpt>
      <trkpt lat="43.96536" lon="5.53013">
        <ele>922.842</ele>
        <time>2011-04-10T13:13:35Z</time>
      </trkpt>
      <trkpt lat="43.96536" lon="5.53015">
        <ele>922.605</ele>
        <time>2011-04-10T13:13:45Z</time>
      </trkpt>
      <trkpt lat="43.96544" lon="5.53023">
        <ele>920.982</ele>
        <time>2011-04-10T13:13:55Z</time>
      </trkpt>
      <trkpt lat="43.9655" lon="5.53027">
        <ele>920.596</ele>
        <time>2011-04-10T13:14:05Z</time>
      </trkpt>
      <trkpt lat="43.96552" lon="5.5303">
        <ele>919.855</ele>
        <time>2011-04-10T13:14:15Z</time>
      </trkpt>
      <trkpt lat="43.96563" lon="5.53035">
        <ele>918.373</ele>
        <time>2011-04-10T13:14:25Z</time>
      </trkpt>
      <trkpt lat="43.96574" lon="5.53041">
        <ele>916.847</ele>
        <time>2011-04-10T13:14:35Z</time>
      </trkpt>
      <trkpt lat="43.96584" lon="5.5305">
        <ele>915.794</ele>
        <time>2011-04-10T13:14:45Z</time>
      </trkpt>
      <trkpt lat="43.96593" lon="5.53058">
        <ele>913.516</ele>
        <time>2011-04-10T13:14:55Z</time>
      </trkpt>
      <trkpt lat="43.96603" lon="5.53066">
        <ele>911.839</ele>
        <time>2011-04-10T13:15:05Z</time>
      </trkpt>
      <trkpt lat="43.96613" lon="5.53071">
        <ele>911.036</ele>
        <time>2011-04-10T13:15:15Z</time>
      </trkpt>
      <trkpt lat="43.96624" lon="5.53077">
        <ele>910.681</ele>
        <time>2011-04-10T13:15:25Z</time>
      </trkpt>
      <trkpt lat="43.96639" lon="5.53084">
        <ele>909.729</ele>
        <time>2011-04-10T13:15:35Z</time>
      </trkpt>
      <trkpt lat="43.96647" lon="5.53094">
        <ele>908.976</ele>
        <time>2011-04-10T13:15:45Z</time>
      </trkpt>
      <trkpt lat="43.96656" lon="5.53107">
        <ele>907.146</ele>
        <time>2011-04-10T13:15:55Z</time>
      </trkpt>
      <trkpt lat="43.96666" lon="5.53118">
        <ele>905.348</ele>
        <time>2011-04-10T13:16:05Z</time>
      </trkpt>
      <trkpt lat="43.96673" lon="5.53135">
        <ele>903.468</ele>
        <time>2011-04-10T13:16:15Z</time>
      </trkpt>
      <trkpt lat="43.9668" lon="5.53148">
        <ele>901.333</ele>
        <time>2011-04-10T13:16:25Z</time>
      </trkpt>
      <trkpt lat="43.96688" lon="5.53162">
        <ele>899.582</ele>
        <time>2011-04-10T13:16:35Z</time>
      </trkpt>
      <trkpt lat="43.96699" lon="5.53172">
        <ele>897.998</ele>
        <time>2011-04-10T13:16:45Z</time>
      </trkpt>
      <trkpt lat="43.96709" lon="5.53181">
        <ele>896.832</ele>
        <time>2011-04-10T13:16:55Z</time>
      </trkpt>
      <trkpt lat="43.96719" lon="5.53192">
        <ele>895.72</ele>
        <time>2011-04-10T13:17:05Z</time>
      </trkpt>
      <trkpt lat="43.96725" lon="5.53198">
        <ele>894.931</ele>
        <time>2011-04-10T13:17:15Z</time>
      </trkpt>
      <trkpt lat="43.96739" lon="5.53206">
        <ele>894.227</ele>
        <time>2011-04-10T13:17:25Z</time>
      </trkpt>
      <trkpt lat="43.96753" lon="5.53214">
        <ele>894.01</ele>
        <time>2011-04-10T13:17:35Z</time>
      </trkpt>
      <trkpt lat="43.96759" lon="5.53225">
        <ele>893.018</ele>
        <time>2011-04-10T13:17:45Z</time>
      </trkpt>
      <trkpt lat="43.9677" lon="5.53235">
        <ele>891.852</ele>
        <time>2011-04-10T13:17:55Z</time>
      </trkpt>
      <trkpt lat="43.9678" lon="5.53245">
        <ele>891.235</ele>
        <time>2011-04-10T13:18:05Z</time>
      </trkpt>
      <trkpt lat="43.9679" lon="5.53254">
        <ele>889.895</ele>
        <time>2011-04-10T13:18:15Z</time>
      </trkpt>
      <trkpt lat="43.96803" lon="5.5326">
        <ele>888.952</ele>
        <time>2011-04-10T13:18:25Z</time>
      </trkpt>
      <trkpt lat="43.96813" lon="5.53271">
        <ele>888.409</ele>
        <time>2011-04-10T13:18:35Z</time>
      </trkpt>
      <trkpt lat="43.96822" lon="5.53282">
        <ele>887.136</ele>
        <time>2011-04-10T13:18:45Z</time>
      </trkpt>
      <trkpt lat="43.96831" lon="5.53292">
        <ele>886.488</ele>
        <time>2011-04-10T13:18:55Z</time>
      </trkpt>
      <trkpt lat="43.96842" lon="5.53301">
        <ele>885.582</ele>
        <time>2011-04-10T13:19:05Z</time>
      </trkpt>
      <trkpt lat="43.96852" lon="5.53312">
        <ele>884.877</ele>
        <time>2011-04-10T13:19:15Z</time>
      </trkpt>
      <trkpt lat="43.96863" lon="5.53325">
        <ele>883.547</ele>
        <time>2011-04-10T13:19:25Z</time>
      </trkpt>
      <trkpt lat="43.9687" lon="5.53337">
        <ele>882.962</ele>
        <time>2011-04-10T13:19:35Z</time>
      </trkpt>
      <trkpt lat="43.96877" lon="5.53351">
        <ele>882.316</ele>
        <time>2011-04-10T13:19:45Z</time>
      </trkpt>
      <trkpt lat="43.96881" lon="5.53364">
        <ele>881.456</ele>
        <time>2011-04-10T13:19:55Z</time>
      </trkpt>
      <trkpt lat="43.9688" lon="5.53365">
        <ele>881.334</ele>
        <time>2011-04-10T13:20:05Z</time>
      </trkpt>
      <trkpt lat="43.9688" lon="5.53365">
        <ele>881.661</ele>
        <time>2011-04-10T13:20:15Z</time>
      </trkpt>
      <trkpt lat="43.96881" lon="5.53367">
        <ele>881.137</ele>
        <time>2011-04-10T13:20:25Z</time>
      </trkpt>
      <trkpt lat="43.9688" lon="5.53367">
        <ele>880.729</ele>
        <time>2011-04-10T13:20:35Z</time>
      </trkpt>
      <trkpt lat="43.9688" lon="5.53367">
        <ele>881.167</ele>
        <time>2011-04-10T13:20:45Z</time>
      </trkpt>
      <trkpt lat="43.96882" lon="5.53371">
        <ele>880.839</ele>
        <time>2011-04-10T13:20:55Z</time>
      </trkpt>
      <trkpt lat="43.96887" lon="5.53379">
        <ele>881.003</ele>
        <time>2011-04-10T13:21:05Z</time>
      </trkpt>
      <trkpt lat="43.9689" lon="5.53392">
        <ele>881.403</ele>
        <time>2011-04-10T13:21:15Z</time>
      </trkpt>
      <trkpt lat="43.96891" lon="5.53401">
        <ele>881.4</ele>
        <time>2011-04-10T13:21:25Z</time>
      </trkpt>
      <trkpt lat="43.96891" lon="5.5341">
        <ele>881.518</ele>
        <time>2011-04-10T13:21:35Z</time>
      </trkpt>
      <trkpt lat="43.96892" lon="5.5341">
        <ele>881.765</ele>
        <time>2011-04-10T13:21:45Z</time>
      </trkpt>
      <trkpt lat="43.96894" lon="5.53414">
        <ele>881.859</ele>
        <time>2011-04-10T13:21:55Z</time>
      </trkpt>
      <trkpt lat="43.96894" lon="5.53421">
        <ele>881.768</ele>
        <time>2011-04-10T13:22:05Z</time>
      </trkpt>
      <trkpt lat="43.96896" lon="5.53424">
        <ele>882.709</ele>
        <time>2011-04-10T13:22:15Z</time>
      </trkpt>
      <trkpt lat="43.96902" lon="5.53428">
        <ele>882.673</ele>
        <time>2011-04-10T13:22:25Z</time>
      </trkpt>
      <trkpt lat="43.96908" lon="5.53433">
        <ele>883.268</ele>
        <time>2011-04-10T13:22:35Z</time>
      </trkpt>
      <trkpt lat="43.96915" lon="5.53438">
        <ele>884.097</ele>
        <time>2011-04-10T13:22:45Z</time>
      </trkpt>
      <trkpt lat="43.96926" lon="5.53446">
        <ele>884.433</ele>
        <time>2011-04-10T13:22:55Z</time>
      </trkpt>
      <trkpt lat="43.96936" lon="5.53456">
        <ele>884.374</ele>
        <time>2011-04-10T13:23:05Z</time>
      </trkpt>
      <trkpt lat="43.96942" lon="5.53469">
        <ele>885.987</ele>
        <time>2011-04-10T13:23:15Z</time>
      </trkpt>
      <trkpt lat="43.96949" lon="5.53475">
        <ele>886.286</ele>
        <time>2011-04-10T13:23:25Z</time>
      </trkpt>
      <trkpt lat="43.96962" lon="5.53481">
        <ele>885.496</ele>
        <time>2011-04-10T13:23:35Z</time>
      </trkpt>
      <trkpt lat="43.9697" lon="5.53489">
        <ele>886.029</ele>
        <time>2011-04-10T13:23:45Z</time>
      </trkpt>
      <trkpt lat="43.96979" lon="5.53497">
        <ele>885.809</ele>
        <time>2011-04-10T13:23:55Z</time>
      </trkpt>
      <trkpt lat="43.96991" lon="5.53503">
        <ele>885.945</ele>
        <time>2011-04-10T13:24:05Z</time>
      </trkpt>
      <trkpt lat="43.97" lon="5.53511">
        <ele>885.838</ele>
        <time>2011-04-10T13:24:15Z</time>
      </trkpt>
      <trkpt lat="43.9701" lon="5.53518">
        <ele>885.953</ele>
        <time>2011-04-10T13:24:25Z</time>
      </trkpt>
      <trkpt lat="43.97023" lon="5.53524">
        <ele>886.072</ele>
        <time>2011-04-10T13:24:35Z</time>
      </trkpt>
      <trkpt lat="43.97035" lon="5.53533">
        <ele>885.96</ele>
        <time>2011-04-10T13:24:45Z</time>
      </trkpt>
      <trkpt lat="43.97044" lon="5.53542">
        <ele>886.12</ele>
        <time>2011-04-10T13:24:55Z</time>
      </trkpt>
      <trkpt lat="43.97054" lon="5.53551">
        <ele>886.366</ele>
        <time>2011-04-10T13:25:05Z</time>
      </trkpt>
      <trkpt lat="43.97064" lon="5.5356">
        <ele>886.785</ele>
        <time>2011-04-10T13:25:15Z</time>
      </trkpt>
      <trkpt lat="43.97073" lon="5.5357">
        <ele>886.862</ele>
        <time>2011-04-10T13:25:25Z</time>
      </trkpt>
      <trkpt lat="43.97082" lon="5.5358">
        <ele>887.242</ele>
        <time>2011-04-10T13:25:35Z</time>
      </trkpt>
      <trkpt lat="43.9709" lon="5.53589">
        <ele>887.628</ele>
        <time>2011-04-10T13:25:45Z</time>
      </trkpt>
      <trkpt lat="43.97098" lon="5.53598">
        <ele>888.311</ele>
        <time>2011-04-10T13:25:55Z</time>
      </trkpt>
      <trkpt lat="43.97106" lon="5.5361">
        <ele>889.754</ele>
        <time>2011-04-10T13:26:05Z</time>
      </trkpt>
      <trkpt lat="43.9711" lon="5.53621">
        <ele>890.383</ele>
        <time>2011-04-10T13:26:15Z</time>
      </trkpt>
      <trkpt lat="43.97117" lon="5.53633">
        <ele>890.506</ele>
        <time>2011-04-10T13:26:25Z</time>
      </trkpt>
      <trkpt lat="43.97124" lon="5.53645">
        <ele>891.603</ele>
        <time>2011-04-10T13:26:35Z</time>
      </trkpt>
      <trkpt lat="43.97132" lon="5.53657">
        <ele>892.255</ele>
        <time>2011-04-10T13:26:45Z</time>
      </trkpt>
      <trkpt lat="43.97139" lon="5.53669">
        <ele>892.871</ele>
        <time>2011-04-10T13:26:55Z</time>
      </trkpt>
      <trkpt lat="43.97148" lon="5.53683">
        <ele>892.868</ele>
        <time>2011-04-10T13:27:05Z</time>
      </trkpt>
      <trkpt lat="43.97157" lon="5.53698">
        <ele>893.613</ele>
        <time>2011-04-10T13:27:15Z</time>
      </trkpt>
      <trkpt lat="43.97166" lon="5.53713">
        <ele>894.332</ele>
        <time>2011-04-10T13:27:25Z</time>
      </trkpt>
      <trkpt lat="43.97174" lon="5.53727">
        <ele>895.279</ele>
        <time>2011-04-10T13:27:35Z</time>
      </trkpt>
      <trkpt lat="43.97184" lon="5.53742">
        <ele>896.398</ele>
        <time>2011-04-10T13:27:45Z</time>
      </trkpt>
      <trkpt lat="43.97193" lon="5.53753">
        <ele>896.674</ele>
        <time>2011-04-10T13:27:55Z</time>
      </trkpt>
      <trkpt lat="43.97199" lon="5.53767">
        <ele>898.264</ele>
        <time>2011-04-10T13:28:05Z</time>
      </trkpt>
      <trkpt lat="43.97205" lon="5.53781">
        <ele>899.456</ele>
        <time>2011-04-10T13:28:15Z</time>
      </trkpt>
      <trkpt lat="43.97208" lon="5.53797">
        <ele>900.249</ele>
        <time>2011-04-10T13:28:25Z</time>
      </trkpt>
      <trkpt lat="43.97212" lon="5.53813">
        <ele>901.372</ele>
        <time>2011-04-10T13:28:35Z</time>
      </trkpt>
      <trkpt lat="43.97221" lon="5.53825">
        <ele>903.255</ele>
        <time>2011-04-10T13:28:45Z</time>
      </trkpt>
      <trkpt lat="43.97227" lon="5.53841">
        <ele>904.298</ele>
        <time>2011-04-10T13:28:55Z</time>
      </trkpt>
      <trkpt lat="43.97236" lon="5.53856">
        <ele>904.908</ele>
        <time>2011-04-10T13:29:05Z</time>
      </trkpt>
      <trkpt lat="43.97241" lon="5.53872">
        <ele>905.336</ele>
        <time>2011-04-10T13:29:15Z</time>
      </trkpt>
      <trkpt lat="43.97244" lon="5.53888">
        <ele>905.484</ele>
        <time>2011-04-10T13:29:25Z</time>
      </trkpt>
      <trkpt lat="43.97248" lon="5.53903">
        <ele>905.453</ele>
        <time>2011-04-10T13:29:35Z</time>
      </trkpt>
      <trkpt lat="43.9725" lon="5.53918">
        <ele>905.325</ele>
        <time>2011-04-10T13:29:45Z</time>
      </trkpt>
      <trkpt lat="43.97248" lon="5.53933">
        <ele>905.67</ele>
        <time>2011-04-10T13:29:55Z</time>
      </trkpt>
      <trkpt lat="43.97251" lon="5.53942">
        <ele>904.477</ele>
        <time>2011-04-10T13:30:05Z</time>
      </trkpt>
      <trkpt lat="43.97252" lon="5.5395">
        <ele>903.984</ele>
        <time>2011-04-10T13:30:15Z</time>
      </trkpt>
      <trkpt lat="43.97255" lon="5.53957">
        <ele>903.992</ele>
        <time>2011-04-10T13:30:25Z</time>
      </trkpt>
      <trkpt lat="43.97259" lon="5.53966">
        <ele>903.496</ele>
        <time>2011-04-10T13:30:35Z</time>
      </trkpt>
      <trkpt lat="43.97252" lon="5.53959">
        <ele>904.735</ele>
        <time>2011-04-10T13:30:45Z</time>
      </trkpt>
      <trkpt lat="43.97252" lon="5.53972">
        <ele>904.146</ele>
        <time>2011-04-10T13:30:55Z</time>
      </trkpt>
      <trkpt lat="43.97255" lon="5.53987">
        <ele>903.405</ele>
        <time>2011-04-10T13:31:05Z</time>
      </trkpt>
      <trkpt lat="43.97258" lon="5.54002">
        <ele>902.318</ele>
        <time>2011-04-10T13:31:15Z</time>
      </trkpt>
      <trkpt lat="43.97262" lon="5.54018">
        <ele>901.612</ele>
        <time>2011-04-10T13:31:25Z</time>
      </trkpt>
      <trkpt lat="43.97265" lon="5.54036">
        <ele>900.984</ele>
        <time>2011-04-10T13:31:35Z</time>
      </trkpt>
      <trkpt lat="43.97266" lon="5.54053">
        <ele>900.049</ele>
        <time>2011-04-10T13:31:45Z</time>
      </trkpt>
      <trkpt lat="43.9727" lon="5.54068">
        <ele>899.193</ele>
        <time>2011-04-10T13:31:55Z</time>
      </trkpt>
      <trkpt lat="43.97274" lon="5.54082">
        <ele>898.361</ele>
        <time>2011-04-10T13:32:05Z</time>
      </trkpt>
      <trkpt lat="43.97275" lon="5.54099">
        <ele>897.418</ele>
        <time>2011-04-10T13:32:15Z</time>
      </trkpt>
      <trkpt lat="43.97277" lon="5.54111">
        <ele>897.299</ele>
        <time>2011-04-10T13:32:25Z</time>
      </trkpt>
      <trkpt lat="43.97274" lon="5.54114">
        <ele>896.744</ele>
        <time>2011-04-10T13:32:35Z</time>
      </trkpt>
      <trkpt lat="43.97279" lon="5.5413">
        <ele>895.879</ele>
        <time>2011-04-10T13:32:45Z</time>
      </trkpt>
      <trkpt lat="43.97283" lon="5.54147">
        <ele>894.907</ele>
        <time>2011-04-10T13:32:55Z</time>
      </trkpt>
      <trkpt lat="43.97287" lon="5.54159">
        <ele>893.893</ele>
        <time>2011-04-10T13:33:05Z</time>
      </trkpt>
      <trkpt lat="43.97294" lon="5.54173">
        <ele>892.808</ele>
        <time>2011-04-10T13:33:15Z</time>
      </trkpt>
      <trkpt lat="43.97299" lon="5.54189">
        <ele>891.972</ele>
        <time>2011-04-10T13:33:25Z</time>
      </trkpt>
      <trkpt lat="43.97305" lon="5.54204">
        <ele>890.322</ele>
        <time>2011-04-10T13:33:35Z</time>
      </trkpt>
      <trkpt lat="43.97308" lon="5.54217">
        <ele>889.162</ele>
        <time>2011-04-10T13:33:45Z</time>
      </trkpt>
      <trkpt lat="43.97315" lon="5.54228">
        <ele>888.342</ele>
        <time>2011-04-10T13:33:55Z</time>
      </trkpt>
      <trkpt lat="43.9732" lon="5.54243">
        <ele>887.717</ele>
        <time>2011-04-10T13:34:05Z</time>
      </trkpt>
      <trkpt lat="43.97325" lon="5.5426">
        <ele>886.385</ele>
        <time>2011-04-10T13:34:15Z</time>
      </trkpt>
      <trkpt lat="43.9733" lon="5.54273">
        <ele>885.344</ele>
        <time>2011-04-10T13:34:25Z</time>
      </trkpt>
      <trkpt lat="43.97334" lon="5.54287">
        <ele>883.923</ele>
        <time>2011-04-10T13:34:35Z</time>
      </trkpt>
      <trkpt lat="43.97337" lon="5.54304">
        <ele>883.344</ele>
        <time>2011-04-10T13:34:45Z</time>
      </trkpt>
      <trkpt lat="43.97339" lon="5.54323">
        <ele>882.214</ele>
        <time>2011-04-10T13:34:55Z</time>
      </trkpt>
      <trkpt lat="43.9734" lon="5.5434">
        <ele>882.06</ele>
        <time>2011-04-10T13:35:05Z</time>
      </trkpt>
      <trkpt lat="43.97341" lon="5.54353">
        <ele>880.975</ele>
        <time>2011-04-10T13:35:15Z</time>
      </trkpt>
      <trkpt lat="43.97343" lon="5.54368">
        <ele>879.696</ele>
        <time>2011-04-10T13:35:25Z</time>
      </trkpt>
      <trkpt lat="43.97349" lon="5.54379">
        <ele>878.643</ele>
        <time>2011-04-10T13:35:35Z</time>
      </trkpt>
      <trkpt lat="43.97357" lon="5.5439">
        <ele>876.864</ele>
        <time>2011-04-10T13:35:45Z</time>
      </trkpt>
      <trkpt lat="43.97365" lon="5.544">
        <ele>875.521</ele>
        <time>2011-04-10T13:35:55Z</time>
      </trkpt>
      <trkpt lat="43.9737" lon="5.54415">
        <ele>873.854</ele>
        <time>2011-04-10T13:36:05Z</time>
      </trkpt>
      <trkpt lat="43.9737" lon="5.54429">
        <ele>873.026</ele>
        <time>2011-04-10T13:36:15Z</time>
      </trkpt>
      <trkpt lat="43.9737" lon="5.5443">
        <ele>872.38</ele>
        <time>2011-04-10T13:36:25Z</time>
      </trkpt>
      <trkpt lat="43.97369" lon="5.54436">
        <ele>871.221</ele>
        <time>2011-04-10T13:36:35Z</time>
      </trkpt>
      <trkpt lat="43.97367" lon="5.54453">
        <ele>870.693</ele>
        <time>2011-04-10T13:36:45Z</time>
      </trkpt>
      <trkpt lat="43.97365" lon="5.54466">
        <ele>869.033</ele>
        <time>2011-04-10T13:36:55Z</time>
      </trkpt>
      <trkpt lat="43.97363" lon="5.54469">
        <ele>868.556</ele>
        <time>2011-04-10T13:37:05Z</time>
      </trkpt>
      <trkpt lat="43.97363" lon="5.54469">
        <ele>868.815</ele>
        <time>2011-04-10T13:37:15Z</time>
      </trkpt>
      <trkpt lat="43.97363" lon="5.54469">
        <ele>867.307</ele>
        <time>2011-04-10T13:37:25Z</time>
      </trkpt>
      <trkpt lat="43.97363" lon="5.54469">
        <ele>868.412</ele>
        <time>2011-04-10T13:37:35Z</time>
      </trkpt>
      <trkpt lat="43.97363" lon="5.54469">
        <ele>868.169</ele>
        <time>2011-04-10T13:37:45Z</time>
      </trkpt>
      <trkpt lat="43.97363" lon="5.54469">
        <ele>868.83</ele>
        <time>2011-04-10T13:37:55Z</time>
      </trkpt>
      <trkpt lat="43.97363" lon="5.54469">
        <ele>868.5</ele>
        <time>2011-04-10T13:38:05Z</time>
      </trkpt>
      <trkpt lat="43.97363" lon="5.54469">
        <ele>868.911</ele>
        <time>2011-04-10T13:38:15Z</time>
      </trkpt>
      <trkpt lat="43.97363" lon="5.54469">
        <ele>868.883</ele>
        <time>2011-04-10T13:38:25Z</time>
      </trkpt>
      <trkpt lat="43.97363" lon="5.54469">
        <ele>869.136</ele>
        <time>2011-04-10T13:38:35Z</time>
      </trkpt>
      <trkpt lat="43.97363" lon="5.54469">
        <ele>869.001</ele>
        <time>2011-04-10T13:38:45Z</time>
      </trkpt>
      <trkpt lat="43.97363" lon="5.54469">
        <ele>868.764</ele>
        <time>2011-04-10T13:38:55Z</time>
      </trkpt>
      <trkpt lat="43.97363" lon="5.54469">
        <ele>868.458</ele>
        <time>2011-04-10T13:39:05Z</time>
      </trkpt>
      <trkpt lat="43.97363" lon="5.54469">
        <ele>868.143</ele>
        <time>2011-04-10T13:39:15Z</time>
      </trkpt>
      <trkpt lat="43.97363" lon="5.54469">
        <ele>868.191</ele>
        <time>2011-04-10T13:39:25Z</time>
      </trkpt>
      <trkpt lat="43.97363" lon="5.54469">
        <ele>868.356</ele>
        <time>2011-04-10T13:39:35Z</time>
      </trkpt>
      <trkpt lat="43.97363" lon="5.54469">
        <ele>867.956</ele>
        <time>2011-04-10T13:39:45Z</time>
      </trkpt>
      <trkpt lat="43.97363" lon="5.54469">
        <ele>868.169</ele>
        <time>2011-04-10T13:39:55Z</time>
      </trkpt>
      <trkpt lat="43.97363" lon="5.54474">
        <ele>867.578</ele>
        <time>2011-04-10T13:40:05Z</time>
      </trkpt>
      <trkpt lat="43.97361" lon="5.54483">
        <ele>866.372</ele>
        <time>2011-04-10T13:40:15Z</time>
      </trkpt>
      <trkpt lat="43.9736" lon="5.54494">
        <ele>865.604</ele>
        <time>2011-04-10T13:40:25Z</time>
      </trkpt>
      <trkpt lat="43.97356" lon="5.54505">
        <ele>864.285</ele>
        <time>2011-04-10T13:40:35Z</time>
      </trkpt>
      <trkpt lat="43.97353" lon="5.54512">
        <ele>862.772</ele>
        <time>2011-04-10T13:40:45Z</time>
      </trkpt>
      <trkpt lat="43.97348" lon="5.54524">
        <ele>860.993</ele>
        <time>2011-04-10T13:40:55Z</time>
      </trkpt>
      <trkpt lat="43.97342" lon="5.54534">
        <ele>858.644</ele>
        <time>2011-04-10T13:41:05Z</time>
      </trkpt>
      <trkpt lat="43.97336" lon="5.54543">
        <ele>857.222</ele>
        <time>2011-04-10T13:41:15Z</time>
      </trkpt>
      <trkpt lat="43.97328" lon="5.54552">
        <ele>856.244</ele>
        <time>2011-04-10T13:41:25Z</time>
      </trkpt>
      <trkpt lat="43.97319" lon="5.54561">
        <ele>854.658</ele>
        <time>2011-04-10T13:41:35Z</time>
      </trkpt>
      <trkpt lat="43.97309" lon="5.54569">
        <ele>852.589</ele>
        <time>2011-04-10T13:41:45Z</time>
      </trkpt>
      <trkpt lat="43.97303" lon="5.54576">
        <ele>850.66</ele>
        <time>2011-04-10T13:41:55Z</time>
      </trkpt>
      <trkpt lat="43.97296" lon="5.54586">
        <ele>849.222</ele>
        <time>2011-04-10T13:42:05Z</time>
      </trkpt>
      <trkpt lat="43.97288" lon="5.54596">
        <ele>847.598</ele>
        <time>2011-04-10T13:42:15Z</time>
      </trkpt>
      <trkpt lat="43.97281" lon="5.54606">
        <ele>846.005</ele>
        <time>2011-04-10T13:42:25Z</time>
      </trkpt>
      <trkpt lat="43.97273" lon="5.54616">
        <ele>845.172</ele>
        <time>2011-04-10T13:42:35Z</time>
      </trkpt>
      <trkpt lat="43.97266" lon="5.54629">
        <ele>843.894</ele>
        <time>2011-04-10T13:42:45Z</time>
      </trkpt>
      <trkpt lat="43.97259" lon="5.5464">
        <ele>842.782</ele>
        <time>2011-04-10T13:42:55Z</time>
      </trkpt>
      <trkpt lat="43.97251" lon="5.54655">
        <ele>841.299</ele>
        <time>2011-04-10T13:43:05Z</time>
      </trkpt>
      <trkpt lat="43.97241" lon="5.54667">
        <ele>840.372</ele>
        <time>2011-04-10T13:43:15Z</time>
      </trkpt>
      <trkpt lat="43.97234" lon="5.5468">
        <ele>839.101</ele>
        <time>2011-04-10T13:43:25Z</time>
      </trkpt>
      <trkpt lat="43.97227" lon="5.54691">
        <ele>837.987</ele>
        <time>2011-04-10T13:43:35Z</time>
      </trkpt>
      <trkpt lat="43.97221" lon="5.54703">
        <ele>835.779</ele>
        <time>2011-04-10T13:43:45Z</time>
      </trkpt>
      <trkpt lat="43.97214" lon="5.54714">
        <ele>834.56</ele>
        <time>2011-04-10T13:43:55Z</time>
      </trkpt>
      <trkpt lat="43.97208" lon="5.54726">
        <ele>832.76</ele>
        <time>2011-04-10T13:44:05Z</time>
      </trkpt>
      <trkpt lat="43.972" lon="5.54736">
        <ele>830.915</ele>
        <time>2011-04-10T13:44:15Z</time>
      </trkpt>
      <trkpt lat="43.97192" lon="5.54749">
        <ele>828.52</ele>
        <time>2011-04-10T13:44:25Z</time>
      </trkpt>
      <trkpt lat="43.97187" lon="5.54763">
        <ele>826.677</ele>
        <time>2011-04-10T13:44:35Z</time>
      </trkpt>
      <trkpt lat="43.97179" lon="5.54775">
        <ele>825.27</ele>
        <time>2011-04-10T13:44:45Z</time>
      </trkpt>
      <trkpt lat="43.97171" lon="5.54788">
        <ele>823.52</ele>
        <time>2011-04-10T13:44:55Z</time>
      </trkpt>
      <trkpt lat="43.97159" lon="5.54796">
        <ele>822.304</ele>
        <time>2011-04-10T13:45:05Z</time>
      </trkpt>
      <trkpt lat="43.97152" lon="5.54806">
        <ele>820.104</ele>
        <time>2011-04-10T13:45:15Z</time>
      </trkpt>
      <trkpt lat="43.97144" lon="5.54817">
        <ele>818.378</ele>
        <time>2011-04-10T13:45:25Z</time>
      </trkpt>
      <trkpt lat="43.97137" lon="5.5482">
        <ele>817.183</ele>
        <time>2011-04-10T13:45:35Z</time>
      </trkpt>
      <trkpt lat="43.97138" lon="5.54831">
        <ele>816.172</ele>
        <time>2011-04-10T13:45:45Z</time>
      </trkpt>
      <trkpt lat="43.97143" lon="5.54835">
        <ele>815.801</ele>
        <time>2011-04-10T13:45:55Z</time>
      </trkpt>
      <trkpt lat="43.97149" lon="5.54845">
        <ele>814.325</ele>
        <time>2011-04-10T13:46:05Z</time>
      </trkpt>
      <trkpt lat="43.97155" lon="5.5485">
        <ele>812.867</ele>
        <time>2011-04-10T13:46:15Z</time>
      </trkpt>
      <trkpt lat="43.97156" lon="5.54863">
        <ele>810.679</ele>
        <time>2011-04-10T13:46:25Z</time>
      </trkpt>
      <trkpt lat="43.97144" lon="5.54865">
        <ele>808.859</ele>
        <time>2011-04-10T13:46:35Z</time>
      </trkpt>
      <trkpt lat="43.97133" lon="5.54866">
        <ele>806.996</ele>
        <time>2011-04-10T13:46:45Z</time>
      </trkpt>
      <trkpt lat="43.97121" lon="5.54863">
        <ele>804.957</ele>
        <time>2011-04-10T13:46:55Z</time>
      </trkpt>
      <trkpt lat="43.9711" lon="5.54858">
        <ele>803.501</ele>
        <time>2011-04-10T13:47:05Z</time>
      </trkpt>
      <trkpt lat="43.971" lon="5.54854">
        <ele>801.945</ele>
        <time>2011-04-10T13:47:15Z</time>
      </trkpt>
      <trkpt lat="43.97089" lon="5.54853">
        <ele>800.274</ele>
        <time>2011-04-10T13:47:25Z</time>
      </trkpt>
      <trkpt lat="43.97082" lon="5.54861">
        <ele>799.269</ele>
        <time>2011-04-10T13:47:35Z</time>
      </trkpt>
      <trkpt lat="43.97077" lon="5.54871">
        <ele>797.697</ele>
        <time>2011-04-10T13:47:45Z</time>
      </trkpt>
      <trkpt lat="43.9707" lon="5.54881">
        <ele>796.948</ele>
        <time>2011-04-10T13:47:55Z</time>
      </trkpt>
      <trkpt lat="43.97062" lon="5.54888">
        <ele>795.693</ele>
        <time>2011-04-10T13:48:05Z</time>
      </trkpt>
      <trkpt lat="43.97052" lon="5.54898">
        <ele>794.769</ele>
        <time>2011-04-10T13:48:15Z</time>
      </trkpt>
      <trkpt lat="43.97044" lon="5.54908">
        <ele>793.563</ele>
        <time>2011-04-10T13:48:25Z</time>
      </trkpt>
      <trkpt lat="43.97038" lon="5.54913">
        <ele>792.244</ele>
        <time>2011-04-10T13:48:35Z</time>
      </trkpt>
      <trkpt lat="43.9704" lon="5.54914">
        <ele>791.764</ele>
        <time>2011-04-10T13:48:45Z</time>
      </trkpt>
      <trkpt lat="43.97045" lon="5.54906">
        <ele>793.059</ele>
        <time>2011-04-10T13:48:55Z</time>
      </trkpt>
      <trkpt lat="43.97047" lon="5.54904">
        <ele>793.42</ele>
        <time>2011-04-10T13:49:05Z</time>
      </trkpt>
      <trkpt lat="43.97049" lon="5.54897">
        <ele>793.526</ele>
        <time>2011-04-10T13:49:15Z</time>
      </trkpt>
      <trkpt lat="43.97053" lon="5.54895">
        <ele>794.843</ele>
        <time>2011-04-10T13:49:25Z</time>
      </trkpt>
      <trkpt lat="43.97053" lon="5.54895">
        <ele>794.7</ele>
        <time>2011-04-10T13:49:35Z</time>
      </trkpt>
      <trkpt lat="43.97053" lon="5.54895">
        <ele>794.227</ele>
        <time>2011-04-10T13:49:45Z</time>
      </trkpt>
      <trkpt lat="43.97053" lon="5.54895">
        <ele>794.626</ele>
        <time>2011-04-10T13:49:55Z</time>
      </trkpt>
      <trkpt lat="43.97053" lon="5.54895">
        <ele>794.353</ele>
        <time>2011-04-10T13:50:05Z</time>
      </trkpt>
      <trkpt lat="43.97053" lon="5.54896">
        <ele>793.989</ele>
        <time>2011-04-10T13:50:15Z</time>
      </trkpt>
      <trkpt lat="43.97058" lon="5.5489">
        <ele>794.605</ele>
        <time>2011-04-10T13:50:25Z</time>
      </trkpt>
      <trkpt lat="43.97064" lon="5.54883">
        <ele>795.489</ele>
        <time>2011-04-10T13:50:35Z</time>
      </trkpt>
      <trkpt lat="43.9707" lon="5.54875">
        <ele>796.431</ele>
        <time>2011-04-10T13:50:45Z</time>
      </trkpt>
      <trkpt lat="43.97075" lon="5.54865">
        <ele>797.296</ele>
        <time>2011-04-10T13:50:55Z</time>
      </trkpt>
      <trkpt lat="43.97076" lon="5.54858">
        <ele>798.062</ele>
        <time>2011-04-10T13:51:05Z</time>
      </trkpt>
      <trkpt lat="43.97076" lon="5.54858">
        <ele>797.728</ele>
        <time>2011-04-10T13:51:15Z</time>
      </trkpt>
      <trkpt lat="43.97076" lon="5.54858">
        <ele>797.762</ele>
        <time>2011-04-10T13:51:25Z</time>
      </trkpt>
      <trkpt lat="43.97076" lon="5.54858">
        <ele>798.214</ele>
        <time>2011-04-10T13:51:35Z</time>
      </trkpt>
      <trkpt lat="43.97077" lon="5.54858">
        <ele>799.009</ele>
        <time>2011-04-10T13:51:45Z</time>
      </trkpt>
      <trkpt lat="43.97077" lon="5.54858">
        <ele>798.964</ele>
        <time>2011-04-10T13:51:55Z</time>
      </trkpt>
      <trkpt lat="43.97076" lon="5.54859">
        <ele>798.984</ele>
        <time>2011-04-10T13:52:05Z</time>
      </trkpt>
      <trkpt lat="43.97076" lon="5.54859">
        <ele>798.475</ele>
        <time>2011-04-10T13:52:15Z</time>
      </trkpt>
      <trkpt lat="43.97076" lon="5.54859">
        <ele>799.254</ele>
        <time>2011-04-10T13:52:25Z</time>
      </trkpt>
      <trkpt lat="43.97077" lon="5.54858">
        <ele>797.556</ele>
        <time>2011-04-10T13:52:35Z</time>
      </trkpt>
      <trkpt lat="43.97078" lon="5.54858">
        <ele>798.079</ele>
        <time>2011-04-10T13:52:45Z</time>
      </trkpt>
      <trkpt lat="43.97079" lon="5.5486">
        <ele>797.771</ele>
        <time>2011-04-10T13:52:55Z</time>
      </trkpt>
      <trkpt lat="43.97078" lon="5.54859">
        <ele>798.079</ele>
        <time>2011-04-10T13:53:05Z</time>
      </trkpt>
      <trkpt lat="43.97078" lon="5.54859">
        <ele>797.536</ele>
        <time>2011-04-10T13:53:15Z</time>
      </trkpt>
      <trkpt lat="43.97078" lon="5.54858">
        <ele>797.694</ele>
        <time>2011-04-10T13:53:25Z</time>
      </trkpt>
      <trkpt lat="43.97078" lon="5.54858">
        <ele>797.996</ele>
        <time>2011-04-10T13:53:35Z</time>
      </trkpt>
      <trkpt lat="43.97078" lon="5.54858">
        <ele>797.684</ele>
        <time>2011-04-10T13:53:45Z</time>
      </trkpt>
      <trkpt lat="43.97078" lon="5.54858">
        <ele>797.621</ele>
        <time>2011-04-10T13:53:55Z</time>
      </trkpt>
      <trkpt lat="43.97077" lon="5.54862">
        <ele>797.41</ele>
        <time>2011-04-10T13:54:05Z</time>
      </trkpt>
      <trkpt lat="43.97074" lon="5.54872">
        <ele>796.262</ele>
        <time>2011-04-10T13:54:15Z</time>
      </trkpt>
      <trkpt lat="43.97069" lon="5.54884">
        <ele>795.658</ele>
        <time>2011-04-10T13:54:25Z</time>
      </trkpt>
      <trkpt lat="43.97061" lon="5.54894">
        <ele>794.824</ele>
        <time>2011-04-10T13:54:35Z</time>
      </trkpt>
      <trkpt lat="43.97054" lon="5.54903">
        <ele>793.931</ele>
        <time>2011-04-10T13:54:45Z</time>
      </trkpt>
      <trkpt lat="43.97046" lon="5.5491">
        <ele>792.57</ele>
        <time>2011-04-10T13:54:55Z</time>
      </trkpt>
      <trkpt lat="43.97037" lon="5.54916">
        <ele>791.276</ele>
        <time>2011-04-10T13:55:05Z</time>
      </trkpt>
      <trkpt lat="43.9703" lon="5.54924">
        <ele>790.214</ele>
        <time>2011-04-10T13:55:15Z</time>
      </trkpt>
      <trkpt lat="43.97022" lon="5.54931">
        <ele>789.606</ele>
        <time>2011-04-10T13:55:25Z</time>
      </trkpt>
      <trkpt lat="43.97015" lon="5.54939">
        <ele>788.07</ele>
        <time>2011-04-10T13:55:35Z</time>
      </trkpt>
      <trkpt lat="43.97008" lon="5.54951">
        <ele>787.334</ele>
        <time>2011-04-10T13:55:45Z</time>
      </trkpt>
      <trkpt lat="43.97007" lon="5.54951">
        <ele>787.945</ele>
        <time>2011-04-10T13:55:55Z</time>
      </trkpt>
      <trkpt lat="43.9701" lon="5.54963">
        <ele>787.255</ele>
        <time>2011-04-10T13:56:05Z</time>
      </trkpt>
      <trkpt lat="43.97012" lon="5.54964">
        <ele>787.75</ele>
        <time>2011-04-10T13:56:15Z</time>
      </trkpt>
      <trkpt lat="43.97012" lon="5.54964">
        <ele>787.207</ele>
        <time>2011-04-10T13:56:25Z</time>
      </trkpt>
      <trkpt lat="43.97012" lon="5.54964">
        <ele>787.543</ele>
        <time>2011-04-10T13:56:35Z</time>
      </trkpt>
      <trkpt lat="43.97014" lon="5.54963">
        <ele>787.488</ele>
        <time>2011-04-10T13:56:45Z</time>
      </trkpt>
      <trkpt lat="43.97016" lon="5.54962">
        <ele>787.775</ele>
        <time>2011-04-10T13:56:55Z</time>
      </trkpt>
      <trkpt lat="43.97017" lon="5.54964">
        <ele>786.945</ele>
        <time>2011-04-10T13:57:05Z</time>
      </trkpt>
      <trkpt lat="43.97025" lon="5.54967">
        <ele>787.617</ele>
        <time>2011-04-10T13:57:15Z</time>
      </trkpt>
      <trkpt lat="43.97025" lon="5.54969">
        <ele>788.259</ele>
        <time>2011-04-10T13:57:25Z</time>
      </trkpt>
      <trkpt lat="43.97028" lon="5.54976">
        <ele>788.081</ele>
        <time>2011-04-10T13:57:35Z</time>
      </trkpt>
      <trkpt lat="43.97033" lon="5.54985">
        <ele>788.176</ele>
        <time>2011-04-10T13:57:45Z</time>
      </trkpt>
      <trkpt lat="43.97037" lon="5.54993">
        <ele>787.999</ele>
        <time>2011-04-10T13:57:55Z</time>
      </trkpt>
      <trkpt lat="43.97042" lon="5.55003">
        <ele>788.317</ele>
        <time>2011-04-10T13:58:05Z</time>
      </trkpt>
      <trkpt lat="43.97051" lon="5.55011">
        <ele>788.903</ele>
        <time>2011-04-10T13:58:15Z</time>
      </trkpt>
      <trkpt lat="43.97059" lon="5.5502">
        <ele>789.603</ele>
        <time>2011-04-10T13:58:25Z</time>
      </trkpt>
      <trkpt lat="43.97066" lon="5.55032">
        <ele>790.067</ele>
        <time>2011-04-10T13:58:35Z</time>
      </trkpt>
      <trkpt lat="43.97077" lon="5.55043">
        <ele>790.482</ele>
        <time>2011-04-10T13:58:45Z</time>
      </trkpt>
      <trkpt lat="43.97083" lon="5.5506">
        <ele>791.469</ele>
        <time>2011-04-10T13:58:55Z</time>
      </trkpt>
      <trkpt lat="43.9709" lon="5.55072">
        <ele>791.047</ele>
        <time>2011-04-10T13:59:05Z</time>
      </trkpt>
      <trkpt lat="43.971" lon="5.55084">
        <ele>791.68</ele>
        <time>2011-04-10T13:59:15Z</time>
      </trkpt>
      <trkpt lat="43.97109" lon="5.55093">
        <ele>792.091</ele>
        <time>2011-04-10T13:59:25Z</time>
      </trkpt>
      <trkpt lat="43.97119" lon="5.55104">
        <ele>792.716</ele>
        <time>2011-04-10T13:59:35Z</time>
      </trkpt>
      <trkpt lat="43.97126" lon="5.55114">
        <ele>793.801</ele>
        <time>2011-04-10T13:59:45Z</time>
      </trkpt>
      <trkpt lat="43.97133" lon="5.55127">
        <ele>794.793</ele>
        <time>2011-04-10T13:59:55Z</time>
      </trkpt>
      <trkpt lat="43.97139" lon="5.55141">
        <ele>795.451</ele>
        <time>2011-04-10T14:00:05Z</time>
      </trkpt>
      <trkpt lat="43.97145" lon="5.55151">
        <ele>796.914</ele>
        <time>2011-04-10T14:00:15Z</time>
      </trkpt>
      <trkpt lat="43.9715" lon="5.55164">
        <ele>797.583</ele>
        <time>2011-04-10T14:00:25Z</time>
      </trkpt>
      <trkpt lat="43.97155" lon="5.55178">
        <ele>799.121</ele>
        <time>2011-04-10T14:00:35Z</time>
      </trkpt>
      <trkpt lat="43.97159" lon="5.55193">
        <ele>800.067</ele>
        <time>2011-04-10T14:00:45Z</time>
      </trkpt>
      <trkpt lat="43.97164" lon="5.55209">
        <ele>800.758</ele>
        <time>2011-04-10T14:00:55Z</time>
      </trkpt>
      <trkpt lat="43.97167" lon="5.5522">
        <ele>800.927</ele>
        <time>2011-04-10T14:01:05Z</time>
      </trkpt>
      <trkpt lat="43.97171" lon="5.55236">
        <ele>800.892</ele>
        <time>2011-04-10T14:01:15Z</time>
      </trkpt>
      <trkpt lat="43.97176" lon="5.55247">
        <ele>801.052</ele>
        <time>2011-04-10T14:01:25Z</time>
      </trkpt>
      <trkpt lat="43.9718" lon="5.55259">
        <ele>800.604</ele>
        <time>2011-04-10T14:01:35Z</time>
      </trkpt>
      <trkpt lat="43.97186" lon="5.55273">
        <ele>800.6</ele>
        <time>2011-04-10T14:01:45Z</time>
      </trkpt>
      <trkpt lat="43.97191" lon="5.55291">
        <ele>800.713</ele>
        <time>2011-04-10T14:01:55Z</time>
      </trkpt>
      <trkpt lat="43.97196" lon="5.5531">
        <ele>799.751</ele>
        <time>2011-04-10T14:02:05Z</time>
      </trkpt>
      <trkpt lat="43.972" lon="5.5533">
        <ele>799.556</ele>
        <time>2011-04-10T14:02:15Z</time>
      </trkpt>
      <trkpt lat="43.97206" lon="5.55347">
        <ele>798.879</ele>
        <time>2011-04-10T14:02:25Z</time>
      </trkpt>
      <trkpt lat="43.9721" lon="5.55366">
        <ele>798.032</ele>
        <time>2011-04-10T14:02:35Z</time>
      </trkpt>
      <trkpt lat="43.97212" lon="5.5539">
        <ele>798.793</ele>
        <time>2011-04-10T14:02:45Z</time>
      </trkpt>
      <trkpt lat="43.9721" lon="5.55401">
        <ele>799.029</ele>
        <time>2011-04-10T14:02:55Z</time>
      </trkpt>
      <trkpt lat="43.9721" lon="5.554">
        <ele>798.626</ele>
        <time>2011-04-10T14:03:05Z</time>
      </trkpt>
      <trkpt lat="43.9721" lon="5.554">
        <ele>798.978</ele>
        <time>2011-04-10T14:03:15Z</time>
      </trkpt>
      <trkpt lat="43.97209" lon="5.5541">
        <ele>798.969</ele>
        <time>2011-04-10T14:03:25Z</time>
      </trkpt>
      <trkpt lat="43.9721" lon="5.55421">
        <ele>797.07</ele>
        <time>2011-04-10T14:03:35Z</time>
      </trkpt>
      <trkpt lat="43.97212" lon="5.55432">
        <ele>795.891</ele>
        <time>2011-04-10T14:03:45Z</time>
      </trkpt>
      <trkpt lat="43.97216" lon="5.55446">
        <ele>794.598</ele>
        <time>2011-04-10T14:03:55Z</time>
      </trkpt>
      <trkpt lat="43.9722" lon="5.55463">
        <ele>793.387</ele>
        <time>2011-04-10T14:04:05Z</time>
      </trkpt>
      <trkpt lat="43.97219" lon="5.5548">
        <ele>792.23</ele>
        <time>2011-04-10T14:04:15Z</time>
      </trkpt>
      <trkpt lat="43.97222" lon="5.55494">
        <ele>790.297</ele>
        <time>2011-04-10T14:04:25Z</time>
      </trkpt>
      <trkpt lat="43.97226" lon="5.5551">
        <ele>788.961</ele>
        <time>2011-04-10T14:04:35Z</time>
      </trkpt>
      <trkpt lat="43.97227" lon="5.55523">
        <ele>787.162</ele>
        <time>2011-04-10T14:04:45Z</time>
      </trkpt>
      <trkpt lat="43.97224" lon="5.55531">
        <ele>786.144</ele>
        <time>2011-04-10T14:04:55Z</time>
      </trkpt>
      <trkpt lat="43.97231" lon="5.55527">
        <ele>786.706</ele>
        <time>2011-04-10T14:05:05Z</time>
      </trkpt>
      <trkpt lat="43.97232" lon="5.55532">
        <ele>786.26</ele>
        <time>2011-04-10T14:05:15Z</time>
      </trkpt>
      <trkpt lat="43.97232" lon="5.55533">
        <ele>785.751</ele>
        <time>2011-04-10T14:05:25Z</time>
      </trkpt>
      <trkpt lat="43.97232" lon="5.55533">
        <ele>785.16</ele>
        <time>2011-04-10T14:05:35Z</time>
      </trkpt>
      <trkpt lat="43.97231" lon="5.55535">
        <ele>784.535</ele>
        <time>2011-04-10T14:05:45Z</time>
      </trkpt>
      <trkpt lat="43.97231" lon="5.55535">
        <ele>785.469</ele>
        <time>2011-04-10T14:05:55Z</time>
      </trkpt>
      <trkpt lat="43.97231" lon="5.55535">
        <ele>785.159</ele>
        <time>2011-04-10T14:06:05Z</time>
      </trkpt>
      <trkpt lat="43.97231" lon="5.55535">
        <ele>785.578</ele>
        <time>2011-04-10T14:06:15Z</time>
      </trkpt>
      <trkpt lat="43.97231" lon="5.55535">
        <ele>785.407</ele>
        <time>2011-04-10T14:06:25Z</time>
      </trkpt>
      <trkpt lat="43.97231" lon="5.55535">
        <ele>785.494</ele>
        <time>2011-04-10T14:06:35Z</time>
      </trkpt>
      <trkpt lat="43.97231" lon="5.55535">
        <ele>785.379</ele>
        <time>2011-04-10T14:06:45Z</time>
      </trkpt>
      <trkpt lat="43.97231" lon="5.55535">
        <ele>785.367</ele>
        <time>2011-04-10T14:06:55Z</time>
      </trkpt>
      <trkpt lat="43.97231" lon="5.55535">
        <ele>785.694</ele>
        <time>2011-04-10T14:07:05Z</time>
      </trkpt>
      <trkpt lat="43.97231" lon="5.55535">
        <ele>785.702</ele>
        <time>2011-04-10T14:07:15Z</time>
      </trkpt>
      <trkpt lat="43.97231" lon="5.55535">
        <ele>785.294</ele>
        <time>2011-04-10T14:07:25Z</time>
      </trkpt>
      <trkpt lat="43.97231" lon="5.55534">
        <ele>785.693</ele>
        <time>2011-04-10T14:07:35Z</time>
      </trkpt>
      <trkpt lat="43.97231" lon="5.55534">
        <ele>785.441</ele>
        <time>2011-04-10T14:07:45Z</time>
      </trkpt>
      <trkpt lat="43.97231" lon="5.55534">
        <ele>785.731</ele>
        <time>2011-04-10T14:07:55Z</time>
      </trkpt>
      <trkpt lat="43.97231" lon="5.55534">
        <ele>785.432</ele>
        <time>2011-04-10T14:08:05Z</time>
      </trkpt>
      <trkpt lat="43.97231" lon="5.55534">
        <ele>785.242</ele>
        <time>2011-04-10T14:08:15Z</time>
      </trkpt>
      <trkpt lat="43.97231" lon="5.55534">
        <ele>785.752</ele>
        <time>2011-04-10T14:08:25Z</time>
      </trkpt>
      <trkpt lat="43.97231" lon="5.55535">
        <ele>785.293</ele>
        <time>2011-04-10T14:08:35Z</time>
      </trkpt>
      <trkpt lat="43.97231" lon="5.55535">
        <ele>786.02</ele>
        <time>2011-04-10T14:08:45Z</time>
      </trkpt>
      <trkpt lat="43.97231" lon="5.55535">
        <ele>785.643</ele>
        <time>2011-04-10T14:08:55Z</time>
      </trkpt>
      <trkpt lat="43.97231" lon="5.55535">
        <ele>785.75</ele>
        <time>2011-04-10T14:09:05Z</time>
      </trkpt>
      <trkpt lat="43.97231" lon="5.55535">
        <ele>785.47</ele>
        <time>2011-04-10T14:09:15Z</time>
      </trkpt>
      <trkpt lat="43.97231" lon="5.55535">
        <ele>785.44</ele>
        <time>2011-04-10T14:09:25Z</time>
      </trkpt>
      <trkpt lat="43.97231" lon="5.55535">
        <ele>785.4</ele>
        <time>2011-04-10T14:09:35Z</time>
      </trkpt>
      <trkpt lat="43.97231" lon="5.55535">
        <ele>785.221</ele>
        <time>2011-04-10T14:09:45Z</time>
      </trkpt>
      <trkpt lat="43.97231" lon="5.55535">
        <ele>785.305</ele>
        <time>2011-04-10T14:09:55Z</time>
      </trkpt>
      <trkpt lat="43.97231" lon="5.55535">
        <ele>785.226</ele>
        <time>2011-04-10T14:10:05Z</time>
      </trkpt>
      <trkpt lat="43.97231" lon="5.55535">
        <ele>785.514</ele>
        <time>2011-04-10T14:10:15Z</time>
      </trkpt>
      <trkpt lat="43.97231" lon="5.55535">
        <ele>786.008</ele>
        <time>2011-04-10T14:10:25Z</time>
      </trkpt>
      <trkpt lat="43.97232" lon="5.55541">
        <ele>785.198</ele>
        <time>2011-04-10T14:10:35Z</time>
      </trkpt>
      <trkpt lat="43.97235" lon="5.55555">
        <ele>783.255</ele>
        <time>2011-04-10T14:10:45Z</time>
      </trkpt>
      <trkpt lat="43.97236" lon="5.55569">
        <ele>782.039</ele>
        <time>2011-04-10T14:10:55Z</time>
      </trkpt>
      <trkpt lat="43.97241" lon="5.5558">
        <ele>780.503</ele>
        <time>2011-04-10T14:11:05Z</time>
      </trkpt>
      <trkpt lat="43.97247" lon="5.5559">
        <ele>778.464</ele>
        <time>2011-04-10T14:11:15Z</time>
      </trkpt>
      <trkpt lat="43.9725" lon="5.55603">
        <ele>776.725</ele>
        <time>2011-04-10T14:11:25Z</time>
      </trkpt>
      <trkpt lat="43.97254" lon="5.55616">
        <ele>775.323</ele>
        <time>2011-04-10T14:11:35Z</time>
      </trkpt>
      <trkpt lat="43.97258" lon="5.5563">
        <ele>773.692</ele>
        <time>2011-04-10T14:11:45Z</time>
      </trkpt>
      <trkpt lat="43.97263" lon="5.55641">
        <ele>771.553</ele>
        <time>2011-04-10T14:11:55Z</time>
      </trkpt>
      <trkpt lat="43.97258" lon="5.55653">
        <ele>769.758</ele>
        <time>2011-04-10T14:12:05Z</time>
      </trkpt>
      <trkpt lat="43.97253" lon="5.55667">
        <ele>767.324</ele>
        <time>2011-04-10T14:12:15Z</time>
      </trkpt>
      <trkpt lat="43.97253" lon="5.55682">
        <ele>766.177</ele>
        <time>2011-04-10T14:12:25Z</time>
      </trkpt>
      <trkpt lat="43.97251" lon="5.55692">
        <ele>763.846</ele>
        <time>2011-04-10T14:12:35Z</time>
      </trkpt>
      <trkpt lat="43.97255" lon="5.55698">
        <ele>762.68</ele>
        <time>2011-04-10T14:12:45Z</time>
      </trkpt>
      <trkpt lat="43.9726" lon="5.5571">
        <ele>761.685</ele>
        <time>2011-04-10T14:12:55Z</time>
      </trkpt>
      <trkpt lat="43.97268" lon="5.55721">
        <ele>760.252</ele>
        <time>2011-04-10T14:13:05Z</time>
      </trkpt>
      <trkpt lat="43.97276" lon="5.55731">
        <ele>758.939</ele>
        <time>2011-04-10T14:13:15Z</time>
      </trkpt>
      <trkpt lat="43.97286" lon="5.55739">
        <ele>757.432</ele>
        <time>2011-04-10T14:13:25Z</time>
      </trkpt>
      <trkpt lat="43.97295" lon="5.55746">
        <ele>756.099</ele>
        <time>2011-04-10T14:13:35Z</time>
      </trkpt>
      <trkpt lat="43.97302" lon="5.55755">
        <ele>754.368</ele>
        <time>2011-04-10T14:13:45Z</time>
      </trkpt>
      <trkpt lat="43.9731" lon="5.55766">
        <ele>752.224</ele>
        <time>2011-04-10T14:13:55Z</time>
      </trkpt>
      <trkpt lat="43.97318" lon="5.55776">
        <ele>750.641</ele>
        <time>2011-04-10T14:14:05Z</time>
      </trkpt>
      <trkpt lat="43.97326" lon="5.55786">
        <ele>748.738</ele>
        <time>2011-04-10T14:14:15Z</time>
      </trkpt>
      <trkpt lat="43.97334" lon="5.55798">
        <ele>747.097</ele>
        <time>2011-04-10T14:14:25Z</time>
      </trkpt>
      <trkpt lat="43.97342" lon="5.55811">
        <ele>745.291</ele>
        <time>2011-04-10T14:14:35Z</time>
      </trkpt>
      <trkpt lat="43.97349" lon="5.55823">
        <ele>743.517</ele>
        <time>2011-04-10T14:14:45Z</time>
      </trkpt>
      <trkpt lat="43.97357" lon="5.55833">
        <ele>741.635</ele>
        <time>2011-04-10T14:14:55Z</time>
      </trkpt>
      <trkpt lat="43.97365" lon="5.55845">
        <ele>740.023</ele>
        <time>2011-04-10T14:15:05Z</time>
      </trkpt>
      <trkpt lat="43.97372" lon="5.55857">
        <ele>738.086</ele>
        <time>2011-04-10T14:15:15Z</time>
      </trkpt>
      <trkpt lat="43.97378" lon="5.55871">
        <ele>736.477</ele>
        <time>2011-04-10T14:15:25Z</time>
      </trkpt>
      <trkpt lat="43.97385" lon="5.55883">
        <ele>734.988</ele>
        <time>2011-04-10T14:15:35Z</time>
      </trkpt>
      <trkpt lat="43.97392" lon="5.55897">
        <ele>733.513</ele>
        <time>2011-04-10T14:15:45Z</time>
      </trkpt>
      <trkpt lat="43.97399" lon="5.5591">
        <ele>731.76</ele>
        <time>2011-04-10T14:15:55Z</time>
      </trkpt>
      <trkpt lat="43.97403" lon="5.55925">
        <ele>730.62</ele>
        <time>2011-04-10T14:16:05Z</time>
      </trkpt>
      <trkpt lat="43.97409" lon="5.55938">
        <ele>728.994</ele>
        <time>2011-04-10T14:16:15Z</time>
      </trkpt>
      <trkpt lat="43.97416" lon="5.55944">
        <ele>728.041</ele>
        <time>2011-04-10T14:16:25Z</time>
      </trkpt>
      <trkpt lat="43.97425" lon="5.55954">
        <ele>726.151</ele>
        <time>2011-04-10T14:16:35Z</time>
      </trkpt>
      <trkpt lat="43.97434" lon="5.55964">
        <ele>724.778</ele>
        <time>2011-04-10T14:16:45Z</time>
      </trkpt>
      <trkpt lat="43.97444" lon="5.55973">
        <ele>723.343</ele>
        <time>2011-04-10T14:16:55Z</time>
      </trkpt>
      <trkpt lat="43.97454" lon="5.55981">
        <ele>721.466</ele>
        <time>2011-04-10T14:17:05Z</time>
      </trkpt>
      <trkpt lat="43.97465" lon="5.55989">
        <ele>720.225</ele>
        <time>2011-04-10T14:17:15Z</time>
      </trkpt>
      <trkpt lat="43.97476" lon="5.55994">
        <ele>719</ele>
        <time>2011-04-10T14:17:25Z</time>
      </trkpt>
      <trkpt lat="43.97486" lon="5.56">
        <ele>717.76</ele>
        <time>2011-04-10T14:17:35Z</time>
      </trkpt>
      <trkpt lat="43.97496" lon="5.56008">
        <ele>716.179</ele>
        <time>2011-04-10T14:17:45Z</time>
      </trkpt>
      <trkpt lat="43.97507" lon="5.56017">
        <ele>714.048</ele>
        <time>2011-04-10T14:17:55Z</time>
      </trkpt>
      <trkpt lat="43.97514" lon="5.56029">
        <ele>712.547</ele>
        <time>2011-04-10T14:18:05Z</time>
      </trkpt>
      <trkpt lat="43.97522" lon="5.5604">
        <ele>710.366</ele>
        <time>2011-04-10T14:18:15Z</time>
      </trkpt>
      <trkpt lat="43.97531" lon="5.56049">
        <ele>708.29</ele>
        <time>2011-04-10T14:18:25Z</time>
      </trkpt>
      <trkpt lat="43.97539" lon="5.56061">
        <ele>706.855</ele>
        <time>2011-04-10T14:18:35Z</time>
      </trkpt>
      <trkpt lat="43.97549" lon="5.56071">
        <ele>705.128</ele>
        <time>2011-04-10T14:18:45Z</time>
      </trkpt>
      <trkpt lat="43.97558" lon="5.5608">
        <ele>703.959</ele>
        <time>2011-04-10T14:18:55Z</time>
      </trkpt>
      <trkpt lat="43.97568" lon="5.5609">
        <ele>701.893</ele>
        <time>2011-04-10T14:19:05Z</time>
      </trkpt>
      <trkpt lat="43.97577" lon="5.56102">
        <ele>700.275</ele>
        <time>2011-04-10T14:19:15Z</time>
      </trkpt>
      <trkpt lat="43.97587" lon="5.5611">
        <ele>698.157</ele>
        <time>2011-04-10T14:19:25Z</time>
      </trkpt>
      <trkpt lat="43.97597" lon="5.5612">
        <ele>696.976</ele>
        <time>2011-04-10T14:19:35Z</time>
      </trkpt>
      <trkpt lat="43.97607" lon="5.5613">
        <ele>694.809</ele>
        <time>2011-04-10T14:19:45Z</time>
      </trkpt>
      <trkpt lat="43.97616" lon="5.56139">
        <ele>693.274</ele>
        <time>2011-04-10T14:19:55Z</time>
      </trkpt>
      <trkpt lat="43.97626" lon="5.56149">
        <ele>691.789</ele>
        <time>2011-04-10T14:20:05Z</time>
      </trkpt>
      <trkpt lat="43.97635" lon="5.56157">
        <ele>689.686</ele>
        <time>2011-04-10T14:20:15Z</time>
      </trkpt>
      <trkpt lat="43.97647" lon="5.56162">
        <ele>687.625</ele>
        <time>2011-04-10T14:20:25Z</time>
      </trkpt>
      <trkpt lat="43.97656" lon="5.56172">
        <ele>686.263</ele>
        <time>2011-04-10T14:20:35Z</time>
      </trkpt>
      <trkpt lat="43.97666" lon="5.56181">
        <ele>684.654</ele>
        <time>2011-04-10T14:20:45Z</time>
      </trkpt>
      <trkpt lat="43.97677" lon="5.56188">
        <ele>683.889</ele>
        <time>2011-04-10T14:20:55Z</time>
      </trkpt>
      <trkpt lat="43.97688" lon="5.56196">
        <ele>681.624</ele>
        <time>2011-04-10T14:21:05Z</time>
      </trkpt>
      <trkpt lat="43.97697" lon="5.56202">
        <ele>680.298</ele>
        <time>2011-04-10T14:21:15Z</time>
      </trkpt>
      <trkpt lat="43.97706" lon="5.56209">
        <ele>678.988</ele>
        <time>2011-04-10T14:21:25Z</time>
      </trkpt>
      <trkpt lat="43.97716" lon="5.5622">
        <ele>677.468</ele>
        <time>2011-04-10T14:21:35Z</time>
      </trkpt>
      <trkpt lat="43.97724" lon="5.56227">
        <ele>675.149</ele>
        <time>2011-04-10T14:21:45Z</time>
      </trkpt>
      <trkpt lat="43.97723" lon="5.5623">
        <ele>676.173</ele>
        <time>2011-04-10T14:21:55Z</time>
      </trkpt>
      <trkpt lat="43.97723" lon="5.56229">
        <ele>675.8</ele>
        <time>2011-04-10T14:22:05Z</time>
      </trkpt>
      <trkpt lat="43.97728" lon="5.56232">
        <ele>674.507</ele>
        <time>2011-04-10T14:22:15Z</time>
      </trkpt>
      <trkpt lat="43.97738" lon="5.56235">
        <ele>673.197</ele>
        <time>2011-04-10T14:22:25Z</time>
      </trkpt>
      <trkpt lat="43.97739" lon="5.56234">
        <ele>673.246</ele>
        <time>2011-04-10T14:22:35Z</time>
      </trkpt>
      <trkpt lat="43.97742" lon="5.56233">
        <ele>673.3</ele>
        <time>2011-04-10T14:22:45Z</time>
      </trkpt>
      <trkpt lat="43.97755" lon="5.56238">
        <ele>672.556</ele>
        <time>2011-04-10T14:22:55Z</time>
      </trkpt>
      <trkpt lat="43.97769" lon="5.56243">
        <ele>670.923</ele>
        <time>2011-04-10T14:23:05Z</time>
      </trkpt>
      <trkpt lat="43.97779" lon="5.56244">
        <ele>670.346</ele>
        <time>2011-04-10T14:23:15Z</time>
      </trkpt>
      <trkpt lat="43.97789" lon="5.56249">
        <ele>668.803</ele>
        <time>2011-04-10T14:23:25Z</time>
      </trkpt>
      <trkpt lat="43.97797" lon="5.56251">
        <ele>667.634</ele>
        <time>2011-04-10T14:23:35Z</time>
      </trkpt>
      <trkpt lat="43.97802" lon="5.56253">
        <ele>666.862</ele>
        <time>2011-04-10T14:23:45Z</time>
      </trkpt>
      <trkpt lat="43.97812" lon="5.56257">
        <ele>665.702</ele>
        <time>2011-04-10T14:23:55Z</time>
      </trkpt>
      <trkpt lat="43.9782" lon="5.56259">
        <ele>665.173</ele>
        <time>2011-04-10T14:24:05Z</time>
      </trkpt>
      <trkpt lat="43.97827" lon="5.56263">
        <ele>663.414</ele>
        <time>2011-04-10T14:24:15Z</time>
      </trkpt>
      <trkpt lat="43.97835" lon="5.56261">
        <ele>661.22</ele>
        <time>2011-04-10T14:24:25Z</time>
      </trkpt>
      <trkpt lat="43.97846" lon="5.56263">
        <ele>659.194</ele>
        <time>2011-04-10T14:24:35Z</time>
      </trkpt>
      <trkpt lat="43.97857" lon="5.56266">
        <ele>657.123</ele>
        <time>2011-04-10T14:24:45Z</time>
      </trkpt>
      <trkpt lat="43.97866" lon="5.56268">
        <ele>654.764</ele>
        <time>2011-04-10T14:24:55Z</time>
      </trkpt>
      <trkpt lat="43.97872" lon="5.56271">
        <ele>653.562</ele>
        <time>2011-04-10T14:25:05Z</time>
      </trkpt>
      <trkpt lat="43.97876" lon="5.56272">
        <ele>652.599</ele>
        <time>2011-04-10T14:25:15Z</time>
      </trkpt>
      <trkpt lat="43.97884" lon="5.56277">
        <ele>650.783</ele>
        <time>2011-04-10T14:25:25Z</time>
      </trkpt>
      <trkpt lat="43.97892" lon="5.56281">
        <ele>649.698</ele>
        <time>2011-04-10T14:25:35Z</time>
      </trkpt>
      <trkpt lat="43.979" lon="5.56284">
        <ele>648.241</ele>
        <time>2011-04-10T14:25:45Z</time>
      </trkpt>
      <trkpt lat="43.97905" lon="5.56289">
        <ele>646.902</ele>
        <time>2011-04-10T14:25:55Z</time>
      </trkpt>
      <trkpt lat="43.97915" lon="5.56297">
        <ele>645.36</ele>
        <time>2011-04-10T14:26:05Z</time>
      </trkpt>
      <trkpt lat="43.97919" lon="5.56303">
        <ele>644.241</ele>
        <time>2011-04-10T14:26:15Z</time>
      </trkpt>
      <trkpt lat="43.97919" lon="5.56301">
        <ele>643.97</ele>
        <time>2011-04-10T14:26:25Z</time>
      </trkpt>
      <trkpt lat="43.9792" lon="5.56304">
        <ele>644.199</ele>
        <time>2011-04-10T14:26:35Z</time>
      </trkpt>
      <trkpt lat="43.97925" lon="5.56307">
        <ele>643.738</ele>
        <time>2011-04-10T14:26:45Z</time>
      </trkpt>
      <trkpt lat="43.97932" lon="5.56309">
        <ele>643.273</ele>
        <time>2011-04-10T14:26:55Z</time>
      </trkpt>
      <trkpt lat="43.97933" lon="5.56308">
        <ele>643.096</ele>
        <time>2011-04-10T14:27:05Z</time>
      </trkpt>
      <trkpt lat="43.97934" lon="5.56309">
        <ele>642.911</ele>
        <time>2011-04-10T14:27:15Z</time>
      </trkpt>
      <trkpt lat="43.97945" lon="5.56311">
        <ele>642.549</ele>
        <time>2011-04-10T14:27:25Z</time>
      </trkpt>
      <trkpt lat="43.97954" lon="5.56316">
        <ele>642.765</ele>
        <time>2011-04-10T14:27:35Z</time>
      </trkpt>
      <trkpt lat="43.97957" lon="5.56325">
        <ele>642.002</ele>
        <time>2011-04-10T14:27:45Z</time>
      </trkpt>
      <trkpt lat="43.97956" lon="5.56339">
        <ele>641.552</ele>
        <time>2011-04-10T14:27:55Z</time>
      </trkpt>
      <trkpt lat="43.97959" lon="5.5635">
        <ele>641.192</ele>
        <time>2011-04-10T14:28:05Z</time>
      </trkpt>
      <trkpt lat="43.97957" lon="5.56366">
        <ele>640.543</ele>
        <time>2011-04-10T14:28:15Z</time>
      </trkpt>
      <trkpt lat="43.97952" lon="5.56381">
        <ele>639.847</ele>
        <time>2011-04-10T14:28:25Z</time>
      </trkpt>
      <trkpt lat="43.97951" lon="5.56396">
        <ele>639.845</ele>
        <time>2011-04-10T14:28:35Z</time>
      </trkpt>
      <trkpt lat="43.97949" lon="5.56402">
        <ele>639.681</ele>
        <time>2011-04-10T14:28:45Z</time>
      </trkpt>
      <trkpt lat="43.97949" lon="5.56402">
        <ele>638.786</ele>
        <time>2011-04-10T14:28:55Z</time>
      </trkpt>
      <trkpt lat="43.97949" lon="5.56402">
        <ele>639.355</ele>
        <time>2011-04-10T14:29:01Z</time>
      </trkpt>
      <trkpt lat="43.97949" lon="5.56401">
        <ele>639.355</ele>
        <time>2011-04-10T14:29:02Z</time>
      </trkpt>
    </trkseg>
  </trk>
</gpx>